[[{"header":{"parameterUnit":"m.s-1","parameterCategory":1,"la1":30.6,"la2":29.2853,"lo1":-89.7004,"lo2":-87.6739,"dy":0.0162,"dx":0.0183,"nx":112,"ny":82,"refTime":"2023-10-18T06:00:00:Z","depth":0,"parameterNumber":2,"parameterNumberName":"U-component_of_WINDS"},"data":[0.0,0.0,0.0,0.0,0.0,0.0,0.0,0.0,0.0,0.0,0.0,0.0,0.0,0.0,0.0,0.0,0.0,0.0,0.0,0.0,0.0,0.0,0.0,0.0,0.0,0.0,0.0,0.0,0.0,0.0,0.0,0.0,0.0,0.0,0.0,0.0,0.0,0.0,0.0,0.0,0.0,0.0,0.0,0.0,0.0,0.0,0.0,0.0,0.0,0.0,0.0,0.0,0.0,0.0,0.0,0.0,0.0,0.0,0.0,0.0,0.0,0.0,0.0,0.0,0.0,0.0,0.0,0.0,0.0,0.0,0.0,0.0,0.0,0.0,0.0,0.0,0.0,0.0,0.0,0.0,0.0,0.0,0.0,0.0,0.0,0.0,0.0,0.0,0.0,0.0,-1.191,-1.2261,-1.2305,-1.2305,-1.2305,-1.2305,-1.2452,-1.282,0.0,0.0,0.0,0.0,0.0,0.0,0.0,0.0,0.0,0.0,0.0,0.0,0.0,0.0,0.0,0.0,0.0,0.0,0.0,0.0,0.0,0.0,0.0,0.0,0.0,0.0,0.0,0.0,0.0,0.0,0.0,0.0,0.0,0.0,0.0,0.0,0.0,0.0,0.0,0.0,0.0,0.0,0.0,0.0,0.0,0.0,0.0,0.0,0.0,0.0,0.0,0.0,0.0,0.0,0.0,0.0,0.0,0.0,0.0,0.0,0.0,0.0,0.0,0.0,0.0,0.0,0.0,0.0,0.0,0.0,0.0,0.0,0.0,0.0,0.0,0.0,0.0,0.0,0.0,0.0,0.0,0.0,0.0,0.0,0.0,0.0,0.0,0.0,0.0,0.0,0.0,0.0,0.0,0.0,0.0,0.0,0.0,0.0,0.0,0.0,0.0,0.0,0.0,0.0,-1.2224,-1.228,-1.2305,-1.2305,-1.2305,-1.2305,-1.2397,-1.2636,0.0,0.0,0.0,0.0,0.0,0.0,0.0,0.0,0.0,0.0,0.0,0.0,0.0,0.0,0.0,0.0,0.0,0.0,0.0,0.0,0.0,0.0,0.0,0.0,0.0,0.0,0.0,0.0,0.0,0.0,0.0,0.0,0.0,0.0,0.0,0.0,0.0,0.0,0.0,0.0,0.0,0.0,0.0,0.0,0.0,0.0,0.0,0.0,0.0,0.0,0.0,0.0,0.0,0.0,0.0,0.0,0.0,0.0,0.0,0.0,0.0,0.0,0.0,0.0,0.0,0.0,0.0,0.0,0.0,0.0,0.0,0.0,0.0,0.0,0.0,0.0,0.0,0.0,0.0,0.0,0.0,0.0,0.0,0.0,0.0,0.0,0.0,0.0,0.0,0.0,0.0,0.0,0.0,0.0,0.0,0.0,0.0,0.0,0.0,0.0,0.0,0.0,0.0,-1.2169,-1.2305,-1.2305,-1.2305,-1.2305,-1.2305,-1.2305,-1.2434,-1.2746,-1.2654,0.0,0.0,0.0,0.0,0.0,0.0,0.0,0.0,0.0,0.0,0.0,0.0,0.0,0.0,0.0,0.0,0.0,0.0,0.0,0.0,0.0,0.0,0.0,0.0,0.0,0.0,0.0,0.0,0.0,0.0,0.0,0.0,0.0,0.0,0.0,0.0,0.0,0.0,0.0,0.0,0.0,0.0,0.0,0.0,0.0,0.0,0.0,0.0,0.0,0.0,0.0,0.0,0.0,0.0,0.0,0.0,0.0,0.0,0.0,0.0,0.0,0.0,0.0,0.0,0.0,0.0,0.0,0.0,0.0,0.0,0.0,0.0,0.0,0.0,0.0,0.0,0.0,0.0,0.0,0.0,0.0,0.0,0.0,0.0,0.0,0.0,0.0,0.0,0.0,0.0,0.0,0.0,0.0,0.0,0.0,0.0,0.0,0.0,0.0,0.0,0.0,0.0,-1.2206,-1.2305,-1.2305,-1.2305,-1.2305,-1.2305,-1.2305,-1.247,-1.2863,-1.2771,0.0,0.0,0.0,0.0,0.0,0.0,0.0,0.0,0.0,0.0,0.0,0.0,0.0,0.0,0.0,0.0,0.0,0.0,0.0,0.0,0.0,0.0,0.0,0.0,0.0,0.0,0.0,0.0,0.0,0.0,0.0,0.0,0.0,0.0,0.0,0.0,0.0,0.0,0.0,0.0,0.0,0.0,0.0,0.0,0.0,0.0,0.0,0.0,0.0,0.0,0.0,0.0,0.0,0.0,0.0,0.0,0.0,0.0,0.0,0.0,0.0,0.0,0.0,0.0,0.0,0.0,0.0,0.0,0.0,0.0,0.0,0.0,0.0,0.0,0.0,0.0,0.0,0.0,0.0,0.0,0.0,0.0,0.0,0.0,0.0,0.0,0.0,0.0,0.0,0.0,0.0,0.0,0.0,0.0,0.0,0.0,0.0,0.0,0.0,0.0,0.0,0.0,-1.228,-1.2305,-1.2305,-1.2305,-1.2305,-1.2305,-1.2305,-1.247,-1.2863,-1.29,0.0,0.0,0.0,0.0,0.0,0.0,0.0,0.0,0.0,0.0,0.0,0.0,0.0,0.0,0.0,0.0,0.0,0.0,0.0,0.0,0.0,0.0,0.0,0.0,0.0,0.0,0.0,0.0,0.0,0.0,0.0,0.0,0.0,0.0,0.0,0.0,0.0,0.0,0.0,0.0,0.0,0.0,0.0,0.0,0.0,0.0,0.0,0.0,0.0,0.0,0.0,0.0,0.0,0.0,0.0,0.0,0.0,0.0,0.0,0.0,0.0,0.0,0.0,0.0,0.0,0.0,0.0,0.0,0.0,0.0,0.0,0.0,0.0,0.0,0.0,0.0,0.0,0.0,0.0,0.0,0.0,0.0,0.0,0.0,0.0,0.0,0.0,0.0,0.0,0.0,0.0,0.0,0.0,0.0,0.0,0.0,0.0,0.0,0.0,0.0,0.0,0.0,-1.2114,-1.2114,0.0,-1.2224,-1.2305,-1.2305,-1.2305,-1.2415,-1.2691,0.0,0.0,0.0,0.0,0.0,0.0,0.0,0.0,0.0,0.0,0.0,0.0,0.0,0.0,0.0,0.0,0.0,0.0,0.0,0.0,0.0,0.0,0.0,0.0,0.0,0.0,0.0,0.0,0.0,0.0,0.0,0.0,0.0,0.0,0.0,0.0,0.0,0.0,0.0,0.0,0.0,0.0,0.0,0.0,0.0,0.0,0.0,0.0,0.0,0.0,0.0,0.0,0.0,0.0,0.0,0.0,0.0,0.0,0.0,0.0,0.0,0.0,0.0,0.0,0.0,0.0,0.0,0.0,0.0,0.0,0.0,0.0,0.0,0.0,0.0,0.0,0.0,0.0,0.0,0.0,0.0,0.0,0.0,0.0,0.0,0.0,0.0,0.0,0.0,0.0,0.0,0.0,0.0,0.0,0.0,0.0,0.0,0.0,0.0,0.0,0.0,0.0,-1.1868,-1.1966,-1.2003,0.0,-1.2169,-1.2305,-1.2305,-1.2305,-1.2397,-1.2599,0.0,0.0,0.0,0.0,0.0,0.0,0.0,0.0,0.0,0.0,0.0,0.0,0.0,0.0,0.0,0.0,0.0,0.0,0.0,0.0,0.0,0.0,0.0,0.0,0.0,0.0,0.0,0.0,0.0,0.0,0.0,0.0,0.0,0.0,0.0,0.0,0.0,0.0,0.0,0.0,0.0,0.0,0.0,0.0,0.0,0.0,0.0,0.0,0.0,0.0,0.0,0.0,0.0,0.0,0.0,0.0,0.0,0.0,0.0,0.0,0.0,0.0,0.0,0.0,0.0,0.0,0.0,0.0,0.0,0.0,0.0,0.0,0.0,0.0,0.0,0.0,0.0,0.0,0.0,0.0,0.0,0.0,0.0,0.0,0.0,0.0,0.0,0.0,0.0,0.0,0.0,0.0,0.0,0.0,0.0,0.0,0.0,0.0,0.0,0.0,0.0,0.0,-1.1714,-1.1886,-1.1997,-1.1991,-1.2176,-1.2305,-1.228,-1.228,-1.2378,0.0,0.0,0.0,0.0,0.0,0.0,0.0,0.0,0.0,0.0,0.0,0.0,0.0,0.0,0.0,0.0,0.0,0.0,0.0,0.0,0.0,0.0,0.0,0.0,0.0,0.0,0.0,0.0,0.0,0.0,0.0,0.0,0.0,0.0,0.0,0.0,0.0,0.0,0.0,0.0,0.0,0.0,0.0,0.0,0.0,0.0,0.0,0.0,0.0,0.0,0.0,0.0,0.0,0.0,0.0,0.0,0.0,0.0,0.0,0.0,0.0,0.0,0.0,0.0,0.0,0.0,0.0,0.0,0.0,0.0,0.0,0.0,0.0,0.0,0.0,0.0,0.0,0.0,0.0,0.0,0.0,0.0,0.0,0.0,0.0,0.0,0.0,0.0,0.0,0.0,0.0,0.0,0.0,0.0,0.0,0.0,0.0,0.0,0.0,0.0,0.0,0.0,0.0,-1.2043,-1.2096,-1.206,-1.1884,-1.2037,-1.2086,-1.1893,-1.1873,-1.1966,-1.2157,0.0,0.0,0.0,0.0,0.0,0.0,0.0,0.0,0.0,0.0,0.0,0.0,0.0,0.0,0.0,0.0,0.0,0.0,0.0,0.0,0.0,0.0,0.0,0.0,0.0,0.0,0.0,0.0,0.0,0.0,0.0,0.0,0.0,0.0,0.0,0.0,0.0,0.0,0.0,0.0,0.0,0.0,0.0,0.0,0.0,0.0,0.0,0.0,0.0,0.0,0.0,0.0,0.0,0.0,0.0,0.0,0.0,0.0,0.0,0.0,0.0,0.0,0.0,0.0,0.0,0.0,0.0,0.0,0.0,0.0,0.0,0.0,0.0,0.0,0.0,0.0,0.0,0.0,0.0,0.0,0.0,0.0,0.0,0.0,0.0,0.0,0.0,0.0,0.0,0.0,0.0,0.0,0.0,0.0,0.0,0.0,0.0,0.0,0.0,0.0,0.0,0.0,-1.2078,-1.214,-1.2138,-1.1977,-1.2135,-1.2182,-1.2024,-1.2031,-1.2069,-1.2183,0.0,0.0,0.0,0.0,0.0,0.0,0.0,0.0,0.0,0.0,0.0,0.0,0.0,0.0,0.0,0.0,0.0,0.0,0.0,0.0,0.0,0.0,0.0,0.0,0.0,0.0,0.0,0.0,0.0,0.0,0.0,0.0,0.0,0.0,0.0,0.0,0.0,0.0,0.0,0.0,0.0,0.0,0.0,0.0,0.0,0.0,0.0,0.0,0.0,0.0,0.0,0.0,0.0,0.0,0.0,0.0,0.0,0.0,0.0,0.0,0.0,0.0,0.0,0.0,0.0,0.0,0.0,0.0,0.0,0.0,0.0,0.0,0.0,0.0,0.0,0.0,0.0,0.0,0.0,0.0,0.0,0.0,0.0,0.0,0.0,0.0,0.0,0.0,0.0,0.0,0.0,0.0,0.0,0.0,0.0,0.0,0.0,0.0,0.0,0.0,0.0,0.0,-1.2009,-1.2133,-1.2248,-1.2203,-1.2377,-1.2471,-1.2439,-1.2439,-1.2439,-1.2459,0.0,0.0,0.0,0.0,0.0,0.0,0.0,0.0,0.0,0.0,0.0,0.0,0.0,0.0,0.0,0.0,0.0,0.0,0.0,0.0,0.0,0.0,0.0,0.0,0.0,0.0,0.0,0.0,0.0,0.0,0.0,0.0,0.0,0.0,0.0,0.0,0.0,0.0,0.0,0.0,0.0,0.0,0.0,0.0,0.0,0.0,0.0,0.0,0.0,0.0,0.0,0.0,0.0,0.0,0.0,0.0,0.0,0.0,0.0,0.0,-1.9356,0.0,0.0,0.0,0.0,0.0,0.0,0.0,0.0,0.0,0.0,0.0,0.0,0.0,0.0,0.0,0.0,0.0,0.0,0.0,0.0,0.0,0.0,0.0,0.0,0.0,0.0,0.0,0.0,0.0,0.0,0.0,0.0,0.0,0.0,0.0,0.0,0.0,0.0,0.0,0.0,0.0,-1.2542,-1.2557,-1.252,-1.2293,-1.231,-1.2272,-1.2058,-1.202,-1.21,-1.224,-1.2244,0.0,0.0,0.0,0.0,0.0,0.0,0.0,0.0,0.0,0.0,0.0,0.0,0.0,0.0,0.0,0.0,0.0,0.0,0.0,0.0,0.0,0.0,0.0,0.0,0.0,0.0,0.0,0.0,0.0,0.0,0.0,0.0,0.0,0.0,0.0,0.0,0.0,0.0,0.0,0.0,0.0,0.0,0.0,0.0,0.0,0.0,0.0,0.0,0.0,0.0,0.0,0.0,0.0,0.0,0.0,0.0,0.0,0.0,0.0,0.0,-1.9211,0.0,0.0,0.0,0.0,0.0,0.0,0.0,0.0,0.0,0.0,0.0,0.0,0.0,0.0,0.0,0.0,0.0,0.0,0.0,0.0,0.0,0.0,0.0,0.0,0.0,0.0,0.0,0.0,0.0,0.0,0.0,0.0,0.0,0.0,0.0,0.0,0.0,0.0,0.0,0.0,-1.2705,-1.2705,-1.265,-1.2518,-1.2478,-1.2445,-1.2312,-1.2274,-1.2342,-1.2418,-1.2404,0.0,0.0,0.0,0.0,0.0,0.0,0.0,0.0,0.0,0.0,0.0,0.0,0.0,0.0,0.0,0.0,0.0,0.0,0.0,0.0,0.0,0.0,0.0,0.0,0.0,0.0,0.0,0.0,0.0,0.0,0.0,0.0,0.0,0.0,0.0,0.0,0.0,0.0,0.0,0.0,0.0,0.0,0.0,0.0,0.0,0.0,0.0,0.0,0.0,0.0,0.0,0.0,0.0,-1.6976,-1.6906,-1.6288,-1.6929,-1.6678,-1.5775,-1.7435,-1.821,-1.8303,0.0,0.0,0.0,0.0,0.0,0.0,0.0,0.0,0.0,0.0,0.0,0.0,0.0,0.0,0.0,0.0,0.0,0.0,0.0,0.0,0.0,0.0,0.0,0.0,0.0,-1.2638,-1.2449,0.0,0.0,0.0,0.0,0.0,0.0,0.0,0.0,0.0,0.0,0.0,0.0,-1.2577,-1.2577,-1.2598,-1.2641,-1.2598,-1.2598,-1.2641,-1.2598,-1.2577,-1.2577,-1.2526,-1.2509,0.0,0.0,0.0,0.0,0.0,0.0,0.0,0.0,0.0,0.0,0.0,0.0,0.0,0.0,0.0,0.0,0.0,0.0,0.0,0.0,0.0,0.0,0.0,0.0,0.0,0.0,0.0,0.0,0.0,0.0,0.0,0.0,-1.6523,-1.6106,0.0,0.0,0.0,0.0,0.0,0.0,0.0,0.0,0.0,0.0,0.0,0.0,0.0,0.0,-1.6492,-1.6099,-1.5886,-1.5886,-1.5592,-1.5384,-1.5289,-1.5378,-1.5361,-1.5218,-1.548,0.0,-1.62,-1.6264,0.0,0.0,0.0,0.0,0.0,0.0,0.0,0.0,0.0,0.0,0.0,0.0,0.0,0.0,0.0,0.0,0.0,0.0,0.0,0.0,0.0,0.0,-1.2813,-1.2813,-1.2762,-1.267,0.0,-1.2405,-1.2444,-1.257,0.0,0.0,0.0,0.0,0.0,0.0,0.0,0.0,-1.2123,-1.208,-1.2188,-1.2406,-1.2225,-1.2182,-1.2427,-1.2225,-1.208,-1.208,-1.2073,-1.2077,-1.2077,-1.2077,0.0,0.0,0.0,0.0,0.0,0.0,0.0,0.0,0.0,0.0,0.0,0.0,0.0,0.0,0.0,0.0,0.0,0.0,0.0,0.0,0.0,0.0,0.0,0.0,0.0,0.0,0.0,0.0,0.0,-1.549,-1.5466,-1.4806,-1.5994,-1.6873,0.0,0.0,0.0,0.0,0.0,0.0,0.0,0.0,0.0,-1.508,-1.5032,-1.4841,-1.4418,-1.4208,-1.4118,-1.4118,-1.4334,-1.4214,-1.3811,-1.4238,-1.4196,-1.3811,-1.3811,-1.3932,-1.419,-1.5324,-1.6129,-1.6624,0.0,0.0,0.0,0.0,0.0,-1.407,-1.3709,0.0,0.0,0.0,0.0,0.0,0.0,0.0,0.0,0.0,0.0,0.0,0.0,0.0,0.0,-1.2813,-1.2813,-1.2611,-1.1892,-1.1743,-1.1856,0.0,-1.2371,-1.2389,-1.2389,0.0,0.0,0.0,0.0,0.0,-1.2022,-1.2,-1.2037,-1.216,-1.208,-1.2043,-1.216,-1.2059,-1.2,-1.2,-1.2,-1.2,-1.2,-1.2,-1.2059,0.0,0.0,0.0,0.0,0.0,0.0,0.0,0.0,0.0,0.0,0.0,0.0,0.0,0.0,0.0,0.0,0.0,0.0,0.0,0.0,0.0,0.0,0.0,0.0,0.0,0.0,0.0,0.0,-1.4118,-1.4142,-1.3667,-1.4687,-1.5473,0.0,0.0,0.0,0.0,0.0,0.0,-1.4813,-1.5116,-1.4782,-1.3643,-1.3619,-1.3359,-1.2813,-1.2843,-1.2875,-1.2875,-1.3492,-1.3502,-1.2997,-1.3477,-1.34,-1.2875,-1.2689,-1.2662,-1.2934,-1.4424,-1.5134,-1.53,-1.53,-1.5062,-1.4657,-1.4094,-1.3546,-1.305,-1.2861,-1.2813,-1.2813,-1.2813,0.0,-1.2764,-1.2638,0.0,0.0,0.0,0.0,-1.2395,-1.2395,0.0,-1.2346,-1.2122,-1.2068,-1.1819,-1.0803,-1.0578,-1.0765,0.0,-1.1755,-1.1991,-1.1991,0.0,0.0,0.0,0.0,-1.1658,-1.1522,-1.1739,-1.1917,-1.192,-1.1871,-1.185,-1.1914,-1.1871,-1.1828,-1.1828,-1.1828,-1.1828,-1.1828,-1.1828,-1.185,-1.1914,0.0,0.0,0.0,0.0,0.0,0.0,0.0,0.0,0.0,0.0,0.0,0.0,0.0,0.0,0.0,0.0,0.0,0.0,0.0,0.0,0.0,0.0,0.0,0.0,0.0,0.0,0.0,0.0,0.0,-1.2807,-1.3082,0.0,0.0,0.0,0.0,-1.5146,-1.5146,-1.4789,-1.4004,-1.3974,-1.3643,-1.288,-1.2861,-1.2837,-1.2813,-1.298,-1.3087,-1.3087,-1.338,-1.3494,-1.3463,-1.3245,-1.3112,-1.3046,-1.2342,-1.2322,-1.2813,-1.2905,-1.3359,-1.3998,-1.3998,-1.443,-1.498,-1.419,-1.3884,-1.3739,-1.305,-1.2813,-1.2813,-1.2813,-1.2813,-1.2686,-1.22,-1.2054,0.0,0.0,-1.1267,-1.1267,-1.1267,-1.1267,-1.1091,-1.0321,-1.0145,-0.9924,-0.9103,-0.8926,-0.9074,0.0,-1.036,-1.0872,-1.0872,0.0,-1.0828,-1.062,-1.0749,-1.0708,-1.0249,-1.1088,-1.1728,-1.1721,-1.1483,-1.1435,-1.1699,-1.1483,-1.1332,-1.1332,-1.1332,-1.1332,-1.1332,-1.1332,-1.1462,-1.1699,-1.1462,0.0,0.0,0.0,0.0,0.0,0.0,0.0,0.0,0.0,0.0,0.0,0.0,0.0,0.0,0.0,0.0,0.0,0.0,0.0,0.0,0.0,0.0,0.0,0.0,0.0,0.0,0.0,0.0,-1.1756,-1.2252,0.0,-1.2853,-1.3138,-1.3307,-1.3307,-1.2853,-1.2476,-1.219,-1.2481,-1.2628,-1.248,-1.2441,-1.2488,-1.2657,-1.2354,-1.221,-1.221,-1.2294,-1.2334,-1.2329,-1.225,-1.221,-1.218,-1.1928,-1.192,-1.2092,-1.2009,-1.226,-1.2651,-1.2311,-1.233,-1.2568,-1.2257,-1.216,-1.2116,-1.1853,-1.1761,-1.1761,-1.1761,-1.1761,-1.1736,-1.1536,-1.1487,-1.1438,-1.1243,-1.1194,-1.1194,-1.1194,-1.0821,-1.0371,-1.0071,-0.96,-0.8954,-0.7989,-0.7766,-0.7617,-0.7126,-0.8364,-0.9571,-0.9742,-0.9616,-0.9546,-0.9641,-0.9609,-0.9507,-0.9351,-1.0264,-1.0934,-1.0923,-1.1458,-1.1846,-1.1958,-1.1868,-1.1818,-1.1818,-1.1818,-1.1661,-1.1301,-1.1301,-1.1188,-1.094,-1.0827,-1.1008,0.0,0.0,0.0,0.0,0.0,0.0,0.0,0.0,0.0,0.0,0.0,0.0,0.0,0.0,0.0,0.0,0.0,0.0,0.0,0.0,0.0,0.0,0.0,0.0,0.0,0.0,-1.0998,-1.1174,-1.1477,-1.1736,-1.1912,-1.1931,-1.1931,-1.1931,-1.155,-1.1302,-1.1302,-1.1691,-1.1969,-1.2081,-1.2041,-1.2114,-1.2277,-1.1983,-1.1834,-1.1838,-1.1909,-1.1942,-1.1942,-1.1871,-1.1834,-1.1834,-1.1556,-1.1528,-1.1674,-1.1236,-1.1281,-1.1591,-1.13,-1.1194,-1.1194,-1.1194,-1.1194,-1.1194,-1.1194,-1.1194,-1.1194,-1.1194,-1.1194,-1.1169,-1.0973,-1.0924,-1.0826,-1.0379,-1.0256,-1.0183,-0.9908,-0.946,-0.8987,-0.8715,-0.8241,-0.7596,-0.66,-0.6401,-0.6179,-0.5459,-0.6924,-0.8312,-0.8506,-0.8371,-0.8351,-0.8622,-0.8481,-0.8345,-0.8364,-0.92,-0.9769,-0.9704,-1.032,-1.0856,-1.1137,-1.1321,-1.1459,-1.1561,-1.1722,-1.1584,-1.105,-1.1032,-1.0865,-1.0501,-1.0496,-1.0719,-1.114,0.0,0.0,0.0,0.0,0.0,0.0,0.0,0.0,0.0,0.0,0.0,0.0,0.0,0.0,0.0,0.0,0.0,0.0,0.0,0.0,0.0,0.0,0.0,-1.0998,-1.0703,-1.056,-1.1096,-1.0683,-1.0585,-1.1105,-1.1154,-1.1159,-1.1163,-1.1356,-1.1453,-1.1453,-1.1606,-1.1683,-1.1693,-1.1693,-1.1697,-1.1702,-1.1946,-1.2071,-1.205,-1.2256,-1.2355,-1.235,-1.2143,-1.2071,-1.2009,-1.1238,-1.1183,-1.1598,-1.0611,-1.0477,-1.0906,-1.1099,-1.1163,-1.1163,-1.1159,-1.1149,-1.1145,-1.1145,-1.1145,-1.1145,-1.112,-1.112,-1.1022,-1.0462,-1.029,-1.0039,-0.873,-0.8357,-0.8184,-0.7413,-0.7188,-0.6964,-0.6192,-0.5992,-0.5739,-0.496,-0.4809,-0.4809,-0.4809,-0.6054,-0.7123,-0.7148,-0.7148,-0.7223,-0.7506,-0.7325,0.0,-0.724,-0.7887,-0.8282,-0.8086,-0.8092,-0.8446,-0.9224,-0.9778,-1.02,-1.0468,-1.1005,-1.1051,-1.0519,-1.0491,-1.0496,-1.0473,-1.0496,-1.0594,-1.0781,0.0,0.0,0.0,0.0,0.0,0.0,0.0,0.0,0.0,0.0,0.0,0.0,0.0,0.0,0.0,0.0,0.0,0.0,0.0,0.0,0.0,0.0,-0.9698,-0.9994,-0.992,-0.9871,-1.0019,-0.992,-0.9921,-1.0226,-1.0263,-1.0323,-1.0463,-1.0523,-1.0552,-1.0552,-1.0906,-1.1202,-1.1397,-1.1353,-1.1429,-1.1621,-1.1269,-1.1077,-1.1077,-1.1133,-1.1185,-1.1181,-1.1099,-1.1077,-1.1073,-1.0864,-1.0839,-1.0939,-1.0515,-1.0412,-1.052,-1.0492,-1.0472,-1.0459,-1.0314,-1.0183,-1.0043,-1.0043,-1.0043,-0.9945,-0.9369,-0.9171,-0.9023,-0.8304,-0.8081,-0.8006,-0.7633,-0.7537,-0.7484,-0.7263,-0.6764,-0.6264,-0.6042,-0.5564,-0.506,-0.486,-0.4809,-0.4809,-0.4809,-0.5158,-0.5534,-0.5712,-0.5762,-0.5837,-0.6109,-0.6084,0.0,-0.6065,-0.6918,-0.7519,-0.7456,-0.8133,-0.8696,-0.8915,-0.9595,-1.0063,-1.014,-1.0821,-1.0999,-1.0444,-1.042,-1.025,-0.9867,-1.0226,-1.0446,0.0,0.0,0.0,0.0,0.0,0.0,0.0,0.0,0.0,0.0,0.0,0.0,0.0,0.0,0.0,0.0,0.0,0.0,0.0,0.0,0.0,0.0,-0.8675,-0.87,-0.8715,-0.9301,-0.9584,-0.9212,-0.9223,-0.9173,-0.8925,-0.8885,-0.895,-0.9071,-0.9143,-0.9183,-0.9183,-0.9507,-0.977,-0.9919,-0.9873,-0.9922,-1.01,-0.9746,-0.9581,-0.9581,-0.9581,-0.9581,-0.9581,-0.9581,-0.9581,0.0,-0.9581,-0.9581,-0.9546,-0.9456,-0.9392,0.0,0.0,0.0,0.0,0.0,-0.8827,-0.8726,-0.8726,-0.8708,-0.86,-0.8123,-0.7932,-0.7811,-0.7338,-0.7213,-0.7138,-0.6789,-0.6689,-0.6614,-0.6287,-0.5837,-0.5489,-0.5489,-0.5135,-0.4809,-0.4809,-0.4809,-0.4809,-0.4809,0.0,0.0,-0.5012,-0.5037,-0.5112,-0.5388,-0.5336,-0.5311,0.0,-0.5882,-0.6204,-0.6204,-0.6747,-0.727,-0.7596,-0.8266,0.0,0.0,0.0,-0.9612,-0.9072,-0.9048,0.0,0.0,0.0,-0.9048,-0.9072,0.0,0.0,0.0,-1.0138,-1.0462,0.0,0.0,0.0,0.0,0.0,0.0,0.0,0.0,0.0,0.0,0.0,0.0,0.0,0.0,0.0,0.0,-0.7401,-0.744,-0.7483,-0.8758,-0.9375,-0.8571,-0.8579,-0.8348,-0.7601,-0.7522,-0.7528,-0.7543,-0.7711,-0.7834,-0.7834,0.0,0.0,0.0,0.0,-0.8002,-0.8002,-0.8002,-0.8002,-0.8002,-0.8002,-0.8002,-0.8002,-0.8002,-0.8002,-0.8002,-0.8002,-0.8002,-0.8002,-0.8002,-0.8002,-0.8115,-0.9431,-0.944,-0.8604,-0.7812,-0.7513,0.0,0.0,0.0,0.0,-0.7295,-0.7198,-0.7077,-0.699,-0.6959,-0.6806,-0.607,-0.5867,-0.5689,-0.4985,-0.4809,-0.4809,-0.4809,-0.4809,-0.4809,-0.4809,-0.4809,-0.4809,-0.4809,-0.4809,-0.4809,-0.4809,-0.4809,-0.4885,-0.5115,-0.4962,0.0,-0.5115,-0.4937,-0.4809,-0.4809,0.0,0.0,-0.5817,-0.6387,-0.6808,-0.7064,-0.7605,-0.7705,-0.7213,-0.7213,-0.7213,-0.7213,-0.7213,-0.7213,-0.7213,-0.7213,-0.7213,-0.7238,-0.9147,-0.9793,0.0,0.0,0.0,0.0,0.0,0.0,0.0,0.0,0.0,0.0,0.0,0.0,0.0,0.0,0.0,-0.749,-0.7488,-0.7497,-0.7498,-0.7918,-0.809,-0.7765,-0.7748,-0.7754,-0.7734,-0.7747,-0.7789,-0.7889,-0.795,-0.7965,-0.7965,-0.799,0.0,-0.8002,-0.8002,-0.8002,-0.8002,-0.8002,-0.8002,-0.8002,0.0,0.0,-0.8002,-0.8002,-0.8002,-0.8002,-0.8002,-0.8002,-0.8002,-0.8002,-0.8002,-0.8023,-0.8304,-0.8242,-0.7958,-0.78,-0.7647,-0.7501,-0.7501,-0.7483,-0.7383,-0.6729,-0.6506,-0.6341,-0.5634,-0.5432,0.0,-0.5107,-0.5035,-0.4985,-0.4834,-0.4809,-0.4809,-0.4809,-0.4809,-0.4809,-0.4809,-0.4809,-0.4809,-0.4809,-0.4809,-0.4809,-0.4809,-0.4809,-0.4809,-0.486,-0.4834,-0.4809,-0.486,-0.4834,-0.4809,-0.4809,-0.4809,-0.486,-0.501,-0.5714,-0.6164,-0.6242,-0.6939,-0.731,-0.7213,-0.7213,-0.7213,-0.7213,-0.7213,-0.7213,-0.7213,-0.7213,-0.7213,-0.7213,-0.7633,-0.7758,0.0,0.0,0.0,0.0,0.0,0.0,0.0,0.0,0.0,0.0,0.0,-0.6833,0.0,0.0,-0.5841,-0.5549,-0.5487,-0.5502,-0.5552,-0.5629,-0.6005,-0.6843,-0.7045,-0.6972,-0.6623,-0.6601,-0.6624,-0.6705,-0.6707,-0.6707,-0.6707,-0.6424,-0.6397,-0.668,-0.6397,-0.6397,-0.6707,-0.6707,-0.6707,-0.6707,-0.6707,-0.6707,-0.6707,-0.6707,-0.6538,-0.6255,-0.6255,-0.6089,-0.581,-0.581,-0.581,-0.581,-0.581,-0.6393,-0.7204,-0.6766,-0.6538,-0.646,-0.646,-0.6396,-0.6294,-0.5868,-0.5729,-0.5624,-0.5184,-0.5041,-0.503,-0.4958,-0.4733,-0.4497,-0.4497,-0.4264,-0.4008,-0.4008,-0.4008,-0.4008,-0.4008,-0.4008,-0.4008,-0.4008,-0.4008,-0.4008,-0.4008,-0.4008,-0.4183,-0.4709,-0.4809,-0.4809,-0.4809,-0.4809,-0.4809,-0.4809,-0.4809,-0.4809,-0.4809,-0.516,-0.5288,-0.5012,-0.5386,-0.5486,-0.5211,-0.5211,-0.5211,-0.5211,-0.5211,-0.5211,-0.5211,-0.5211,-0.5211,-0.5211,-0.5211,-0.5784,0.0,0.0,0.0,0.0,0.0,0.0,0.0,0.0,-0.6622,-0.5665,-0.5475,-0.522,-0.4441,-0.4296,-0.4134,-0.3612,-0.3514,-0.3531,-0.358,-0.3587,-0.4152,-0.5681,-0.5992,-0.5822,-0.5128,-0.5044,-0.5044,-0.5044,-0.5044,-0.5044,-0.5044,-0.4594,-0.4538,-0.5044,-0.4566,-0.4566,-0.5044,-0.5044,-0.5044,-0.5044,-0.5044,-0.5044,-0.5044,-0.5044,-0.4791,-0.4313,-0.4313,-0.4061,-0.3587,-0.3587,-0.3587,-0.3587,-0.3587,-0.462,-0.6017,-0.5322,-0.5044,-0.5044,-0.5044,-0.4971,-0.4886,-0.4886,-0.4841,-0.4807,-0.4792,-0.4786,-0.4784,-0.4767,-0.4399,-0.4037,-0.4037,-0.3634,-0.3211,-0.3224,-0.3221,-0.3219,-0.3208,-0.3205,-0.3205,-0.3205,-0.3205,-0.3205,-0.3205,-0.3205,-0.3481,-0.4359,-0.4483,-0.4483,-0.4483,-0.4483,-0.4483,-0.4483,-0.4483,-0.4483,-0.4483,-0.4483,-0.4309,-0.3883,-0.3858,-0.3657,-0.323,-0.3205,-0.3205,-0.3205,-0.3205,-0.3205,-0.3205,-0.3205,-0.3205,-0.3205,-0.3115,-0.4043,-0.8899,-0.8173,-0.7422,-0.7397,-0.6707,-0.6018,0.0,0.0,-0.5645,-0.4812,-0.4627,-0.4417,-0.3744,-0.3621,-0.3615,-0.3595,-0.3576,-0.3579,-0.3587,-0.3587,-0.3668,-0.3885,-0.3946,-0.3895,-0.3811,-0.3811,-0.3811,-0.3811,-0.3811,-0.3811,-0.3811,-0.3727,-0.3727,-0.3811,-0.3727,-0.3727,-0.3811,-0.3811,-0.3811,-0.3811,-0.3811,-0.3811,-0.3811,-0.3811,-0.3755,-0.3699,-0.3699,-0.3671,-0.3587,-0.3587,-0.3587,-0.3587,-0.3587,-0.3755,-0.3923,-0.3839,-0.3811,-0.3811,-0.3811,-0.3779,-0.3773,-0.3773,-0.3767,-0.3751,-0.3694,-0.3677,-0.3664,-0.3528,-0.3454,-0.3395,-0.3395,-0.3338,-0.3293,-0.3292,-0.3279,-0.3266,-0.3216,-0.3205,-0.3205,-0.3205,-0.3205,-0.3205,-0.3205,-0.3205,-0.323,-0.3356,-0.3381,-0.3381,-0.3381,-0.3381,-0.3381,-0.3381,-0.3381,-0.3381,-0.3381,-0.3381,-0.3356,-0.3281,-0.3281,-0.3256,-0.3205,-0.3205,-0.3205,-0.3205,-0.3205,-0.3205,-0.3205,-0.3205,-0.3205,-0.3181,-0.2771,-0.2921,-0.6924,-0.6376,-0.6017,-0.5903,-0.5544,-0.5076,-0.4454,-0.4306,-0.405,-0.3124,-0.2942,-0.285,-0.2571,-0.2524,-0.253,0.0,-0.2551,-0.2551,-0.2551,-0.2551,-0.2551,-0.2551,-0.2551,-0.2831,-0.3531,-0.3587,-0.3587,-0.3587,-0.3587,-0.3587,-0.3587,-0.3281,-0.3225,-0.3587,-0.3253,-0.3253,-0.3587,-0.3587,-0.3587,-0.3587,-0.3587,-0.3587,-0.3587,-0.3587,-0.3419,-0.3057,-0.2691,-0.2551,-0.2551,-0.2551,-0.2551,-0.2551,-0.2551,-0.2551,-0.2635,-0.3335,-0.3587,-0.3587,-0.3587,-0.3587,-0.3587,-0.3587,-0.3587,-0.3582,-0.3557,-0.3549,-0.3544,-0.3492,-0.3187,-0.2892,-0.2892,-0.263,-0.2365,-0.2373,-0.2368,-0.2364,-0.2322,-0.2326,-0.2335,-0.2335,-0.229,-0.2272,-0.2272,-0.2272,-0.2272,-0.2272,-0.2802,-0.3205,-0.3205,-0.3205,-0.3205,-0.3205,-0.3205,-0.3205,-0.3205,-0.3205,-0.3079,-0.275,-0.2725,-0.2599,-0.2272,-0.2272,-0.2272,-0.2272,-0.2272,-0.2272,-0.2272,-0.2298,-0.2335,-0.2311,-0.2116,-0.2151,-0.5367,-0.4909,-0.4637,-0.4492,-0.4262,-0.3845,-0.3073,-0.2879,-0.2683,-0.1949,-0.179,-0.1796,-0.1791,-0.1795,-0.1795,-0.1795,-0.1795,-0.1795,-0.1795,-0.1795,-0.1795,-0.1795,-0.1795,-0.2131,-0.3027,-0.3111,-0.3111,-0.3111,-0.3111,-0.3111,-0.3111,-0.2692,-0.2664,-0.3083,-0.2692,-0.2664,-0.3111,-0.3111,-0.3111,-0.3111,-0.3111,-0.3111,-0.3111,-0.3111,-0.2859,-0.2441,-0.1992,-0.1795,-0.1795,-0.1795,-0.1795,-0.1795,-0.1795,-0.1795,-0.1907,-0.2775,-0.3111,-0.3111,-0.3111,-0.3111,-0.3111,-0.3111,-0.3111,-0.3111,-0.3111,-0.3111,-0.3111,-0.3111,-0.2751,-0.2368,-0.2368,-0.2046,-0.1727,-0.1719,-0.1717,-0.1661,-0.1386,-0.1345,-0.1255,-0.0994,-0.0905,-0.0896,-0.0916,-0.0916,-0.0914,-0.0935,-0.1792,-0.2498,-0.2726,-0.2751,-0.2751,-0.2751,-0.2751,-0.2751,-0.2751,-0.2751,-0.26,-0.2196,-0.217,-0.1994,-0.1617,-0.1592,-0.1592,-0.1592,-0.1625,-0.1629,-0.1629,-0.1685,-0.17,-0.1701,-0.173,-0.1717,-0.4931,-0.4161,-0.3346,-0.3349,-0.2613,-0.1883,-0.1857,-0.1854,-0.1849,-0.1793,-0.1793,-0.1794,-0.1795,-0.1795,-0.1795,-0.1795,-0.1795,-0.1795,-0.1795,-0.1795,-0.1795,-0.1795,-0.1795,-0.1823,0.0,-0.1851,-0.1851,-0.1851,-0.1851,-0.1851,-0.1851,-0.1823,-0.1823,-0.1851,-0.1823,-0.1823,-0.1851,-0.1851,-0.1851,-0.1851,-0.1851,-0.1851,-0.1851,-0.1851,-0.1851,-0.1823,-0.1795,-0.1795,-0.1795,-0.1795,-0.1795,-0.1795,-0.1795,-0.1795,-0.1795,-0.1851,-0.1851,-0.1851,-0.1851,-0.1851,-0.1851,-0.1851,-0.1851,-0.1851,-0.1851,-0.1851,-0.1851,-0.1851,-0.185,-0.1821,-0.1821,-0.1821,-0.1785,-0.181,-0.1803,-0.155,-0.0641,-0.0452,-0.016,0.0745,0.0931,0.0899,0.0831,0.0828,0.0798,0.0733,0.0025,-0.0758,-0.1541,-0.1642,-0.1642,-0.1642,-0.1642,-0.1642,-0.1642,-0.1642,-0.1642,-0.1617,-0.1617,-0.1617,-0.1592,-0.1592,-0.1592,-0.1592,-0.1672,-0.1687,-0.1687,-0.1689,-0.1703,-0.1703,-0.1761,-0.1803,-0.2785,-0.2516,-0.2243,-0.2295,-0.2042,-0.1809,-0.1803,-0.1788,-0.1795,-0.1795,-0.1811,-0.1796,-0.1796,-0.1796,-0.1796,-0.1796,-0.1796,-0.1796,-0.1796,-0.1842,-0.1855,-0.1855,-0.1855,0.0,0.0,0.0,0.0,-0.1795,-0.1234,-0.0869,-0.0869,-0.0869,-0.0869,-0.0869,-0.1486,-0.1795,-0.1795,-0.1795,-0.1795,-0.1795,-0.1795,-0.1795,-0.1795,-0.1795,-0.1795,-0.1795,-0.1795,-0.1795,-0.1795,-0.1795,-0.1795,-0.1795,-0.1795,-0.1795,-0.1795,-0.1795,-0.1795,-0.1795,-0.1795,-0.1795,-0.1795,-0.1795,-0.1795,-0.1795,-0.1795,-0.1795,-0.1795,-0.1795,-0.1795,-0.1795,-0.1795,-0.1795,-0.1793,-0.181,-0.1808,-0.1721,-0.1407,-0.1338,-0.1056,-0.0108,-0.0403,-0.0611,-0.0053,0.0026,0.0237,0.0837,0.0179,-0.0682,-0.1491,-0.1592,-0.1592,-0.1592,-0.1592,-0.1592,-0.1592,-0.1592,-0.1592,-0.1592,-0.1592,-0.1626,-0.1672,-0.1673,-0.1656,-0.1675,-0.1685,-0.169,-0.169,-0.1747,-0.1761,-0.1762,-0.1793,-0.1808,-0.1742,-0.1728,-0.1741,-0.1788,-0.1793,-0.1799,-0.1791,-0.1795,-0.1795,-0.1795,-0.1791,-0.1812,-0.1812,-0.1812,-0.1815,-0.1826,-0.1818,-0.1815,-0.1826,-0.1874,-0.1886,-0.1886,-0.1886,-0.1886,0.0,0.0,0.0,-0.1313,-0.0742,-0.0398,-0.0396,-0.0707,-0.0903,-0.0898,-0.1149,-0.129,-0.129,-0.0981,-0.0841,-0.0841,-0.0841,-0.0841,-0.0841,-0.0841,-0.0816,-0.0792,-0.0792,-0.0794,-0.077,-0.077,-0.077,-0.0799,-0.117,-0.1313,-0.1342,-0.1713,-0.1827,-0.1824,-0.1803,-0.1795,-0.1795,-0.1795,-0.1795,-0.1795,-0.1795,-0.1795,-0.1795,-0.1795,-0.1795,-0.1795,-0.1795,-0.1542,-0.129,-0.129,-0.1065,-0.0757,-0.0448,-0.0361,-0.0083,0.0854,0.0574,0.0352,0.0914,0.0962,0.1065,0.1385,0.0653,-0.0103,-0.0618,-0.0669,-0.0669,-0.0669,-0.0978,-0.1159,-0.1159,-0.1467,-0.1648,-0.1648,-0.1648,-0.1656,-0.1703,-0.1704,-0.1712,-0.1704,-0.1715,-0.1747,-0.1747,-0.1778,-0.1793,-0.1794,-0.1814,-0.1795,-0.1806,-0.1801,-0.1795,-0.1795,-0.1767,-0.1739,-0.1739,-0.1739,-0.1739,-0.1739,-0.1762,-0.1812,0.0,0.0,-0.1822,-0.1883,-0.1834,-0.1795,-0.1825,-0.183,-0.1802,0.0,0.0,0.0,0.0,0.0,0.0,-0.0266,0.0,-0.0263,-0.0259,-0.1094,-0.1572,-0.1575,-0.0759,-0.0309,-0.0309,0.0506,0.09,0.09,0.09,0.09,0.09,0.09,0.0935,0.1005,0.1005,0.1043,0.1088,0.1088,0.1088,0.1,0.0059,-0.0324,-0.0442,-0.1384,-0.1738,-0.1731,-0.1677,-0.1715,-0.18,-0.18,-0.1798,-0.1797,-0.1797,-0.1768,-0.1739,-0.1739,-0.1683,-0.1655,-0.1655,-0.1009,-0.0336,-0.0336,0.0308,0.1121,0.196,0.2128,0.2408,0.3334,0.3531,0.3513,0.3456,0.3376,0.31,0.2377,0.1575,0.1014,0.0932,0.0878,0.0878,0.0932,0.008,-0.0453,-0.0399,-0.1198,-0.1704,-0.1704,-0.1704,-0.1705,-0.1706,-0.1707,-0.1707,-0.1709,-0.1765,-0.1807,-0.1807,-0.1809,-0.1795,-0.1795,-0.1795,-0.1795,-0.1805,-0.1789,-0.1795,-0.1795,-0.1262,-0.0757,-0.0757,-0.0757,-0.0757,-0.0757,-0.1307,-0.1818,0.0,0.0,0.0,-0.1881,-0.1894,0.0,-0.0896,-0.0817,0.0,0.0183,0.0,0.0274,0.0274,0.1158,0.0,0.0,0.17,0.1674,0.1696,0.1462,0.1343,0.1337,0.093,0.0726,0.0726,0.093,0.1046,0.1046,0.1046,0.1046,0.1046,0.1046,0.1048,0.1081,0.1081,0.1083,0.1088,0.1088,0.1088,0.1088,0.0824,0.0706,0.0676,0.0441,0.0324,0.0323,0.035,-0.061,-0.1863,-0.1863,-0.1847,-0.18,-0.18,-0.1303,-0.0757,-0.0757,-0.028,0.0224,0.0224,0.0393,0.0561,0.0561,0.0729,0.0953,0.1177,0.1233,0.1485,0.2381,0.2548,0.2545,0.2534,0.2523,0.2682,0.3182,0.3044,0.2192,0.0214,-0.0612,-0.0772,-0.0106,-0.0825,-0.1118,-0.0453,-0.1198,-0.1704,-0.1704,-0.1704,-0.1714,-0.1764,-0.1765,-0.1776,-0.1771,-0.178,-0.1811,-0.1811,-0.1791,-0.1795,-0.1795,-0.1795,-0.1795,-0.1791,-0.1486,-0.1121,-0.0896,-0.014,0.056,0.056,0.0252,-0.0112,-0.0364,-0.1137,-0.1615,-0.0988,-0.107,0.0,0.0,0.0,0.0,0.0515,0.0613,0.0893,0.0,0.1847,0.0,0.1878,0.2772,0.3326,0.0,0.279,0.2456,0.2439,0.2021,0.1807,0.1824,0.1735,0.1882,0.2294,0.2587,0.2705,0.2675,0.2968,0.3115,0.3115,0.3115,0.3126,0.3177,0.0,0.3189,0.3208,0.3208,0.3208,0.3148,0.2729,0.2549,0.2489,0.2039,0.1919,0.1949,0.1949,0.12,0.015,-0.0414,-0.0556,-0.0523,-0.0523,-0.0173,0.0258,0.0258,0.0598,0.0935,0.0935,0.1211,0.1457,0.1457,0.1793,0.2074,0.2074,0.2074,0.2241,0.2717,0.2801,0.2912,0.3164,0.322,0.3471,0.4285,0.4033,0.3226,0.1718,0.1007,0.0816,0.1307,0.0544,0.0054,0.0163,-0.0626,-0.1308,-0.1716,-0.1744,-0.1752,-0.1796,-0.1797,-0.1805,-0.1795,-0.1795,-0.1795,-0.1795,-0.1795,-0.1795,-0.1795,-0.1795,-0.1795,-0.157,-0.0925,-0.014,0.0532,0.1399,0.2099,0.2099,0.1399,0.0588,0.0,-0.0823,-0.1089,0.0057,0.0029,0.0232,0.1585,0.0,0.1426,0.2206,0.2308,0.2553,0.3227,0.335,0.3381,0.3381,0.4122,0.4585,0.4585,0.3573,0.2942,0.2962,0.2113,0.168,0.1746,0.2455,0.3257,0.4058,0.4649,0.4913,0.4854,0.5444,0.5739,0.5739,0.5739,0.5752,0.5828,0.0,0.0,0.5906,0.5906,0.5906,0.5814,0.4954,0.4585,0.4492,0.3628,0.332,0.3381,0.3381,0.3381,0.3153,0.179,0.1359,0.1356,0.1356,0.1443,0.1528,0.1528,0.1571,0.1612,0.1612,0.2136,0.2676,0.2641,0.326,0.3849,0.3841,0.3838,0.3838,0.3838,0.3838,0.4005,0.4536,0.462,0.4786,0.5316,0.47,0.4198,0.4198,0.378,0.353,0.3643,0.2828,0.2016,0.1373,0.0504,-0.0336,-0.1149,-0.1205,-0.1205,-0.1205,-0.1205,-0.1289,-0.143,-0.143,-0.1514,-0.1683,-0.1683,-0.1683,-0.1683,-0.1683,-0.1683,-0.0308,0.014,0.0588,0.1957,0.2965,0.361,0.361,0.3104,0.0,0.1595,0.0899,0.0283,-0.0258,0.0625,0.1513,0.1821,0.2224,0.2818,0.3829,0.397,0.4338,0.0,0.5383,0.5383,0.5383,0.5536,0.0,0.0,0.0,0.5318,0.5303,0.5149,0.505,0.5066,0.5219,0.5373,0.5527,0.5648,0.5709,0.5679,0.5801,0.5861,0.5861,0.5861,0.587,0.5884,0.0,0.0,0.5906,0.5906,0.5906,0.5876,0.5722,0.563,0.563,0.5444,0.5383,0.5383,0.5383,0.5383,0.51,0.3208,0.2631,0.2663,0.2663,0.3203,0.3816,0.3816,0.4339,0.4887,0.4887,0.4995,0.5083,0.5015,0.5142,0.5236,0.5108,0.5093,0.5093,0.5093,0.5093,0.512,0.5232,0.5232,0.5288,0.5371,0.526,0.5148,0.5148,0.3804,0.3132,0.3863,0.3132,0.2853,0.3414,0.2657,0.2097,0.1929,0.1929,0.1929,0.1929,0.1929,0.1454,0.0448,0.042,-0.0056,-0.1065,-0.1065,-0.1065,-0.1065,-0.1065,-0.1065,0.014,0.1091,0.2125,0.3494,0.4529,0.5202,0.5202,0.0,0.0,0.3106,0.2351,0.1936,0.2262,0.2644,0.3232,0.4159,0.4277,0.46,0.5573,0.569,0.5996,0.6858,0.695,0.695,0.0,0.695,0.0,0.0,0.0,0.6644,0.5937,0.5906,0.5906,0.5906,0.5906,0.5906,0.5906,0.6245,0.6429,0.6429,0.6766,0.695,0.695,0.695,0.695,0.695,0.695,0.0,0.695,0.695,0.695,0.695,0.695,0.695,0.695,0.695,0.695,0.695,0.695,0.695,0.6794,0.5806,0.5045,0.4499,0.4499,0.4811,0.5174,0.5174,0.5449,0.5746,0.5746,0.5739,0.5691,0.5648,0.5638,0.5625,0.558,0.5532,0.5499,0.5499,0.546,0.5511,0.5817,0.5873,0.5984,0.629,0.6346,0.6346,0.6346,0.5588,0.4973,0.4756,0.4362,0.4083,0.4001,0.3608,0.3188,0.2739,0.2711,0.2711,0.2711,0.2711,0.2432,0.1846,0.1846,0.1538,0.0979,0.0979,0.0979,0.0979,0.0979,0.0979,0.0923,0.2293,0.3802,0.5059,0.5954,0.6485,0.6485,0.5815,0.5005,0.4336,0.3691,0.3578,0.4529,0.4587,0.4942,0.0,0.6215,0.6259,0.6983,0.709,0.7319,0.0,0.7903,0.0,0.7903,0.0,0.0,0.0,0.0,0.0,0.6396,0.6337,0.6337,0.6337,0.6337,0.6337,0.6337,0.6858,0.7103,0.7133,0.7655,0.7903,0.7903,0.7903,0.7903,0.7903,0.7903,0.0,0.0,0.7903,0.7903,0.7903,0.7903,0.7903,0.7903,0.7903,0.7903,0.7903,0.7903,0.7903,0.7903,0.7903,0.7194,0.6337,0.6337,0.6337,0.6337,0.6337,0.6285,0.626,0.626,0.6203,0.6169,0.6122,0.61,0.6084,0.6084,0.6051,0.5998,0.5998,0.5934,0.5994,0.6472,0.6556,0.6717,0.7139,0.722,0.7212,0.7213,0.721,0.6849,0.5901,0.5789,0.5481,0.4754,0.4698,0.439,0.3716,0.366,0.366,0.366,0.366,0.3548,0.3271,0.3271,0.3159,0.288,0.288,0.2913,0.2923,0.2923,0.2957,0.305,0.4195,0.5087,0.6624,0.7041,0.7127,0.7127,0.0,0.5926,0.5005,0.5005,0.4923,0.4224,0.5174,0.0,0.0,0.0,0.7389,0.7608,0.7746,0.7841,0.7903,0.0,0.0,0.7903,0.0,0.0,0.0,0.0,0.0,0.7717,0.7717,0.7717,0.7717,0.7717,0.7717,0.7717,0.7778,0.7808,0.7808,0.7869,0.7903,0.7903,0.7903,0.7903,0.7903,0.0,0.0,0.0,0.7903,0.7903,0.7903,0.7903,0.7903,0.7903,0.7903,0.7903,0.7903,0.7903,0.7903,0.7903,0.7903,0.7811,0.7717,0.7717,0.7717,0.7717,0.7717,0.7711,0.7703,0.7703,0.7695,0.7661,0.7559,0.742,0.7343,0.7343,0.7336,0.7328,0.7328,0.7317,0.7312,0.7367,0.7399,0.7361,0.7308,0.7289,0.7279,0.7196,0.721,0.7154,0.7043,0.7043,0.6988,0.6904,0.6902,0.6874,0.6791,0.6791,0.6791,0.6791,0.6791,0.626,0.5174,0.5146,0.4615,0.3525,0.3525,0.3581,0.3692,0.3692,0.372,0.3971,0.5117,0.5982,0.6957,0.721,0.721,0.721,0.0,0.6735,0.6371,0.6402,0.6374,0.5982,0.6429,0.6857,0.6917,0.7264,0.0,0.7684,0.7829,0.7903,0.7903,0.7903,0.0,0.0,0.0,0.0,0.0,0.0,0.0,0.7903,0.7903,0.7903,0.7903,0.7903,0.7903,0.7903,0.7903,0.7903,0.7903,0.7903,0.7903,0.7903,0.7903,0.7903,0.7903,0.0,0.0,0.0,0.7903,0.7903,0.7903,0.7903,0.7903,0.7903,0.7903,0.7903,0.7903,0.7903,0.7903,0.7903,0.7903,0.7903,0.7903,0.7903,0.7903,0.7903,0.7903,0.7903,0.7903,0.7903,0.7903,0.7889,0.7845,0.7766,0.7731,0.7731,0.7676,0.7627,0.7627,0.757,0.7489,0.7489,0.7489,0.7473,0.7424,0.7416,0.74,0.738,0.7372,0.7372,0.7372,0.7269,0.721,0.721,0.721,0.721,0.721,0.721,0.721,0.721,0.7253,0.7038,0.6555,0.6622,0.6424,0.5932,0.5932,0.5983,0.602,0.602,0.604,0.4364,0.5648,0.668,0.7099,0.721,0.721,0.721,0.0,0.721,0.721,0.721,0.721,0.721,0.721,0.7209,0.7269,0.7357,0.7479,0.763,0.7747,0.7864,0.7897,0.0,0.0,0.0,0.0,0.0,0.0,0.0,0.0,0.0,0.7903,0.7903,0.7903,0.7903,0.7903,0.7903,0.7903,0.7903,0.7903,0.7903,0.7903,0.7903,0.7903,0.7903,0.7903,0.0,0.0,0.0,0.7903,0.7903,0.7903,0.7903,0.7903,0.7903,0.7903,0.7903,0.7903,0.7903,0.7903,0.7903,0.7903,0.7903,0.7903,0.7903,0.7903,0.7903,0.7903,0.7903,0.7903,0.7903,0.7903,0.7903,0.7903,0.7903,0.7903,0.7903,0.7837,0.775,0.775,0.7682,0.7622,0.7622,0.7622,0.7611,0.7578,0.7573,0.7559,0.7495,0.7489,0.7489,0.7489,0.7364,0.7291,0.7291,0.7291,0.7291,0.7291,0.7291,0.7291,0.7291,0.7345,0.7359,0.7359,0.7446,0.7489,0.7489,0.7489,0.7508,0.7573,0.7573,0.7589,0.4254,0.5817,0.7182,0.721,0.721,0.721,0.721,0.721,0.721,0.721,0.721,0.721,0.721,0.721,0.721,0.7213,0.7258,0.0,0.7473,0.7625,0.7744,0.0,0.0,0.0,0.0,0.0,0.0,0.0,0.0,0.0,0.0,0.7903,0.7903,0.7903,0.7903,0.7903,0.7903,0.7903,0.7903,0.7903,0.7903,0.7903,0.7903,0.7903,0.7903,0.0,0.0,0.0,0.0,0.7903,0.7903,0.7903,0.7903,0.7903,0.7903,0.7903,0.7903,0.7903,0.7903,0.7903,0.7903,0.7903,0.7903,0.7903,0.7903,0.7903,0.7903,0.7903,0.7903,0.7903,0.7903,0.7903,0.7903,0.7903,0.7903,0.7903,0.7903,0.79,0.79,0.79,0.79,0.7897,0.7897,0.7897,0.7859,0.7717,0.7701,0.7655,0.7506,0.7489,0.7489,0.7489,0.7487,0.7484,0.7484,0.7484,0.7484,0.7484,0.7484,0.7484,0.7484,0.7487,0.7487,0.7487,0.7489,0.7489,0.7489,0.7489,0.7581,0.7701,0.7701,0.7761,0.358,0.4894,0.5956,0.5956,0.6596,0.721,0.721,0.721,0.721,0.721,0.721,0.721,0.721,0.721,0.721,0.721,0.7255,0.7349,0.0,0.0,0.0,0.7886,0.7903,0.0,0.0,0.0,0.0,0.0,0.0,0.0,0.0,0.7903,0.7903,0.7903,0.7903,0.7903,0.7903,0.7903,0.7903,0.7903,0.7903,0.7903,0.7903,0.7903,0.0,0.0,0.0,0.0,0.0,0.7903,0.7903,0.7903,0.7903,0.7903,0.7903,0.7903,0.7903,0.7903,0.7903,0.7903,0.7903,0.7903,0.7903,0.7903,0.7903,0.7903,0.7903,0.7903,0.7903,0.7903,0.7903,0.7903,0.7903,0.7903,0.7903,0.7903,0.7903,0.7903,0.7903,0.7903,0.7903,0.7903,0.7903,0.7903,0.7889,0.7853,0.7848,0.7834,0.7793,0.7761,0.7761,0.7761,0.7761,0.7693,0.7503,0.7489,0.7489,0.7489,0.7489,0.7489,0.7489,0.76,0.7644,0.7644,0.772,0.7761,0.7761,0.7761,0.781,0.7848,0.7848,0.7867,0.2602,0.3804,0.4728,0.4728,0.562,0.6513,0.6513,0.6877,0.721,0.721,0.721,0.721,0.721,0.721,0.721,0.721,0.7248,0.7309,0.0,0.0,0.0,0.7818,0.0,0.0,0.0,0.0,0.0,0.0,0.0,0.0,0.0,0.0,0.7903,0.7903,0.7903,0.7903,0.7903,0.7903,0.7903,0.7903,0.7903,0.7903,0.7903,0.7903,0.0,0.0,0.0,0.0,0.0,0.7903,0.7903,0.7903,0.7903,0.7903,0.7903,0.7903,0.7903,0.7903,0.7903,0.7903,0.7903,0.7903,0.7903,0.7903,0.7903,0.7903,0.7903,0.7903,0.7903,0.7903,0.7903,0.7903,0.7903,0.7903,0.7903,0.7903,0.7903,0.7903,0.7903,0.7903,0.7903,0.7903,0.7903,0.7903,0.7903,0.7903,0.7903,0.7903,0.7903,0.7903,0.7903,0.7903,0.7903,0.7842,0.7663,0.7652,0.7652,0.7652,0.7652,0.7652,0.7652,0.7725,0.7766,0.7766,0.7864,0.7903,0.7903,0.7903,0.7903,0.7903,0.7903,0.7903,0.0,0.2547,0.3469,0.3469,0.4447,0.5399,0.5399,0.6346,0.0,0.721,0.721,0.721,0.721,0.721,0.721,0.721,0.721,0.7223,0.0,0.7313,0.0,0.0,0.0,0.0,0.0,0.0,0.0,0.0,0.0,0.0,0.0,0.0,0.7875,0.7875,0.7883,0.7892,0.7903,0.7903,0.7903,0.7903,0.7903,0.7903,0.7903,0.7903,0.0,0.0,0.0,0.0,0.0,0.7903,0.7903,0.7903,0.7903,0.7903,0.7903,0.7903,0.7903,0.7903,0.7903,0.7903,0.7903,0.7903,0.7903,0.7903,0.7903,0.7903,0.7903,0.7903,0.7903,0.7903,0.7903,0.7903,0.7903,0.7903,0.7903,0.7903,0.7903,0.7903,0.7903,0.7903,0.7903,0.7903,0.7903,0.7903,0.7903,0.7903,0.7903,0.7903,0.7903,0.7903,0.7903,0.7903,0.7903,0.7903,0.7903,0.7903,0.7903,0.7903,0.7903,0.7903,0.7903,0.7903,0.7903,0.7903,0.7903,0.7903,0.7903,0.7903,0.7903,0.7903,0.7903,0.7903,0.0336,0.0,0.2211,0.2211,0.3832,0.5399,0.0,0.6346,0.721,0.721,0.721,0.721,0.721,0.721,0.721,0.721,0.721,0.7223,0.7289,0.0,0.0,0.0,0.0,0.0,0.0,0.0,0.0,0.0,0.0,0.0,0.0,0.0,0.7603,0.7603,0.7693,0.7782,0.79,0.7903,0.7903,0.7903,0.7903,0.7903,0.7903,0.7903,0.0,0.0,0.0,0.0,0.7903,0.7903,0.7903,0.7903,0.7903,0.7903,0.7903,0.7903,0.7903,0.7903,0.7903,0.7903,0.7903,0.7903,0.7903,0.7903,0.7903,0.7903,0.7903,0.7903,0.7903,0.7903,0.7903,0.7903,0.7903,0.7903,0.7903,0.7903,0.7903,0.7903,0.7903,0.7903,0.7903,0.7903,0.7903,0.7903,0.7903,0.7903,0.7903,0.7903,0.7903,0.7903,0.7903,0.7903,0.7903,0.7903,0.7903,0.7903,0.7903,0.7903,0.7903,0.7903,0.7903,0.7903,0.7903,0.7903,0.7903,0.7903,0.7903,0.7903,0.7903,0.7903,0.7903,0.7903,0.0,0.0476,0.0981,0.0981,0.2798,0.4587,0.4587,0.5926,0.721,0.721,0.721,0.721,0.721,0.721,0.721,0.721,0.721,0.0,0.0,0.0,0.743,0.0,0.0,0.0,0.0,0.0,0.0,0.0,0.0,0.0,0.0,0.0,0.7489,0.7489,0.7584,0.7674,0.7793,0.7875,0.7903,0.7903,0.7903,0.7903,0.7903,0.7903,0.0,0.0,0.0,0.0,0.7903,0.7903,0.7903,0.7903,0.7903,0.7903,0.7903,0.7903,0.7903,0.7903,0.7903,0.7903,0.7903,0.7903,0.7903,0.7903,0.7903,0.7903,0.7903,0.7903,0.7903,0.7903,0.7903,0.7903,0.7903,0.7903,0.7903,0.7903,0.7903,0.7903,0.7903,0.7903,0.7903,0.7903,0.7903,0.7903,0.7903,0.7903,0.7903,0.7903,0.7903,0.7903,0.7903,0.7903,0.7903,0.7903,0.7903,0.7903,0.7903,0.7903,0.7903,0.7903,0.7903,0.7903,0.7903,0.7903,0.7903,0.7903,0.7903,0.7903,0.7903,0.7903,0.7903,0.7903,0.0,0.0,0.0,0.0,0.1819,0.3608,0.3608,0.5477,0.721,0.721,0.721,0.721,0.721,0.721,0.0,0.0,0.0,0.0,0.721,0.7244,0.0,0.0,0.0,0.0,0.0,0.0,0.0,0.0,0.0,0.0,0.0,0.0,0.0,0.7462,0.7452,0.7511,0.7646,0.7777,0.7883,0.7903,0.7903,0.7903,0.7903,0.7903,0.7903,0.0,0.0,0.0,0.7903,0.7903,0.7903,0.7903,0.7903,0.7903,0.7903,0.7903,0.7903,0.7903,0.7903,0.7903,0.7903,0.7903,0.7903,0.7903,0.7903,0.7903,0.7903,0.7903,0.7903,0.7903,0.7903,0.7903,0.7903,0.7903,0.7903,0.7903,0.7903,0.7903,0.7903,0.7903,0.7903,0.7903,0.7903,0.7903,0.7903,0.7903,0.7903,0.7903,0.7903,0.7903,0.7903,0.7903,0.7903,0.7903,0.7903,0.7903,0.7903,0.7903,0.7903,0.7903,0.7903,0.7903,0.7903,0.7903,0.7903,0.7903,0.7903,0.7903,0.7903,0.7903,0.7903,0.7903,0.0,0.0,0.0,0.0,0.1819,0.3608,0.3608,0.5477,0.721,0.721,0.721,0.721,0.721,0.721,0.721,0.0,0.0,0.721,0.0,0.0,0.0,0.0,0.0,0.0,0.0,0.0,0.0,0.0,0.0,0.0,0.0,0.0,0.0,0.7239,0.7309,0.7343,0.7362,0.7616,0.7777,0.7903,0.7903,0.7903,0.7903,0.7903,0.7903,0.0,0.0,0.7903,0.7903,0.7903,0.7903,0.7903,0.7903,0.7903,0.7903,0.7903,0.7903,0.7903,0.7903,0.7903,0.7903,0.7903,0.7903,0.7903,0.7903,0.7903,0.7903,0.7903,0.7903,0.7903,0.7903,0.7903,0.7903,0.7903,0.7903,0.7903,0.7903,0.7903,0.7903,0.7903,0.7903,0.7903,0.7903,0.7903,0.7903,0.7903,0.7903,0.7903,0.7903,0.7903,0.7903,0.7903,0.7903,0.7903,0.7903,0.7903,0.7903,0.7903,0.7903,0.7903,0.7903,0.7903,0.7903,0.7903,0.7903,0.7903,0.7903,0.7903,0.7903,0.7903,0.7903,0.7903,0.0,0.0,0.0,0.0,0.1316,0.2797,0.3441,0.4977,0.6402,0.7071,0.721,0.721,0.0,0.0,0.721,0.721,0.0,0.0,0.0,0.0,0.0,0.0,0.0,0.0,0.0,0.0,0.0,0.0,0.0,0.0,0.0,0.0,0.0,0.0,0.7237,0.7269,0.7308,0.7419,0.7595,0.778,0.7872,0.7903,0.7903,0.7903,0.7903,0.7903,0.0,0.7903,0.7903,0.7903,0.7903,0.7903,0.7903,0.7903,0.7903,0.7903,0.7903,0.7903,0.7903,0.7903,0.7903,0.7903,0.7903,0.7903,0.7903,0.7903,0.7903,0.7903,0.7903,0.7903,0.7903,0.7903,0.7903,0.7903,0.7903,0.7903,0.7903,0.7903,0.7903,0.7903,0.7903,0.7903,0.7903,0.7903,0.7903,0.7903,0.7903,0.7903,0.7903,0.7903,0.7903,0.7903,0.7903,0.7903,0.7903,0.7903,0.7903,0.7903,0.7903,0.7903,0.7903,0.7903,0.7903,0.7903,0.7903,0.7903,0.7903,0.7903,0.7903,0.7903,0.7903,0.7903,0.0,0.0,0.0,0.0,0.0896,0.2127,0.3329,0.4531,0.5734,0.696,0.721,0.0,0.0,0.721,0.0,0.721,0.0,0.0,0.0,0.0,0.0,0.0,0.0,0.0,0.0,0.0,0.0,0.0,0.0,0.0,0.0,0.0,0.0,0.0,0.721,0.7226,0.7265,0.7294,0.743,0.7703,0.7788,0.7875,0.7903,0.7903,0.7903,0.7903,0.7903,0.7903,0.7903,0.7903,0.7903,0.7903,0.7903,0.7903,0.7903,0.7903,0.7903,0.7903,0.7903,0.7903,0.7903,0.7903,0.7903,0.7903,0.7903,0.7903,0.7903,0.7903,0.7903,0.7903,0.7903,0.7903,0.7903,0.7903,0.7903,0.7903,0.7903,0.7903,0.7903,0.7903,0.7903,0.7903,0.7903,0.7903,0.7903,0.7903,0.7903,0.7903,0.7903,0.7903,0.7903,0.7903,0.7903,0.7903,0.7903,0.7903,0.7903,0.7903,0.7903,0.7903,0.7903,0.7903,0.7903,0.7903,0.7903,0.7903,0.7903,0.7903,0.7903,0.7903,0.7903,0.7903,0.0,0.0,0.0,0.0,0.0896,0.2127,0.3329,0.4531,0.5734,0.696,0.0,0.0,0.0,0.721,0.721,0.721,0.0,0.0,0.0,0.0,0.0,0.0,0.0,0.0,0.0,0.0,0.0,0.0,0.0,0.0,0.0,0.0,0.0,0.0,0.0,0.7215,0.7196,0.7279,0.743,0.7701,0.7709,0.7769,0.7903,0.7903,0.7903,0.7903,0.7903,0.7903,0.7903,0.7903,0.7903,0.7903,0.7903,0.7903,0.7903,0.7903,0.7903,0.7903,0.7903,0.7903,0.7903,0.7903,0.7903,0.7903,0.7903,0.7903,0.7903,0.7903,0.7903,0.7903,0.7903,0.7903,0.7903,0.7903,0.7903,0.7903,0.7903,0.7903,0.7903,0.7903,0.7903,0.7903,0.7903,0.7903,0.7903,0.7903,0.7903,0.7903,0.7903,0.7903,0.7903,0.7903,0.7903,0.7903,0.7903,0.7903,0.7903,0.7903,0.7903,0.7903,0.7903,0.7903,0.7903,0.7903,0.7903,0.7903,0.7903,0.7903,0.7903,0.7903,0.7903,0.7903,0.0,0.0,0.0,0.0,0.0896,0.2127,0.3329,0.3943,0.4838,0.6791,0.721,0.0,0.0,0.0,0.7321,0.0,0.0,0.0,0.0,0.0,0.0,0.0,0.0,0.0,0.0,0.0,0.0,0.0,0.0,0.0,0.0,0.0,0.0,0.0,0.0,0.721,0.721,0.7229,0.7307,0.7446,0.7627,0.7725,0.7769,0.787,0.7903,0.7903,0.7903,0.7903,0.7903,0.7903,0.7903,0.7903,0.7903,0.7903,0.7903,0.7903,0.7903,0.7903,0.7903,0.7903,0.7903,0.7903,0.7903,0.7903,0.7903,0.7903,0.7903,0.7903,0.7903,0.7903,0.7903,0.7903,0.7903,0.7903,0.7903,0.7903,0.7903,0.7903,0.7903,0.7903,0.7903,0.7903,0.7903,0.7903,0.7903,0.7903,0.7903,0.7903,0.7903,0.7903,0.7903,0.7903,0.7903,0.7903,0.7903,0.7903,0.7903,0.7903,0.7903,0.7903,0.7903,0.7903,0.7903,0.7903,0.7903,0.7903,0.7903,0.7903,0.7903,0.7903,0.7903,0.7903,0.0,0.0,0.0,0.0,0.0896,0.2127,0.3329,0.3888,0.4754,0.6791,0.7268,0.7379,0.7579,0.0,0.0,0.0,0.0,0.0,0.0,0.0,0.0,0.0,0.0,0.0,0.0,0.0,0.0,0.0,0.0,0.0,0.0,0.0,0.0,0.0,0.0,0.721,0.721,0.721,0.7223,0.7282,0.7489,0.7627,0.7706,0.7848,0.7903,0.7903,0.7903,0.7903,0.7903,0.7903,0.7903,0.7903,0.7903,0.7903,0.7903,0.7903,0.7903,0.7903,0.7903,0.7903,0.7903,0.7903,0.7903,0.7903,0.7903,0.7903,0.7903,0.7903,0.7903,0.7903,0.7903,0.7903,0.7903,0.7903,0.7903,0.7903,0.7903,0.7903,0.7903,0.7903,0.7903,0.7903,0.7903,0.7903,0.7903,0.7903,0.7903,0.7903,0.7903,0.7903,0.7903,0.7903,0.7903,0.7903,0.7903,0.7903,0.7903,0.7903,0.7903,0.7903,0.7903,0.7903,0.7903,0.7903,0.7903,0.7903,0.7903,0.7903,0.7903,0.7903,0.7903,0.7903,0.0,0.0,0.0,0.0028,0.0924,0.2127,0.3329,0.4531,0.5734,0.696,0.741,0.7607,0.7607,0.0,0.0,0.0,0.0,0.0,0.0,0.0,0.0,0.0,0.0,0.0,0.0,0.0,0.0,0.0,0.0,0.0,0.0,0.0,0.0,0.0,0.0,0.0,0.721,0.721,0.721,0.7213,0.7277,0.7435,0.7703,0.7848,0.79,0.7903,0.7903,0.7903,0.7903,0.7903,0.7903,0.7903,0.7903,0.7903,0.7903,0.7903,0.7903,0.7903,0.7903,0.7903,0.7903,0.7903,0.7903,0.7903,0.7903,0.7903,0.7903,0.7903,0.7903,0.7903,0.7903,0.7903,0.7903,0.7903,0.7903,0.7903,0.7903,0.7903,0.7903,0.7903,0.7903,0.7903,0.7903,0.7903,0.7903,0.7903,0.7903,0.7903,0.7903,0.7903,0.7903,0.7903,0.7903,0.7903,0.7903,0.7903,0.7903,0.7903,0.7903,0.7903,0.7903,0.7903,0.7903,0.7903,0.7903,0.7903,0.7903,0.7903,0.7903,0.7903,0.7903,0.7903,0.0,0.0,0.0196,0.1064,0.2183,0.3385,0.4587,0.5284,0.6063,0.0,0.7823,0.7965,0.8183,0.0,0.0,0.0,0.0,0.0,0.0,0.0,0.0,0.0,0.0,0.0,0.0,0.0,0.0,0.0,0.0,0.0,0.0,0.0,0.0,0.0,0.0,0.0,0.721,0.721,0.721,0.7213,0.7277,0.7389,0.7576,0.7698,0.7826,0.7903,0.7903,0.7903,0.7903,0.7903,0.7903,0.7903,0.7903,0.7903,0.7903,0.7903,0.7903,0.7903,0.7903,0.7903,0.7903,0.7903,0.7903,0.7903,0.7903,0.7903,0.7903,0.7903,0.7903,0.7903,0.7903,0.7903,0.7903,0.7903,0.7903,0.7903,0.7903,0.7903,0.7903,0.7903,0.7903,0.7903,0.7903,0.7903,0.7903,0.7903,0.7903,0.7903,0.7903,0.7903,0.7903,0.7903,0.7903,0.7903,0.7903,0.7903,0.7903,0.7903,0.7903,0.7903,0.7903,0.7903,0.7903,0.7903,0.7903,0.7903,0.7903,0.7903,0.7903,0.7903,0.7903,0.7903,0.0588,0.0728,0.1008,0.2211,0.3495,0.4864,0.6316,0.0,0.0,0.0,0.81,0.8266,0.8457,0.0,0.0,0.0,0.0,0.0,0.0,0.0,0.0,0.0,0.0,0.0,0.0,0.0,0.0,0.0,0.0,0.0,0.0,0.0,0.0,0.0,0.0,0.0,0.721,0.721,0.721,0.7213,0.7228,0.7328,0.7422,0.7622,0.7739,0.7837,0.7881,0.7903,0.7903,0.7903,0.7903,0.7903,0.7903,0.7903,0.7903,0.7903,0.7903,0.7903,0.7903,0.7903,0.7903,0.7903,0.7903,0.7903,0.7903,0.7903,0.7903,0.7903,0.7903,0.7903,0.7903,0.7903,0.7903,0.7903,0.7903,0.7903,0.7903,0.7903,0.7903,0.7903,0.7903,0.7903,0.7903,0.7903,0.7903,0.7903,0.7903,0.7903,0.7903,0.7903,0.7903,0.7903,0.7903,0.7903,0.7903,0.7903,0.7903,0.7903,0.7903,0.7903,0.7903,0.7903,0.7903,0.7903,0.7903,0.7903,0.7903,0.7903,0.7903,0.7903,0.7903,0.7903,0.1484,0.1791,0.2127,0.3467,0.4918,0.0,0.8122,0.8072,0.7771,0.8017,0.0,0.854,0.0,0.0,0.0,0.0,0.0,0.0,0.0,0.0,0.0,0.0,0.0,0.0,0.0,0.0,0.0,0.0,0.0,0.0,0.0,0.0,0.0,0.0,0.0,0.0,0.7238,0.721,0.721,0.0,0.721,0.7239,0.73,0.7573,0.7695,0.7722,0.7856,0.7903,0.7903,0.7903,0.7903,0.7903,0.7903,0.7903,0.7903,0.7903,0.7903,0.7903,0.7903,0.7903,0.7903,0.7903,0.7903,0.7903,0.7903,0.7903,0.7903,0.7903,0.7903,0.7903,0.7903,0.7903,0.7903,0.7903,0.7903,0.7903,0.7903,0.7903,0.7903,0.7903,0.7903,0.7903,0.7903,0.7903,0.7903,0.7903,0.7903,0.7903,0.7903,0.7903,0.7903,0.7903,0.7903,0.7903,0.7903,0.7903,0.7903,0.7903,0.7903,0.7903,0.7903,0.7903,0.7903,0.7903,0.7903,0.7903,0.7903,0.7903,0.7903,0.7903,0.7903,0.7903,0.1484,0.1791,0.2378,0.4723,0.6424,0.7709,0.8346,0.8401,0.8377,0.8657,0.8771,0.8826,0.0,0.0,0.0,0.0,0.0,0.0,0.0,0.0,0.0,0.0,0.0,0.0,0.0,0.0,0.0,0.0,0.0,0.0,0.0,0.0,0.0,0.7934,0.0,0.7579,0.7521,0.7296,0.721,0.0,0.721,0.7196,0.7229,0.7445,0.766,0.7867,0.7889,0.7903,0.7903,0.7903,0.7903,0.7903,0.7903,0.7903,0.7903,0.7903,0.7903,0.7903,0.7903,0.7903,0.7903,0.7903,0.7903,0.7903,0.7903,0.7903,0.7903,0.7903,0.7903,0.7903,0.7903,0.7903,0.7903,0.7903,0.7903,0.7903,0.7903,0.7903,0.7903,0.7903,0.7903,0.7903,0.7903,0.7903,0.7903,0.7903,0.7903,0.7903,0.7903,0.7903,0.7903,0.7903,0.7903,0.7903,0.7903,0.7903,0.7903,0.7903,0.7903,0.7903,0.7903,0.7903,0.7903,0.7903,0.7903,0.7903,0.7903,0.7903,0.7903,0.7903,0.7903,0.7903,0.305,0.3607,0.4247,0.6533,0.0,0.8322,0.8629,0.8685,0.874,0.8881,0.8912,0.0,0.0,0.0,0.0,0.0,0.0,0.0,0.0,0.0,0.0,0.0,0.0,0.0,0.0,0.0,0.0,0.0,0.0,0.0,0.0,0.8685,0.8546,0.8239,0.81,0.7965,0.7798,0.7657,0.7518,0.7379,0.7379,0.7354,0.7247,0.7434,0.7616,0.7793,0.7878,0.7903,0.7903,0.7903,0.7903,0.7903,0.7903,0.7903,0.7903,0.7903,0.7903,0.7903,0.7903,0.7903,0.7903,0.7903,0.7903,0.7903,0.7903,0.7903,0.7903,0.7903,0.7903,0.7903,0.7903,0.7903,0.7903,0.7903,0.7903,0.7903,0.7903,0.7903,0.7903,0.7903,0.7903,0.7903,0.7903,0.7903,0.7903,0.7903,0.7903,0.7903,0.7903,0.7903,0.7903,0.7903,0.7903,0.7903,0.7903,0.7903,0.7903,0.7903,0.7903,0.7903,0.7903,0.7903,0.7903,0.7903,0.7903,0.7903,0.7903,0.7903,0.7903,0.7903,0.8058,0.815,0.481,0.5868,0.6619,0.8122,0.854,0.0,0.8854,0.8912,0.8912,0.8912,0.0,0.0,0.0,0.0,0.0,0.0,0.0,0.0,0.0,0.0,0.0,0.0,0.0,0.0,0.0,0.0,0.0,0.0,0.0,0.0,0.8912,0.8912,0.8799,0.8571,0.8512,0.8374,0.81,0.8017,0.7881,0.766,0.7635,0.7491,0.7281,0.7403,0.7565,0.7706,0.7832,0.7883,0.7903,0.7903,0.7903,0.7903,0.7903,0.7903,0.7903,0.7903,0.7903,0.7903,0.7903,0.7903,0.7903,0.7903,0.7903,0.7903,0.7903,0.7903,0.7903,0.7903,0.7903,0.7903,0.7903,0.7903,0.7903,0.7903,0.7903,0.7903,0.7903,0.7903,0.7903,0.7903,0.7903,0.7903,0.7903,0.7903,0.7903,0.7903,0.7903,0.7903,0.7903,0.7903,0.7903,0.7903,0.7903,0.7903,0.7903,0.7903,0.7903,0.7903,0.7903,0.7903,0.7903,0.7903,0.7903,0.7903,0.7964,0.7994,0.7994,0.8055,0.8086,0.8086,0.8366,0.8491,0.5029,0.6924,0.8205,0.8429,0.8685,0.8854,0.0,0.0,0.8912,0.0,0.0,0.0,0.0,0.0,0.0,0.0,0.0,0.0,0.0,0.0,0.0,0.0,0.0,0.0,0.0,0.0,0.0,0.0,0.0,0.0,0.8912,0.8912,0.8881,0.8854,0.8626,0.8484,0.8429,0.8156,0.7989,0.7934,0.7715,0.7474,0.7209,0.7304,0.7457,0.7703,0.7717,0.778,0.7903,0.7903,0.7903,0.7903,0.7903,0.7903,0.7903,0.7903,0.7903,0.7903,0.7903,0.7903,0.7903,0.7903,0.7903,0.7903,0.7903,0.7903,0.7903,0.7903,0.7903,0.7903,0.7903,0.7903,0.7903,0.7903,0.7903,0.7903,0.7903,0.7903,0.7903,0.7903,0.7903,0.7903,0.7903,0.7903,0.7903,0.7903,0.7903,0.7903,0.7903,0.7903,0.7903,0.7903,0.7903,0.7903,0.7903,0.7903,0.7903,0.7903,0.7903,0.7903,0.7903,0.7903,0.7903,0.7903,0.8183,0.8339,0.8339,0.861,0.8763,0.8763,0.8824,0.8824,0.6727,0.79,0.854,0.8685,0.8826,0.8912,0.8912,0.8912,0.8912,0.0,0.0,0.0,0.0,0.0,0.0,0.0,0.0,0.0,0.0,0.0,0.0,0.0,0.0,0.0,0.0,0.0,0.0,0.0,0.0,0.8912,0.8912,0.8912,0.8912,0.8912,0.8799,0.8712,0.8712,0.8574,0.8432,0.8263,0.7962,0.7687,0.7438,0.7466,0.7476,0.7476,0.7644,0.7731,0.778,0.7875,0.7903,0.7903,0.7903,0.7903,0.7903,0.7903,0.7903,0.7903,0.7903,0.7903,0.7903,0.7903,0.7903,0.7903,0.7903,0.7903,0.7903,0.7903,0.7903,0.7903,0.7903,0.7903,0.7903,0.7903,0.7903,0.7903,0.7903,0.7903,0.7903,0.7903,0.7903,0.7903,0.7903,0.7903,0.7903,0.7903,0.7903,0.7903,0.7903,0.7903,0.7903,0.7903,0.7903,0.7903,0.7903,0.7903,0.7903,0.7903,0.7903,0.7994,0.8183,0.8183,0.8272,0.8455,0.8427,0.84,0.84,0.8732,0.8885,0.8915,0.9065,0.9126,0.8122,0.854,0.8654,0.8854,0.8912,0.8912,0.0,0.0,0.8912,0.0,0.0,0.0,0.0,0.0,0.0,0.0,0.0,0.0,0.0,0.0,0.0,0.0,0.0,0.0,0.0,0.0,0.0,0.0,0.0,0.8912,0.8912,0.8912,0.8912,0.8912,0.8912,0.8912,0.8912,0.8912,0.8768,0.8484,0.8235,0.7937,0.7607,0.7607,0.7488,0.7301,0.7516,0.7644,0.7709,0.7793,0.7875,0.7903,0.7903,0.7903,0.7903,0.7903,0.7903,0.7903,0.7903,0.7903,0.7903,0.7903,0.7903,0.7903,0.7903,0.7903,0.7903,0.7903,0.7903,0.7903,0.7903,0.7903,0.7903,0.7903,0.7903,0.7903,0.7903,0.7903,0.7903,0.7903,0.7903,0.7903,0.7903,0.7903,0.7903,0.7903,0.7903,0.7903,0.7903,0.7903,0.7903,0.7903,0.7964,0.8027,0.8027,0.8116,0.8147,0.8147,0.8147,0.8272,0.8522,0.8522,0.8644,0.8885,0.8732,0.8644,0.8644,0.8976,0.9126,0.9129,0.9339,0.9427,0.8374,0.8685,0.8881,0.8885,0.8912,0.8912,0.0,0.0,0.0,0.0,0.0,0.0,0.0,0.0,0.0,0.0,0.0,0.0,0.0,0.0,0.0,0.0,0.0,0.0,0.0,0.0,0.0,0.0,0.0,0.8912,0.8912,0.8912,0.8912,0.8912,0.8912,0.8912,0.8912,0.8912,0.8768,0.8512,0.8484,0.8156,0.7607,0.7607,0.7468,0.7198,0.7298,0.7457,0.7701,0.7709,0.7774,0.7903,0.7903,0.7903,0.7903,0.7903,0.7903,0.7903,0.7903,0.7903,0.7903,0.7903,0.7903,0.7903,0.7903,0.7903,0.7903,0.7903,0.7903,0.7903,0.7903,0.7903,0.7903,0.7903,0.7903,0.7903,0.7903,0.7903,0.7903,0.7903,0.7903,0.7903,0.7903,0.7903,0.7903,0.7903,0.7903,0.7903,0.7903,0.7903,0.7903,0.7903,0.8183,0.8369,0.8369,0.8671,0.8854,0.8854,0.8854,0.8854,0.8885,0.8885,0.8885,0.8885,0.9126,0.9244,0.9244,0.9579,0.9761,0.9761,0.9761,0.9761,0.8629,0.8826,0.8912,0.8912,0.8912,0.8912,0.8912,0.8912,0.8912,0.0,0.0,0.0,0.0,0.0,0.0,0.0,0.0,0.0,0.0,0.0,0.0,0.0,0.0,0.0,0.0,0.0,0.0,0.0,0.0,0.0,0.8912,0.8912,0.8912,0.8912,0.8912,0.8912,0.8912,0.8912,0.8854,0.8768,0.8571,0.8266,0.7854,0.769,0.7465,0.7213,0.7229,0.7358,0.7589,0.7668,0.7769,0.7903,0.7903,0.7903,0.7903,0.7903,0.7903,0.7903,0.7903,0.7903,0.7903,0.7903,0.7903,0.7903,0.7903,0.7903,0.7903,0.7903,0.7903,0.7903,0.7903,0.7903,0.7903,0.7903,0.7903,0.7903,0.7903,0.7903,0.7964,0.8183,0.8058,0.7903,0.7903,0.7903,0.7903,0.7903,0.7903,0.7964,0.8183,0.8214,0.8305,0.8516,0.8641,0.8735,0.8735,0.8824,0.8885,0.8885,0.8885,0.8976,0.9156,0.9156,0.9247,0.9457,0.9579,0.9518,0.9305,0.964,0.9792,0.9792,0.9792,0.9792,0.8629,0.8826,0.8912,0.8912,0.8912,0.8912,0.8912,0.0,0.8912,0.0,0.0,0.0,0.0,0.0,0.0,0.0,0.0,0.0,0.0,0.0,0.0,0.0,0.0,0.0,0.0,0.0,0.0,0.0,0.0,0.0,0.8912,0.8912,0.8854,0.8768,0.8768,0.8768,0.8768,0.8657,0.8657,0.8768,0.846,0.8156,0.7854,0.769,0.7465,0.721,0.721,0.7297,0.7438,0.7589,0.7709,0.7848,0.7886,0.7903,0.7903,0.7903,0.7903,0.7903,0.7903,0.7903,0.7933,0.8027,0.7994,0.7933,0.8027,0.7994,0.7903,0.7903,0.7903,0.7903,0.7903,0.7903,0.7903,0.7903,0.7994,0.8058,0.8058,0.7964,0.7964,0.8183,0.8058,0.7903,0.7903,0.7994,0.8058,0.8058,0.8177,0.8302,0.8552,0.8583,0.8644,0.8885,0.8976,0.9037,0.9037,0.9129,0.9217,0.9217,0.9217,0.9278,0.9457,0.9457,0.9579,0.9792,0.9792,0.97,0.9457,0.97,0.9792,0.9792,0.9792,0.9792,0.0,0.0,0.0,0.8912,0.8912,0.8912,0.8912,0.0,0.8912,0.0,0.0,0.0,0.0,0.0,0.0,0.0,0.0,0.0,0.0,0.0,0.0,0.0,0.0,0.0,0.0,0.0,0.0,0.0,0.0,0.8912,0.8912,0.8912,0.8768,0.8512,0.8512,0.8484,0.8484,0.8156,0.8156,0.8484,0.8156,0.7854,0.7607,0.7579,0.7438,0.721,0.721,0.725,0.7311,0.7433,0.7587,0.7712,0.7853,0.79,0.7903,0.7903,0.7903,0.7903,0.7903,0.7903,0.7964,0.8275,0.8183,0.7964,0.8308,0.8152,0.7903,0.7903,0.7903,0.7903,0.7903,0.7903,0.7903,0.7903,0.8183,0.84,0.84,0.815,0.7933,0.7903,0.7903,0.7903,0.7903,0.8183,0.84,0.84,0.8702,0.8915,0.8915,0.8915,0.8915,0.8915,0.9156,0.9305,0.9305,0.9609,0.9792,0.9792,0.9792,0.9792,0.9792,0.9792,0.9792,0.9792,0.9792,0.9792,0.9792,0.9792,0.9792,0.9792,0.9792,0.9792,0.8122,0.0,0.0,0.0,0.0,0.0,0.8912,0.8912,0.8912,0.0,0.0,0.0,0.0,0.0,0.0,0.0,0.0,0.0,0.0,0.0,0.0,0.0,0.0,0.0,0.0,0.0,0.0,0.0,0.8912,0.8912,0.8912,0.8912,0.8768,0.8512,0.8512,0.8374,0.8156,0.8045,0.8045,0.8128,0.7854,0.7662,0.7607,0.7407,0.7268,0.721,0.721,0.7201,0.7242,0.7308,0.7481,0.7703,0.7736,0.7829,0.7903,0.7903,0.7903,0.7903,0.7903,0.7903,0.7964,0.8275,0.8183,0.7964,0.8308,0.8152,0.7903,0.7903,0.7903,0.7903,0.7903,0.8089,0.8275,0.8275,0.8519,0.8766,0.8766,0.8702,0.8546,0.8305,0.8275,0.8275,0.8275,0.8549,0.8766,0.8766,0.8854,0.8976,0.9156,0.9186,0.9278,0.9518,0.9609,0.967,0.967,0.9761,0.9792,0.9792,0.9792,0.9792,0.9792,0.9792,0.9792,0.9792,0.9792,0.9792,0.9792,0.9792,0.9792,0.9792,0.9792,0.9792,0.0,0.0,0.0,0.0,0.0,0.0,0.8912,0.8912,0.8912,0.0,0.0,0.0,0.0,0.0,0.0,0.0,0.0,0.0,0.0,0.0,0.0,0.0,0.0,0.0,0.0,0.0,0.0,0.8912,0.8912,0.8912,0.8912,0.8799,0.8598,0.8291,0.8183,0.8017,0.7826,0.7712,0.7712,0.7826,0.7549,0.7438,0.7438,0.7268,0.721,0.721,0.721,0.721,0.7215,0.723,0.7404,0.763,0.7682,0.7771,0.7903,0.7903,0.7994,0.8119,0.8119,0.8211,0.8363,0.8671,0.858,0.8363,0.8549,0.8366,0.8119,0.8119,0.8211,0.8333,0.8333,0.8458,0.8613,0.8613,0.8854,0.9037,0.8915,0.8976,0.8976,0.8674,0.8613,0.8613,0.8613,0.8854,0.9065,0.9065,0.9186,0.9339,0.9488,0.9518,0.9579,0.9788,0.9792,0.9792,0.9792,0.9792,0.9792,0.9792,0.9792,0.9792,0.9792,0.9792,0.9792,0.9792,0.9792,0.9792,0.9792,0.9792,0.9792,0.9792,0.9792,0.9792,0.0,0.0,0.0,0.0,0.8854,0.0,0.8881,0.8912,0.8912,0.8912,0.0,0.0,0.0,0.0,0.0,0.0,0.0,0.0,0.0,0.0,0.0,0.0,0.0,0.0,0.0,0.8912,0.8912,0.8912,0.8912,0.8912,0.8912,0.8654,0.8346,0.8017,0.7746,0.7579,0.7551,0.7324,0.7324,0.7551,0.7324,0.721,0.721,0.721,0.721,0.721,0.721,0.721,0.721,0.721,0.7319,0.7481,0.7633,0.775,0.7883,0.7897,0.8119,0.84,0.8369,0.8552,0.8885,0.9126,0.9004,0.8793,0.8885,0.8674,0.84,0.843,0.8674,0.8885,0.8885,0.8915,0.8946,0.8946,0.9156,0.9278,0.9065,0.9186,0.9278,0.9037,0.8976,0.8946,0.8946,0.9186,0.9366,0.9366,0.9609,0.9792,0.9792,0.9792,0.9792,0.9792,0.9792,0.9792,0.9792,0.9792,0.9792,0.9792,0.9792,0.9792,0.9792,0.9792,0.9792,0.9792,0.9792,0.9792,0.9792,0.9792,0.9792,0.9792,0.9792,0.9792,0.0,0.0,0.0,0.0,0.0,0.0,0.8854,0.8912,0.8912,0.0,0.0,0.0,0.0,0.0,0.0,0.0,0.0,0.0,0.0,0.0,0.0,0.0,0.0,0.0,0.0,0.8912,0.8912,0.8912,0.8912,0.8912,0.8912,0.8654,0.8346,0.8017,0.7746,0.7493,0.7268,0.7238,0.7238,0.7268,0.7238,0.721,0.721,0.721,0.721,0.721,0.721,0.721,0.721,0.721,0.7267,0.7354,0.7476,0.7627,0.7744,0.7867,0.8119,0.8369,0.8089,0.8211,0.8491,0.8552,0.8363,0.8208,0.8732,0.8674,0.8461,0.8732,0.8854,0.8885,0.8885,0.9065,0.9217,0.9217,0.9457,0.97,0.964,0.967,0.97,0.964,0.9396,0.9217,0.9217,0.9488,0.97,0.97,0.9761,0.9792,0.9792,0.9792,0.9792,0.9792,0.9792,0.9792,0.9792,0.9792,0.9792,0.9792,0.9792,0.9792,0.9792,0.9792,0.9792,0.9792,0.9792,0.9792,0.9792,0.9792,0.9792,0.9792,0.9792,0.9792,0.0,0.0,0.0,0.7143,0.0,0.0,0.0,0.8712,0.874,0.8881,0.8912,0.0,0.0,0.0,0.0,0.0,0.0,0.0,0.0,0.0,0.0,0.0,0.0,0.0,0.0,0.8912,0.8912,0.8912,0.8912,0.8912,0.8912,0.8488,0.8183,0.8017,0.7604,0.7324,0.721,0.721,0.721,0.721,0.721,0.721,0.721,0.721,0.721,0.721,0.721,0.721,0.721,0.721,0.7218,0.7263,0.7448,0.7592,0.7717,0.7859,0.8119,0.8369,0.8214,0.8458,0.8854,0.8854,0.8851,0.8876,0.9034,0.8973,0.8882,0.9065,0.9217,0.9339,0.9339,0.946,0.9548,0.9548,0.967,0.9792,0.9792,0.9792,0.9792,0.9792,0.967,0.9548,0.9548,0.97,0.9792,0.9792,0.9792,0.9792,0.9792,0.9792,0.9792,0.9792,0.9792,0.9792,0.9792,0.9792,0.9792,0.9792,0.9792,0.9792,0.9792,0.9792,0.9792,0.9792,0.9792,0.9792,0.9792,0.9792,0.9792,0.9792,0.9792,0.9792,0.0,0.0,0.0,0.0,0.0,0.7651,0.0,0.0,0.0,0.8688,0.8771,0.0,0.0,0.0,0.0,0.0,0.0,0.0,0.0,0.0,0.0,0.0,0.0,0.0,0.0,0.8912,0.8912,0.8912,0.8854,0.8826,0.8826,0.8242,0.7934,0.7934,0.746,0.721,0.721,0.721,0.721,0.721,0.721,0.721,0.721,0.721,0.721,0.721,0.721,0.721,0.721,0.721,0.721,0.7207,0.7423,0.7578,0.7684,0.7911,0.8211,0.8491,0.8491,0.8854,0.9305,0.9247,0.9396,0.9579,0.9366,0.9305,0.9305,0.9366,0.9579,0.9792,0.9792,0.9792,0.9792,0.9792,0.9792,0.9792,0.9792,0.9792,0.9792,0.9792,0.9792,0.9792,0.9792,0.9792,0.9792,0.9792,0.9792,0.9792,0.9792,0.9792,0.9792,0.9792,0.9792,0.9792,0.9792,0.9792,0.9792,0.9792,0.9792,0.9792,0.9792,0.9792,0.9792,0.9792,0.9792,0.9792,0.9792,0.9792,0.9792,0.9792,0.9792,0.9792,0.0,0.0,0.0,0.0,0.5166,0.0,0.0,0.0,0.8072,0.81,0.0,0.0,0.0,0.0,0.0,0.0,0.0,0.0,0.0,0.0,0.0,0.0,0.0,0.0,0.0,0.0,0.8912,0.8912,0.8685,0.854,0.854,0.7965,0.7635,0.7635,0.7351,0.721,0.721,0.721,0.721,0.721,0.721,0.721,0.721,0.721,0.721,0.721,0.721,0.721,0.721,0.721,0.721,0.7207,0.7423,0.7498,0.7597,0.8129,0.8549,0.8854,0.8854,0.9034,0.9247,0.9037,0.8976,0.9037,0.9247,0.9305,0.9366,0.967,0.9761,0.9792,0.9792,0.9792,0.9792,0.9792,0.9792,0.9792,0.9792,0.9792,0.9792,0.9792,0.9792,0.9792,0.9792,0.9792,0.9792,0.9792,0.9792,0.9792,0.9792,0.9792,0.9792,0.9792,0.9792,0.9792,0.9792,0.9792,0.9792,0.9792,0.9792,0.9792,0.9792,0.9792,0.9792,0.9792,0.9792,0.9792,0.9792,0.9792,0.9792,0.9792,0.9792,0.9792,0.0,0.0,0.0,0.0,0.0,0.0,0.4886,0.0,0.5945,0.0,0.0,0.0,0.0,0.0,0.0,0.0,0.8755,0.0,0.0,0.0,0.0,0.0,0.0,0.0,0.0,0.0,0.0,0.0,0.0,0.8401,0.8211,0.7826,0.7607,0.7607,0.7351,0.721,0.721,0.721,0.721,0.721,0.721,0.721,0.721,0.721,0.721,0.721,0.721,0.721,0.721,0.721,0.721,0.7198,0.7345,0.7543,0.7838,0.8244,0.8613,0.8885,0.8885,0.9068,0.9275,0.9156,0.9126,0.9156,0.9278,0.9305,0.9366,0.97,0.9792,0.9792,0.9792,0.9792,0.9792,0.9792,0.9792,0.9792,0.9792,0.9792,0.9792,0.9792,0.9792,0.9792,0.9792,0.9792,0.9792,0.9792,0.9792,0.9792,0.9792,0.9792,0.9792,0.9792,0.9792,0.9792,0.9792,0.9792,0.9792,0.9792,0.9792,0.9792,0.9792,0.9792,0.9792,0.9792,0.9792,0.9792,0.9792,0.9792,0.9792,0.9792,0.9792,0.9792,0.0,0.0,0.0,0.0,0.0,0.0,0.0,0.0,0.0,0.0,0.0,0.0,0.0,0.0,0.0,0.0,0.0,0.8644,0.0,0.0,0.0,0.0,0.0,0.0,0.0,0.0,0.0,0.0,0.8263,0.8239,0.7906,0.7632,0.7493,0.7493,0.7296,0.721,0.721,0.721,0.721,0.7182,0.6877,0.6877,0.7182,0.6849,0.6874,0.721,0.721,0.721,0.721,0.721,0.721,0.7198,0.7326,0.761,0.8037,0.8263,0.8581,0.8915,0.8976,0.9126,0.9305,0.9305,0.9244,0.9217,0.9278,0.9305,0.9366,0.97,0.9792,0.9792,0.9792,0.9792,0.9792,0.9792,0.9792,0.9792,0.9792,0.9792,0.9792,0.9792,0.9792,0.9792,0.9792,0.9792,0.9792,0.9792,0.9792,0.9792,0.9792,0.9792,0.9792,0.9792,0.9792,0.9792,0.9792,0.9792,0.9792,0.9792,0.9792,0.9792,0.9792,0.9792,0.9792,0.9792,0.9792,0.9792,0.9792,0.9792,0.9792,0.9792,0.9792,0.9792,0.0,0.0,0.0,0.0056,0.0,0.0,0.0,0.0,0.3636,0.0,0.0,0.0,0.0,0.0,0.6302,0.6122,0.0,0.0,0.0,0.0,0.0,0.0,0.0,0.0,0.0,0.0,0.0,0.8512,0.8183,0.7909,0.7635,0.7351,0.721,0.721,0.721,0.721,0.721,0.721,0.721,0.7182,0.6012,0.6068,0.7154,0.5984,0.6096,0.721,0.721,0.721,0.721,0.721,0.721,0.7207,0.7418,0.7688,0.8026,0.8162,0.85,0.8946,0.9186,0.9305,0.9305,0.9305,0.9126,0.8976,0.9217,0.9305,0.9366,0.97,0.9792,0.9792,0.9792,0.9792,0.9792,0.9792,0.9792,0.9792,0.9792,0.9792,0.9792,0.9792,0.9792,0.9792,0.9792,0.9792,0.9792,0.9792,0.9792,0.9792,0.9792,0.9792,0.9792,0.9792,0.9792,0.9792,0.9792,0.9792,0.9792,0.9792,0.9792,0.9792,0.9792,0.9792,0.9792,0.9792,0.9792,0.9792,0.9792,0.9792,0.9792,0.9792,0.9792,0.9792,0.0,0.0,0.0,0.0,0.0,0.0,0.0,0.0,0.0,0.0,0.0,0.0,0.0,0.0,0.4764,0.4683,0.5922,0.6574,0.0,0.0,0.0,0.0,0.0,0.0,0.0,0.0,0.0,0.7937,0.7798,0.7604,0.0,0.7238,0.721,0.721,0.721,0.721,0.721,0.721,0.721,0.7182,0.5984,0.604,0.7127,0.5115,0.4866,0.5956,0.5172,0.5284,0.6012,0.6012,0.6485,0.7198,0.7334,0.7506,0.7719,0.8165,0.8572,0.8915,0.9004,0.9037,0.9037,0.9037,0.8824,0.8674,0.9156,0.9186,0.9156,0.967,0.9792,0.9792,0.9792,0.9792,0.9792,0.9792,0.9792,0.9792,0.9792,0.9792,0.9792,0.9792,0.9792,0.9792,0.9792,0.9792,0.9792,0.9792,0.9792,0.9792,0.9792,0.9792,0.9792,0.9792,0.9792,0.9792,0.9792,0.9792,0.9792,0.9792,0.9792,0.9792,0.9792,0.9792,0.9792,0.9792,0.9792,0.9792,0.9792,0.9792,0.9792,0.9792,0.9792,0.9792,-0.0028,0.0,0.0,0.0,0.0,0.0,0.0,0.0,0.0,0.0,0.0,0.0,0.0,0.0,0.3214,0.3214,0.4413,0.5111,0.0,0.4997,0.0,0.0,0.0,0.0,0.0,0.0,0.8128,0.7635,0.7607,0.7493,0.0,0.0,0.6568,0.6568,0.6149,0.5924,0.5924,0.5924,0.5924,0.5896,0.4697,0.4752,0.5841,0.3858,0.3608,0.4728,0.4392,0.4447,0.4838,0.5676,0.6235,0.6611,0.7166,0.7422,0.7543,0.7985,0.8392,0.8732,0.8854,0.8885,0.8885,0.8885,0.8824,0.8793,0.9186,0.9278,0.9299,0.964,0.9751,0.9778,0.9727,0.9754,0.9792,0.9792,0.9792,0.9792,0.9792,0.9792,0.9792,0.9792,0.9792,0.9792,0.9792,0.9792,0.9792,0.9792,0.9792,0.9792,0.9792,0.9792,0.9792,0.9792,0.9792,0.9792,0.9792,0.9792,0.9792,0.9792,0.9792,0.9792,0.9792,0.9792,0.9792,0.9792,0.9792,0.9792,0.9792,0.9792,0.9792,0.9792,0.9792,0.9792]},{"header":{"parameterUnit":"m.s-1","parameterCategory":1,"la1":30.6,"la2":29.2853,"lo1":-89.7004,"lo2":-87.6739,"dy":0.0162,"dx":0.0183,"nx":112,"ny":82,"refTime":"2023-10-18T06:00:00:Z","depth":0,"parameterNumber":3,"parameterNumberName":"V-component_of_WINDS"},"data":[0.0,0.0,0.0,0.0,0.0,0.0,0.0,0.0,0.0,0.0,0.0,0.0,0.0,0.0,0.0,0.0,0.0,0.0,0.0,0.0,0.0,0.0,0.0,0.0,0.0,0.0,0.0,0.0,0.0,0.0,0.0,0.0,0.0,0.0,0.0,0.0,0.0,0.0,0.0,0.0,0.0,0.0,0.0,0.0,0.0,0.0,0.0,0.0,0.0,0.0,0.0,0.0,0.0,0.0,0.0,0.0,0.0,0.0,0.0,0.0,0.0,0.0,0.0,0.0,0.0,0.0,0.0,0.0,0.0,0.0,0.0,0.0,0.0,0.0,0.0,0.0,0.0,0.0,0.0,0.0,0.0,0.0,0.0,0.0,0.0,0.0,0.0,0.0,0.0,0.0,3.3927,3.3802,3.3807,3.3807,3.3807,3.3807,3.3753,3.3615,0.0,0.0,0.0,0.0,0.0,0.0,0.0,0.0,0.0,0.0,0.0,0.0,0.0,0.0,0.0,0.0,0.0,0.0,0.0,0.0,0.0,0.0,0.0,0.0,0.0,0.0,0.0,0.0,0.0,0.0,0.0,0.0,0.0,0.0,0.0,0.0,0.0,0.0,0.0,0.0,0.0,0.0,0.0,0.0,0.0,0.0,0.0,0.0,0.0,0.0,0.0,0.0,0.0,0.0,0.0,0.0,0.0,0.0,0.0,0.0,0.0,0.0,0.0,0.0,0.0,0.0,0.0,0.0,0.0,0.0,0.0,0.0,0.0,0.0,0.0,0.0,0.0,0.0,0.0,0.0,0.0,0.0,0.0,0.0,0.0,0.0,0.0,0.0,0.0,0.0,0.0,0.0,0.0,0.0,0.0,0.0,0.0,0.0,0.0,0.0,0.0,0.0,0.0,0.0,3.3815,3.3795,3.3807,3.3807,3.3807,3.3807,3.3773,3.3684,0.0,0.0,0.0,0.0,0.0,0.0,0.0,0.0,0.0,0.0,0.0,0.0,0.0,0.0,0.0,0.0,0.0,0.0,0.0,0.0,0.0,0.0,0.0,0.0,0.0,0.0,0.0,0.0,0.0,0.0,0.0,0.0,0.0,0.0,0.0,0.0,0.0,0.0,0.0,0.0,0.0,0.0,0.0,0.0,0.0,0.0,0.0,0.0,0.0,0.0,0.0,0.0,0.0,0.0,0.0,0.0,0.0,0.0,0.0,0.0,0.0,0.0,0.0,0.0,0.0,0.0,0.0,0.0,0.0,0.0,0.0,0.0,0.0,0.0,0.0,0.0,0.0,0.0,0.0,0.0,0.0,0.0,0.0,0.0,0.0,0.0,0.0,0.0,0.0,0.0,0.0,0.0,0.0,0.0,0.0,0.0,0.0,0.0,0.0,0.0,0.0,0.0,0.0,3.3835,3.3807,3.3807,3.3807,3.3807,3.3807,3.3807,3.376,3.3643,3.3678,0.0,0.0,0.0,0.0,0.0,0.0,0.0,0.0,0.0,0.0,0.0,0.0,0.0,0.0,0.0,0.0,0.0,0.0,0.0,0.0,0.0,0.0,0.0,0.0,0.0,0.0,0.0,0.0,0.0,0.0,0.0,0.0,0.0,0.0,0.0,0.0,0.0,0.0,0.0,0.0,0.0,0.0,0.0,0.0,0.0,0.0,0.0,0.0,0.0,0.0,0.0,0.0,0.0,0.0,0.0,0.0,0.0,0.0,0.0,0.0,0.0,0.0,0.0,0.0,0.0,0.0,0.0,0.0,0.0,0.0,0.0,0.0,0.0,0.0,0.0,0.0,0.0,0.0,0.0,0.0,0.0,0.0,0.0,0.0,0.0,0.0,0.0,0.0,0.0,0.0,0.0,0.0,0.0,0.0,0.0,0.0,0.0,0.0,0.0,0.0,0.0,0.0,3.3822,3.3807,3.3807,3.3807,3.3807,3.3807,3.3807,3.3746,3.3619,3.3654,0.0,0.0,0.0,0.0,0.0,0.0,0.0,0.0,0.0,0.0,0.0,0.0,0.0,0.0,0.0,0.0,0.0,0.0,0.0,0.0,0.0,0.0,0.0,0.0,0.0,0.0,0.0,0.0,0.0,0.0,0.0,0.0,0.0,0.0,0.0,0.0,0.0,0.0,0.0,0.0,0.0,0.0,0.0,0.0,0.0,0.0,0.0,0.0,0.0,0.0,0.0,0.0,0.0,0.0,0.0,0.0,0.0,0.0,0.0,0.0,0.0,0.0,0.0,0.0,0.0,0.0,0.0,0.0,0.0,0.0,0.0,0.0,0.0,0.0,0.0,0.0,0.0,0.0,0.0,0.0,0.0,0.0,0.0,0.0,0.0,0.0,0.0,0.0,0.0,0.0,0.0,0.0,0.0,0.0,0.0,0.0,0.0,0.0,0.0,0.0,0.0,0.0,3.3795,3.3807,3.3807,3.3807,3.3807,3.3807,3.3807,3.3746,3.3619,3.3605,0.0,0.0,0.0,0.0,0.0,0.0,0.0,0.0,0.0,0.0,0.0,0.0,0.0,0.0,0.0,0.0,0.0,0.0,0.0,0.0,0.0,0.0,0.0,0.0,0.0,0.0,0.0,0.0,0.0,0.0,0.0,0.0,0.0,0.0,0.0,0.0,0.0,0.0,0.0,0.0,0.0,0.0,0.0,0.0,0.0,0.0,0.0,0.0,0.0,0.0,0.0,0.0,0.0,0.0,0.0,0.0,0.0,0.0,0.0,0.0,0.0,0.0,0.0,0.0,0.0,0.0,0.0,0.0,0.0,0.0,0.0,0.0,0.0,0.0,0.0,0.0,0.0,0.0,0.0,0.0,0.0,0.0,0.0,0.0,0.0,0.0,0.0,0.0,0.0,0.0,0.0,0.0,0.0,0.0,0.0,0.0,0.0,0.0,0.0,0.0,0.0,0.0,3.3855,3.3855,0.0,3.3815,3.3807,3.3807,3.3807,3.3766,3.3664,0.0,0.0,0.0,0.0,0.0,0.0,0.0,0.0,0.0,0.0,0.0,0.0,0.0,0.0,0.0,0.0,0.0,0.0,0.0,0.0,0.0,0.0,0.0,0.0,0.0,0.0,0.0,0.0,0.0,0.0,0.0,0.0,0.0,0.0,0.0,0.0,0.0,0.0,0.0,0.0,0.0,0.0,0.0,0.0,0.0,0.0,0.0,0.0,0.0,0.0,0.0,0.0,0.0,0.0,0.0,0.0,0.0,0.0,0.0,0.0,0.0,0.0,0.0,0.0,0.0,0.0,0.0,0.0,0.0,0.0,0.0,0.0,0.0,0.0,0.0,0.0,0.0,0.0,0.0,0.0,0.0,0.0,0.0,0.0,0.0,0.0,0.0,0.0,0.0,0.0,0.0,0.0,0.0,0.0,0.0,0.0,0.0,0.0,0.0,0.0,0.0,0.0,3.3983,3.3908,3.3895,0.0,3.3835,3.3807,3.3807,3.3807,3.3773,3.3698,0.0,0.0,0.0,0.0,0.0,0.0,0.0,0.0,0.0,0.0,0.0,0.0,0.0,0.0,0.0,0.0,0.0,0.0,0.0,0.0,0.0,0.0,0.0,0.0,0.0,0.0,0.0,0.0,0.0,0.0,0.0,0.0,0.0,0.0,0.0,0.0,0.0,0.0,0.0,0.0,0.0,0.0,0.0,0.0,0.0,0.0,0.0,0.0,0.0,0.0,0.0,0.0,0.0,0.0,0.0,0.0,0.0,0.0,0.0,0.0,0.0,0.0,0.0,0.0,0.0,0.0,0.0,0.0,0.0,0.0,0.0,0.0,0.0,0.0,0.0,0.0,0.0,0.0,0.0,0.0,0.0,0.0,0.0,0.0,0.0,0.0,0.0,0.0,0.0,0.0,0.0,0.0,0.0,0.0,0.0,0.0,0.0,0.0,0.0,0.0,0.0,0.0,3.414,3.3977,3.3938,3.3919,3.3854,3.3807,3.3795,3.3795,3.378,0.0,0.0,0.0,0.0,0.0,0.0,0.0,0.0,0.0,0.0,0.0,0.0,0.0,0.0,0.0,0.0,0.0,0.0,0.0,0.0,0.0,0.0,0.0,0.0,0.0,0.0,0.0,0.0,0.0,0.0,0.0,0.0,0.0,0.0,0.0,0.0,0.0,0.0,0.0,0.0,0.0,0.0,0.0,0.0,0.0,0.0,0.0,0.0,0.0,0.0,0.0,0.0,0.0,0.0,0.0,0.0,0.0,0.0,0.0,0.0,0.0,0.0,0.0,0.0,0.0,0.0,0.0,0.0,0.0,0.0,0.0,0.0,0.0,0.0,0.0,0.0,0.0,0.0,0.0,0.0,0.0,0.0,0.0,0.0,0.0,0.0,0.0,0.0,0.0,0.0,0.0,0.0,0.0,0.0,0.0,0.0,0.0,0.0,0.0,0.0,0.0,0.0,0.0,3.5864,3.5826,3.559,3.501,3.4896,3.461,3.3995,3.394,3.3908,3.386,0.0,0.0,0.0,0.0,0.0,0.0,0.0,0.0,0.0,0.0,0.0,0.0,0.0,0.0,0.0,0.0,0.0,0.0,0.0,0.0,0.0,0.0,0.0,0.0,0.0,0.0,0.0,0.0,0.0,0.0,0.0,0.0,0.0,0.0,0.0,0.0,0.0,0.0,0.0,0.0,0.0,0.0,0.0,0.0,0.0,0.0,0.0,0.0,0.0,0.0,0.0,0.0,0.0,0.0,0.0,0.0,0.0,0.0,0.0,0.0,0.0,0.0,0.0,0.0,0.0,0.0,0.0,0.0,0.0,0.0,0.0,0.0,0.0,0.0,0.0,0.0,0.0,0.0,0.0,0.0,0.0,0.0,0.0,0.0,0.0,0.0,0.0,0.0,0.0,0.0,0.0,0.0,0.0,0.0,0.0,0.0,0.0,0.0,0.0,0.0,0.0,0.0,3.6696,3.6614,3.6409,3.5927,3.5812,3.5569,3.5045,3.5002,3.4989,3.4949,0.0,0.0,0.0,0.0,0.0,0.0,0.0,0.0,0.0,0.0,0.0,0.0,0.0,0.0,0.0,0.0,0.0,0.0,0.0,0.0,0.0,0.0,0.0,0.0,0.0,0.0,0.0,0.0,0.0,0.0,0.0,0.0,0.0,0.0,0.0,0.0,0.0,0.0,0.0,0.0,0.0,0.0,0.0,0.0,0.0,0.0,0.0,0.0,0.0,0.0,0.0,0.0,0.0,0.0,0.0,0.0,0.0,0.0,0.0,0.0,0.0,0.0,0.0,0.0,0.0,0.0,0.0,0.0,0.0,0.0,0.0,0.0,0.0,0.0,0.0,0.0,0.0,0.0,0.0,0.0,0.0,0.0,0.0,0.0,0.0,0.0,0.0,0.0,0.0,0.0,0.0,0.0,0.0,0.0,0.0,0.0,0.0,0.0,0.0,0.0,0.0,0.0,3.7027,3.6863,3.6805,3.6737,3.6658,3.6606,3.6513,3.6513,3.6513,3.6507,0.0,0.0,0.0,0.0,0.0,0.0,0.0,0.0,0.0,0.0,0.0,0.0,0.0,0.0,0.0,0.0,0.0,0.0,0.0,0.0,0.0,0.0,0.0,0.0,0.0,0.0,0.0,0.0,0.0,0.0,0.0,0.0,0.0,0.0,0.0,0.0,0.0,0.0,0.0,0.0,0.0,0.0,0.0,0.0,0.0,0.0,0.0,0.0,0.0,0.0,0.0,0.0,0.0,0.0,0.0,0.0,0.0,0.0,0.0,0.0,4.151,0.0,0.0,0.0,0.0,0.0,0.0,0.0,0.0,0.0,0.0,0.0,0.0,0.0,0.0,0.0,0.0,0.0,0.0,0.0,0.0,0.0,0.0,0.0,0.0,0.0,0.0,0.0,0.0,0.0,0.0,0.0,0.0,0.0,0.0,0.0,0.0,0.0,0.0,0.0,0.0,0.0,3.8599,3.8574,3.8319,3.7694,3.7607,3.7352,3.6703,3.6654,3.6627,3.6581,3.6394,0.0,0.0,0.0,0.0,0.0,0.0,0.0,0.0,0.0,0.0,0.0,0.0,0.0,0.0,0.0,0.0,0.0,0.0,0.0,0.0,0.0,0.0,0.0,0.0,0.0,0.0,0.0,0.0,0.0,0.0,0.0,0.0,0.0,0.0,0.0,0.0,0.0,0.0,0.0,0.0,0.0,0.0,0.0,0.0,0.0,0.0,0.0,0.0,0.0,0.0,0.0,0.0,0.0,0.0,0.0,0.0,0.0,0.0,0.0,0.0,4.2093,0.0,0.0,0.0,0.0,0.0,0.0,0.0,0.0,0.0,0.0,0.0,0.0,0.0,0.0,0.0,0.0,0.0,0.0,0.0,0.0,0.0,0.0,0.0,0.0,0.0,0.0,0.0,0.0,0.0,0.0,0.0,0.0,0.0,0.0,0.0,0.0,0.0,0.0,0.0,0.0,3.9101,3.9101,3.8934,3.8525,3.8476,3.8302,3.7894,3.7845,3.7843,3.7797,3.7411,0.0,0.0,0.0,0.0,0.0,0.0,0.0,0.0,0.0,0.0,0.0,0.0,0.0,0.0,0.0,0.0,0.0,0.0,0.0,0.0,0.0,0.0,0.0,0.0,0.0,0.0,0.0,0.0,0.0,0.0,0.0,0.0,0.0,0.0,0.0,0.0,0.0,0.0,0.0,0.0,0.0,0.0,0.0,0.0,0.0,0.0,0.0,0.0,0.0,0.0,0.0,0.0,0.0,4.2959,4.2986,4.3204,4.2977,4.3096,4.3414,4.2817,4.2514,4.2474,0.0,0.0,0.0,0.0,0.0,0.0,0.0,0.0,0.0,0.0,0.0,0.0,0.0,0.0,0.0,0.0,0.0,0.0,0.0,0.0,0.0,0.0,0.0,0.0,0.0,4.3982,4.3061,0.0,0.0,0.0,0.0,0.0,0.0,0.0,0.0,0.0,0.0,0.0,0.0,3.9142,3.9142,3.9135,3.9122,3.9135,3.9135,3.9122,3.9135,3.9142,3.9142,3.8481,3.8076,0.0,0.0,0.0,0.0,0.0,0.0,0.0,0.0,0.0,0.0,0.0,0.0,0.0,0.0,0.0,0.0,0.0,0.0,0.0,0.0,0.0,0.0,0.0,0.0,0.0,0.0,0.0,0.0,0.0,0.0,0.0,0.0,4.3114,4.3293,0.0,0.0,0.0,0.0,0.0,0.0,0.0,0.0,0.0,0.0,0.0,0.0,0.0,0.0,4.3105,4.3274,4.3353,4.3353,4.3501,4.3595,4.3629,4.3577,4.3604,4.3654,4.3562,0.0,4.3257,4.3212,0.0,0.0,0.0,0.0,0.0,0.0,0.0,0.0,0.0,0.0,0.0,0.0,0.0,0.0,0.0,0.0,0.0,0.0,0.0,0.0,0.0,0.0,4.4501,4.4501,4.4414,4.4095,0.0,4.2301,4.1678,4.1518,0.0,0.0,0.0,0.0,0.0,0.0,0.0,0.0,3.9346,3.936,3.9327,3.9197,3.9295,3.9308,3.919,3.9295,3.936,3.936,3.926,3.9197,3.9197,3.9197,0.0,0.0,0.0,0.0,0.0,0.0,0.0,0.0,0.0,0.0,0.0,0.0,0.0,0.0,0.0,0.0,0.0,0.0,0.0,0.0,0.0,0.0,0.0,0.0,0.0,0.0,0.0,0.0,0.0,4.3517,4.3525,4.3775,4.3355,4.3041,0.0,0.0,0.0,0.0,0.0,0.0,0.0,0.0,0.0,4.364,4.3656,4.3721,4.3884,4.3972,4.4022,4.4022,4.3952,4.3991,4.414,4.3983,4.4017,4.414,4.414,4.4102,4.3999,4.3575,4.3284,4.3096,0.0,0.0,0.0,0.0,0.0,4.4037,4.4151,0.0,0.0,0.0,0.0,0.0,0.0,0.0,0.0,0.0,0.0,0.0,0.0,0.0,0.0,4.4501,4.4501,4.4436,4.4189,4.3825,4.3208,0.0,4.1598,4.1327,4.1327,0.0,0.0,0.0,0.0,0.0,3.9398,3.9405,3.9373,3.9315,3.936,3.9391,3.9315,3.9366,3.9405,3.9405,3.9405,3.9405,3.9405,3.9405,3.9366,0.0,0.0,0.0,0.0,0.0,0.0,0.0,0.0,0.0,0.0,0.0,0.0,0.0,0.0,0.0,0.0,0.0,0.0,0.0,0.0,0.0,0.0,0.0,0.0,0.0,0.0,0.0,0.0,4.4022,4.4014,4.4185,4.3815,4.3543,0.0,0.0,0.0,0.0,0.0,0.0,4.3793,4.3669,4.3783,4.4192,4.4199,4.4299,4.4501,4.4695,4.4808,4.4808,4.483,4.495,4.5139,4.4692,4.4613,4.4808,4.4617,4.4524,4.4466,4.3902,4.3642,4.3584,4.3584,4.3667,4.3804,4.403,4.4222,4.4411,4.4487,4.4501,4.4501,4.4501,0.0,4.4515,4.453,0.0,0.0,0.0,0.0,4.4599,4.4599,0.0,4.4612,4.4653,4.4648,4.4694,4.489,4.4924,4.4518,0.0,4.2567,4.2339,4.2339,0.0,0.0,0.0,0.0,4.0077,3.9852,3.9789,3.9675,3.9449,3.9444,3.945,3.9431,3.9444,3.9457,3.9457,3.9457,3.9457,3.9457,3.9457,3.945,3.9431,0.0,0.0,0.0,0.0,0.0,0.0,0.0,0.0,0.0,0.0,0.0,0.0,0.0,0.0,0.0,0.0,0.0,0.0,0.0,0.0,0.0,0.0,0.0,0.0,0.0,0.0,0.0,0.0,0.0,4.4482,4.4341,0.0,0.0,0.0,0.0,4.3679,4.3679,4.3801,4.4079,4.4068,4.4192,4.4461,4.4487,4.4494,4.4501,4.5266,4.5641,4.5641,4.6471,4.6865,4.6854,4.6002,4.5634,4.5592,4.4978,4.4619,4.4501,4.4454,4.4299,4.406,4.406,4.3921,4.3736,4.3999,4.4117,4.4162,4.4411,4.4501,4.4501,4.4501,4.4501,4.4517,4.4652,4.4692,0.0,0.0,4.4877,4.4877,4.4877,4.4877,4.49,4.5043,4.5063,4.5113,4.5246,4.5261,4.5231,0.0,4.4213,4.3506,4.3506,0.0,4.2248,4.23,4.2228,4.1875,4.1105,4.0846,4.0402,3.957,3.9558,3.9552,3.9495,3.9558,3.9602,3.9602,3.9602,3.9602,3.9602,3.9602,3.9565,3.9495,3.9565,0.0,0.0,0.0,0.0,0.0,0.0,0.0,0.0,0.0,0.0,0.0,0.0,0.0,0.0,0.0,0.0,0.0,0.0,0.0,0.0,0.0,0.0,0.0,0.0,0.0,0.0,0.0,0.0,4.4751,4.4557,0.0,4.4367,4.4263,4.4213,4.4213,4.4367,4.4515,4.4615,4.4534,4.4777,4.5386,4.5437,4.5707,4.6228,4.6613,4.6792,4.6792,4.7114,4.7265,4.7246,4.6944,4.6792,4.678,4.6542,4.6404,4.6339,4.5815,4.5162,4.4486,4.4581,4.4556,4.4469,4.4576,4.4602,4.4635,4.4725,4.477,4.477,4.477,4.477,4.4776,4.4808,4.4821,4.4833,4.4883,4.4895,4.4895,4.4895,4.4966,4.5032,4.508,4.5163,4.5275,4.5455,4.5494,4.5519,4.5638,4.513,4.467,4.4633,4.3941,4.3396,4.3375,4.2902,4.2444,4.2179,4.1946,4.1716,4.1396,4.123,4.1141,4.1109,4.1135,4.1129,4.1129,4.1129,4.1174,4.1274,4.1274,4.1304,4.1371,4.14,4.1353,0.0,0.0,0.0,0.0,0.0,0.0,0.0,0.0,0.0,0.0,0.0,0.0,0.0,0.0,0.0,0.0,0.0,0.0,0.0,0.0,0.0,0.0,0.0,0.0,0.0,0.0,4.4943,4.492,4.4783,4.4676,4.4649,4.4624,4.4624,4.4624,4.5067,4.5331,4.5331,4.5514,4.5866,4.6402,4.6453,4.6737,4.7259,4.7617,4.7795,4.7814,4.8098,4.8231,4.8231,4.7947,4.7795,4.7795,4.7562,4.7448,4.7372,4.6915,4.6322,4.5641,4.511,4.4895,4.4895,4.4895,4.4895,4.4895,4.4895,4.4895,4.4895,4.4895,4.4895,4.4901,4.4949,4.4961,4.4985,4.507,4.5098,4.5115,4.5156,4.5232,4.5309,4.5362,4.543,4.5543,4.5698,4.5726,4.5776,4.5907,4.565,4.5398,4.5342,4.489,4.4516,4.4485,4.4015,4.3563,4.3281,4.3051,4.2846,4.256,4.2375,4.2261,4.2208,4.2159,4.2121,4.2134,4.209,4.2128,4.2251,4.2276,4.2299,4.2411,4.2392,4.2497,4.2691,0.0,0.0,0.0,0.0,0.0,0.0,0.0,0.0,0.0,0.0,0.0,0.0,0.0,0.0,0.0,0.0,0.0,0.0,0.0,0.0,0.0,0.0,0.0,4.4943,4.5014,4.5068,4.4919,4.5039,4.5062,4.4957,4.4945,4.4964,4.4983,4.576,4.6259,4.6259,4.6986,4.741,4.7448,4.7448,4.7467,4.7486,4.825,4.8642,4.8667,4.9501,4.9899,4.988,4.9046,4.8642,4.8617,4.7959,4.761,4.7511,4.7741,4.7751,4.7474,4.5683,4.4983,4.4983,4.4964,4.4926,4.4907,4.4907,4.4907,4.4907,4.4913,4.4913,4.4937,4.5091,4.5131,4.5167,4.5438,4.5508,4.554,4.5672,4.5708,4.5742,4.5873,4.59,4.5912,4.5983,4.5999,4.5999,4.5999,4.5793,4.5619,4.5615,4.5615,4.5603,4.5617,4.5607,0.0,4.4453,4.4165,4.3754,4.2976,4.2876,4.2827,4.2707,4.2563,4.2484,4.2479,4.2363,4.2351,4.2487,4.2473,4.2492,4.2498,4.2492,4.289,4.375,0.0,0.0,0.0,0.0,0.0,0.0,0.0,0.0,0.0,0.0,0.0,0.0,0.0,0.0,0.0,0.0,0.0,0.0,0.0,0.0,0.0,0.0,4.5262,4.5197,4.5213,4.5224,4.5192,4.5213,4.5453,4.6006,4.6058,4.6325,4.6954,4.7221,4.7354,4.7354,4.7474,4.7807,4.8403,4.8453,4.8776,4.9353,4.9675,4.9838,4.9838,5.0086,5.0194,5.0175,4.9934,4.9838,4.9819,4.9645,4.9531,4.9469,4.8942,4.8724,4.8581,4.7448,4.6992,4.6935,4.6286,4.5695,4.5186,4.5186,4.5186,4.5208,4.5291,4.5331,4.5361,4.5498,4.5538,4.5552,4.5616,4.5651,4.564,4.5696,4.5772,4.5843,4.5893,4.5934,4.5972,4.5994,4.5999,4.5999,4.5999,4.5942,4.5898,4.5896,4.589,4.588,4.5825,4.5828,0.0,4.5496,4.5275,4.508,4.4853,4.4696,4.4609,4.4566,4.4425,4.4361,4.4364,4.4223,4.4219,4.4353,4.4359,4.4398,4.4505,4.4404,4.4473,0.0,0.0,0.0,0.0,0.0,0.0,0.0,0.0,0.0,0.0,0.0,0.0,0.0,0.0,0.0,0.0,0.0,0.0,0.0,0.0,0.0,0.0,4.5966,4.61,4.6455,4.6102,4.5825,4.5921,4.6237,4.6646,4.7151,4.7218,4.7424,4.7918,4.8302,4.8513,4.8513,4.8769,4.9116,4.9584,4.9633,4.9882,5.0344,5.0434,5.0466,5.0466,5.0466,5.0466,5.0466,5.0466,5.0466,0.0,5.0466,5.0466,5.0432,4.9953,4.9766,0.0,0.0,0.0,0.0,0.0,4.6911,4.6513,4.6513,4.6278,4.598,4.6067,4.5862,4.5605,4.5684,4.5704,4.5715,4.5769,4.5783,4.5794,4.5821,4.588,4.5943,4.5943,4.5964,4.5999,4.5999,4.5999,4.5999,4.5999,0.0,0.0,4.5997,4.5994,4.5986,4.5955,4.5941,4.5944,0.0,4.5835,4.5773,4.5773,4.5656,4.5576,4.5543,4.5426,0.0,0.0,0.0,4.522,4.5351,4.5356,0.0,0.0,0.0,4.5356,4.5351,0.0,0.0,0.0,4.5145,4.5091,0.0,0.0,0.0,0.0,0.0,0.0,0.0,0.0,0.0,0.0,0.0,0.0,0.0,0.0,0.0,0.0,4.7058,4.7309,4.8093,4.7401,4.6864,4.6958,4.7592,4.8109,4.8332,4.8344,4.8383,4.8479,4.9204,4.9639,4.9639,0.0,0.0,0.0,0.0,5.07,5.07,5.07,5.07,5.07,5.07,5.07,5.07,5.07,5.07,5.07,5.07,5.07,5.07,5.07,5.07,5.0524,4.8804,4.8146,4.8183,4.8298,4.8286,0.0,0.0,0.0,0.0,4.7055,4.6596,4.5982,4.5916,4.5881,4.5885,4.5909,4.5916,4.5918,4.598,4.5999,4.5999,4.5999,4.5999,4.5999,4.5999,4.5999,4.5999,4.5999,4.5999,4.5999,4.5999,4.5999,4.5991,4.6006,4.6003,0.0,4.6006,4.6005,4.5999,4.5999,0.0,0.0,4.5922,4.5807,4.5726,4.5727,4.56,4.5584,4.5704,4.5704,4.5704,4.5704,4.5704,4.5704,4.5704,4.5704,4.5704,4.57,4.5336,4.5221,0.0,0.0,0.0,0.0,0.0,0.0,0.0,0.0,0.0,0.0,0.0,0.0,0.0,0.0,0.0,4.7795,4.7954,4.8012,4.819,4.8617,4.8668,4.8009,4.8071,4.8446,4.9181,4.9258,4.9528,5.0165,5.0372,5.0469,5.0469,5.0623,0.0,5.07,5.07,5.07,5.07,5.07,5.07,5.07,0.0,0.0,5.07,5.07,5.07,5.07,5.07,5.07,5.07,5.07,5.07,5.0657,5.0296,4.9752,4.9204,4.9249,4.8799,4.8209,4.8209,4.8093,4.797,4.8066,4.7999,4.7764,4.7165,4.6992,0.0,4.6164,4.5975,4.598,4.5997,4.5999,4.5999,4.5999,4.5999,4.5999,4.5999,4.5999,4.5999,4.5999,4.5999,4.5999,4.5999,4.5999,4.5999,4.5994,4.5997,4.5999,4.5994,4.5997,4.5999,4.5999,4.5999,4.5994,4.5978,4.5915,4.5857,4.5866,4.5746,4.5669,4.5704,4.5704,4.5704,4.5704,4.5704,4.5704,4.5704,4.5704,4.5704,4.5704,4.5616,4.5595,0.0,0.0,0.0,0.0,0.0,0.0,0.0,0.0,0.0,0.0,0.0,4.6591,0.0,0.0,4.8005,4.8944,4.9108,4.9244,4.9691,5.0134,5.0031,4.9076,4.9343,4.9807,5.0308,5.035,5.0525,5.0928,5.0947,5.0947,5.0947,5.0944,5.0948,5.0951,5.0948,5.0948,5.0947,5.0947,5.0947,5.0947,5.0947,5.0947,5.0947,5.0947,5.0949,5.0945,5.0945,5.0966,5.0998,5.0998,5.0998,5.0998,5.0998,5.0692,5.0267,5.0328,5.0083,4.9699,4.9699,4.9412,4.9051,4.9123,4.8864,4.8424,4.8061,4.7958,4.7861,4.7417,4.7008,4.6698,4.6698,4.6406,4.6096,4.6096,4.6096,4.6096,4.6096,4.6096,4.6096,4.6096,4.6096,4.6096,4.6096,4.6096,4.608,4.601,4.5999,4.5999,4.5999,4.5999,4.5999,4.5999,4.5999,4.5999,4.5999,4.5961,4.5966,4.5997,4.5935,4.5923,4.5955,4.5955,4.5955,4.5955,4.5955,4.5955,4.5955,4.5955,4.5955,4.5955,4.5955,4.5867,0.0,0.0,0.0,0.0,0.0,0.0,0.0,0.0,4.6385,4.72,4.736,4.7664,4.8626,4.8796,4.9104,5.0085,5.0248,5.0502,5.1203,5.13,5.0983,5.0109,5.0623,5.1095,5.1209,5.1217,5.1217,5.1217,5.1217,5.1217,5.1217,5.122,5.1225,5.1217,5.1223,5.1223,5.1217,5.1217,5.1217,5.1217,5.1217,5.1217,5.1217,5.1217,5.1222,5.1225,5.1225,5.1245,5.13,5.13,5.13,5.13,5.13,5.1198,5.1072,5.1169,5.1217,5.1217,5.1217,5.0753,5.0173,5.0173,4.9706,4.9081,4.8926,4.8868,4.8848,4.8673,4.8159,4.7642,4.7642,4.7165,4.6647,4.647,4.6431,4.6392,4.6236,4.6197,4.6197,4.6197,4.6197,4.6197,4.6197,4.6197,4.6158,4.6064,4.6032,4.6032,4.6032,4.6032,4.6032,4.6032,4.6032,4.6032,4.6032,4.6032,4.6068,4.6126,4.6128,4.6144,4.6196,4.6197,4.6197,4.6197,4.6197,4.6197,4.6197,4.6197,4.6197,4.6197,4.636,4.621,4.5386,4.5482,4.5571,4.5575,4.6254,4.69,0.0,0.0,4.8147,4.8316,4.8334,4.8647,4.9644,4.9829,5.0124,5.1006,5.1145,5.1183,5.13,5.13,5.1255,5.1142,5.1215,5.1278,5.1284,5.1284,5.1284,5.1284,5.1284,5.1284,5.1284,5.129,5.129,5.1284,5.129,5.129,5.1284,5.1284,5.1284,5.1284,5.1284,5.1284,5.1284,5.1284,5.1288,5.1292,5.1292,5.1294,5.13,5.13,5.13,5.13,5.13,5.1288,5.1276,5.1282,5.1284,5.1284,5.1284,5.1228,5.115,5.115,5.1072,5.0858,5.0079,4.9845,4.967,4.8916,4.8627,4.8553,4.8553,4.8498,4.8227,4.7444,4.7269,4.7074,4.6353,4.6197,4.6197,4.6197,4.6197,4.6197,4.6197,4.6197,4.6196,4.6187,4.6185,4.6185,4.6185,4.6185,4.6185,4.6185,4.6185,4.6185,4.6185,4.6185,4.6187,4.6192,4.6192,4.6194,4.6197,4.6197,4.6197,4.6197,4.6197,4.6197,4.6197,4.6197,4.6197,4.6219,4.6989,4.6921,4.565,4.5729,4.5896,4.6403,4.6841,4.7306,4.7899,4.8304,4.8738,4.9315,4.9424,4.9703,5.0638,5.0816,5.0933,0.0,5.1362,5.1362,5.1362,5.1362,5.1362,5.1362,5.1362,5.1348,5.1304,5.13,5.13,5.13,5.13,5.13,5.13,5.134,5.1344,5.13,5.1342,5.1342,5.13,5.13,5.13,5.13,5.13,5.13,5.13,5.13,5.1312,5.1354,5.1355,5.1362,5.1362,5.1362,5.1362,5.1362,5.1362,5.1362,5.1358,5.1317,5.13,5.13,5.13,5.13,5.13,5.13,5.13,5.1222,5.0872,5.0755,5.0677,5.0328,4.9879,4.9505,4.9505,4.9148,4.8673,4.8301,4.8203,4.8125,4.7795,4.7345,4.7012,4.7012,4.6604,4.6253,4.6253,4.6253,4.6253,4.6253,4.6224,4.6197,4.6197,4.6197,4.6197,4.6197,4.6197,4.6197,4.6197,4.6197,4.6206,4.6207,4.6209,4.6216,4.6253,4.6253,4.6253,4.6253,4.6253,4.6253,4.6253,4.6779,4.7012,4.7033,4.7863,4.8057,4.6213,4.646,4.6822,4.7464,4.7818,4.8187,4.8927,4.9271,4.9634,5.0314,5.0456,5.0652,5.1277,5.1394,5.1394,5.1394,5.1394,5.1394,5.1394,5.1394,5.1394,5.1394,5.1394,5.1381,5.1336,5.1331,5.1331,5.1331,5.1331,5.1331,5.1331,5.1375,5.1376,5.1333,5.1375,5.1376,5.1331,5.1331,5.1331,5.1331,5.1331,5.1331,5.1331,5.1331,5.1346,5.1407,5.1407,5.1394,5.1394,5.1394,5.1394,5.1394,5.1394,5.1394,5.139,5.1351,5.1331,5.1331,5.1331,5.1331,5.1331,5.1331,5.1331,5.1331,5.1331,5.1331,5.1331,5.1331,5.0902,5.0452,5.0452,4.9997,4.9462,4.9228,4.9169,4.9093,4.8847,4.8341,4.7933,4.7939,4.7413,4.6905,4.6671,4.6632,4.6553,4.6319,4.6254,4.6221,4.6228,4.6227,4.6227,4.6227,4.6227,4.6227,4.6227,4.6227,4.6235,4.6237,4.6238,4.6246,4.63,4.6301,4.6301,4.6301,4.6534,4.6651,4.6651,4.7509,4.7938,4.7958,4.8778,4.9169,4.7165,4.7866,4.8615,4.8654,4.9345,5.0023,5.0044,5.0708,5.1334,5.1355,5.1355,5.1375,5.1394,5.1394,5.1394,5.1394,5.1394,5.1394,5.1394,5.1394,5.1394,5.1394,5.1394,5.1393,0.0,5.1392,5.1392,5.1392,5.1392,5.1392,5.1392,5.1393,5.1393,5.1392,5.1393,5.1393,5.1392,5.1392,5.1392,5.1392,5.1392,5.1392,5.1392,5.1392,5.1392,5.1393,5.1394,5.1394,5.1394,5.1394,5.1394,5.1394,5.1394,5.1394,5.1394,5.1392,5.1392,5.1392,5.1392,5.1392,5.1392,5.1392,5.1392,5.1392,5.1392,5.1392,5.1392,5.1392,5.1373,5.1354,5.1354,5.1335,5.1102,5.026,5.0065,4.9839,4.898,4.8787,4.8769,4.8764,4.8741,4.8468,4.761,4.7454,4.7181,4.6322,4.6269,4.6302,4.6302,4.6299,4.6299,4.6299,4.6299,4.6299,4.6299,4.6299,4.6299,4.63,4.63,4.63,4.6301,4.6301,4.6301,4.6301,4.7138,4.7568,4.7568,4.8369,4.8759,4.8779,4.9656,5.0065,4.8122,4.8509,4.8913,4.9478,4.988,5.0241,5.0827,5.1199,5.1394,5.1394,5.1863,5.2254,5.2254,5.2254,5.2254,5.2254,5.2254,5.2254,5.2254,5.2761,5.3132,5.3132,5.3132,0.0,0.0,0.0,0.0,5.1394,5.1391,5.1399,5.1399,5.1399,5.1399,5.1399,5.1404,5.1394,5.1394,5.1394,5.1394,5.1394,5.1394,5.1394,5.1394,5.1394,5.1394,5.1394,5.1394,5.1394,5.1394,5.1394,5.1394,5.1394,5.1394,5.1394,5.1394,5.1394,5.1394,5.1394,5.1394,5.1394,5.1394,5.1394,5.1394,5.1394,5.1394,5.1394,5.1394,5.1394,5.1394,5.1394,5.1394,5.1394,5.1336,5.1022,5.0964,5.0889,5.0586,5.006,4.9657,4.9668,4.9197,4.8707,4.8418,4.8359,4.8261,4.7961,4.6992,4.6303,4.6304,4.6301,4.6301,4.6301,4.6301,4.6301,4.6301,4.6301,4.6301,4.6301,4.6301,4.6554,4.7138,4.7158,4.7412,4.7959,4.8252,4.8408,4.8408,4.9246,4.9656,4.9676,5.0554,5.0964,4.9129,4.9481,4.9852,5.0417,5.0554,5.071,5.1277,5.1394,5.1394,5.1394,5.2098,5.2703,5.2703,5.2703,5.2801,5.3113,5.2898,5.2801,5.3113,5.3659,5.401,5.401,5.401,5.401,0.0,0.0,0.0,5.2327,5.2338,5.2186,5.1873,5.1851,5.1711,5.1418,5.1393,5.1409,5.1409,5.1397,5.1399,5.1399,5.1399,5.1399,5.1399,5.1399,5.1556,5.183,5.183,5.2006,5.2299,5.2299,5.2299,5.2298,5.2311,5.2327,5.2326,5.2335,5.2331,5.2234,5.1629,5.1394,5.1394,5.1394,5.1394,5.1394,5.1394,5.1394,5.1394,5.1394,5.1394,5.1394,5.1394,5.1403,5.1409,5.1409,5.1395,5.1381,5.1365,5.0917,5.0527,5.052,5.0075,4.9588,4.9288,4.8994,4.8797,4.8808,4.7886,4.7187,4.7183,4.7183,4.7183,4.7183,4.7197,4.7193,4.7193,4.7184,4.7198,4.7198,4.7198,4.7432,4.8017,4.8036,4.827,4.8798,4.9111,4.9266,4.9266,5.0144,5.0554,5.0574,5.114,5.1394,5.0143,5.0769,5.1394,5.1394,5.1395,5.1396,5.1396,5.1396,5.1396,5.1396,5.2099,5.2703,0.0,0.0,5.2996,5.3912,5.3347,5.3075,5.3934,5.409,5.413,0.0,0.0,0.0,0.0,0.0,0.0,5.412,0.0,5.3632,5.2812,5.2762,5.2379,5.1558,5.1537,5.1522,5.1522,5.1521,5.1535,5.1535,5.1535,5.1535,5.1535,5.1535,5.1945,5.2666,5.2666,5.3134,5.3895,5.3895,5.3895,5.3916,5.3965,5.3983,5.3982,5.3986,5.3995,5.3761,5.2102,5.1534,5.1531,5.1531,5.1492,5.1472,5.1472,5.1434,5.1396,5.1396,5.1398,5.1399,5.1399,5.1396,5.1405,5.1405,5.1405,5.1374,5.131,5.1303,5.1291,5.1298,5.1304,5.1031,5.0213,4.9436,4.8925,4.8927,4.8939,4.8896,4.8819,4.8801,4.8801,4.88,4.8808,4.8806,4.8807,4.8794,4.8798,4.8798,4.8798,4.8818,4.8857,4.8876,4.8896,4.8935,4.9754,5.0163,5.0163,5.1003,5.1394,5.1394,5.1394,5.1394,5.0886,5.1238,5.1394,5.1394,5.1391,5.1401,5.1401,5.1401,5.1401,5.1401,5.2093,5.2898,0.0,0.0,0.0,5.4714,5.4244,0.0,5.4778,5.5443,0.0,5.5859,0.0,5.5859,5.5859,5.5867,0.0,0.0,5.4661,5.3822,5.3606,5.3593,5.3499,5.3264,5.3253,5.3257,5.3257,5.3253,5.3251,5.3251,5.3251,5.3251,5.3251,5.3251,5.3368,5.3563,5.3563,5.368,5.3895,5.3895,5.3895,5.3895,5.3919,5.3921,5.3921,5.3924,5.3925,5.3866,5.3417,5.3297,5.3346,5.3346,5.2897,5.2371,5.2371,5.1917,5.1401,5.1401,5.1405,5.1406,5.1406,5.1405,5.1403,5.1403,5.1401,5.1397,5.1373,5.1372,5.1365,5.1312,5.1304,5.1226,5.1011,5.0797,5.0652,5.0662,5.067,5.0206,4.8964,4.8805,4.8802,4.8808,4.8802,4.8796,4.8806,4.8794,4.8798,4.8798,4.8798,4.9091,4.9734,4.9773,5.0066,5.0711,5.0965,5.1062,5.1062,5.1297,5.1394,5.1394,5.1394,5.1394,5.1277,5.1404,5.1394,5.1359,5.1367,5.1364,5.1364,5.1366,5.1367,5.1385,5.2097,5.2846,5.3291,5.3016,0.0,0.0,0.0,0.0,5.5564,5.6149,5.6458,0.0,5.6415,0.0,5.6414,5.6416,5.6406,0.0,5.5555,5.4867,5.4496,5.4474,5.4306,5.3914,5.3898,5.3893,5.3896,5.3864,5.3858,5.3859,5.3824,5.3816,5.3816,5.3816,5.4011,5.438,0.0,5.4575,5.4906,5.4906,5.4906,5.491,5.4932,5.4941,5.4944,5.4943,5.4947,5.4946,5.4946,5.4987,5.4882,5.4198,5.363,5.3239,5.3239,5.289,5.2499,5.2499,5.2223,5.1925,5.1925,5.1646,5.1366,5.1366,5.1355,5.1364,5.1364,5.1364,5.1338,5.1315,5.131,5.1284,5.127,5.1266,5.125,5.1227,5.1248,5.0913,4.997,4.9873,4.9896,4.9905,4.9899,4.9902,4.9941,4.9937,4.9944,4.9931,4.993,5.0165,5.0652,5.0671,5.0905,5.1394,5.1394,5.1394,5.1394,5.1394,5.1394,5.1394,5.1394,5.1394,5.1382,5.1398,5.1367,5.1306,5.1289,5.1285,5.1285,5.1289,5.1305,5.1367,5.2005,5.2547,5.2598,5.2558,5.3085,5.4821,0.0,5.4454,5.6148,5.6398,5.6368,5.6294,5.6287,5.6285,5.6285,5.6294,5.6298,5.6298,5.6391,5.6134,5.537,5.5331,5.4994,5.423,5.4202,5.4219,5.4204,5.4156,5.4113,5.4119,5.4062,5.4032,5.4032,5.4032,5.4443,5.5162,0.0,0.0,5.6194,5.6194,5.6194,5.6204,5.6267,5.6298,5.6286,5.6289,5.6289,5.6285,5.6285,5.6285,5.6064,5.4678,5.4143,5.4045,5.4045,5.3965,5.3865,5.3865,5.3336,5.2749,5.2749,5.2183,5.1591,5.1475,5.1459,5.1419,5.1302,5.1263,5.1263,5.1263,5.1263,5.125,5.1206,5.1198,5.1163,5.1111,5.1152,5.1195,5.1195,5.1247,5.1285,5.1296,5.1289,5.1308,5.1368,5.1365,5.1366,5.1374,5.1372,5.1372,5.1372,5.1372,5.137,5.1386,5.1386,5.1384,5.1398,5.1398,5.1398,5.1398,5.1398,5.1398,5.1327,5.1328,5.1305,5.1232,5.1223,5.122,5.122,5.1214,0.0,5.1303,5.1476,5.1835,5.2558,5.2066,5.2322,5.4716,5.4329,5.4341,5.608,5.6325,5.6298,0.0,5.6227,5.6227,5.6227,5.6212,0.0,0.0,0.0,5.6194,5.6039,5.6033,5.5964,5.5806,5.5791,5.5796,5.5801,5.5789,5.5783,5.5786,5.5773,5.5767,5.5767,5.5767,5.5845,5.5981,0.0,0.0,5.6194,5.6194,5.6194,5.6197,5.6213,5.6223,5.6223,5.6221,5.6227,5.6227,5.6227,5.6227,5.6175,5.5963,5.5406,5.4818,5.4818,5.432,5.3732,5.3732,5.3633,5.3508,5.3508,5.34,5.3097,5.2378,5.2208,5.2003,5.1289,5.1134,5.1134,5.1134,5.1134,5.1131,5.112,5.112,5.1114,5.1105,5.1117,5.1128,5.1128,5.1187,5.1213,5.1222,5.1213,5.1229,5.1234,5.124,5.1227,5.1233,5.1233,5.1233,5.1233,5.1233,5.1268,5.1326,5.1326,5.1348,5.1395,5.1395,5.1395,5.1395,5.1395,5.1395,5.1328,5.1277,5.1225,5.117,5.1128,5.1103,5.1103,0.0,0.0,5.1234,5.1274,5.1409,5.1806,5.1534,5.1911,5.398,5.3971,5.4278,5.5954,5.6197,5.6165,5.6106,5.6094,5.6094,0.0,5.6094,0.0,0.0,0.0,5.6132,5.6191,5.6194,5.6194,5.6194,5.6194,5.6194,5.6194,5.6177,5.6156,5.6156,5.6117,5.6094,5.6094,5.6094,5.6094,5.6094,5.6094,0.0,5.6094,5.6094,5.6094,5.6094,5.6094,5.6094,5.6094,5.6094,5.6094,5.6094,5.6094,5.6094,5.6094,5.6126,5.5906,5.5619,5.5619,5.5338,5.4991,5.4991,5.471,5.4385,5.4385,5.4032,5.3585,5.3177,5.308,5.2964,5.2536,5.209,5.1779,5.1779,5.141,5.109,5.1056,5.105,5.1037,5.1,5.0993,5.0993,5.0993,5.1023,5.1067,5.1146,5.1142,5.1165,5.1191,5.1201,5.1209,5.1196,5.1198,5.1198,5.1198,5.1198,5.1212,5.1256,5.1256,5.1266,5.1299,5.1299,5.1299,5.1299,5.1299,5.1299,5.13,5.1238,5.1167,5.1078,5.1021,5.0976,5.0976,5.1037,5.1103,5.1164,5.1176,5.1164,5.1128,5.1142,5.1619,0.0,5.3507,5.4151,5.5618,5.5978,5.6067,0.0,5.6008,0.0,5.6008,0.0,0.0,0.0,0.0,0.0,5.6141,5.6167,5.6167,5.6167,5.6167,5.6167,5.6167,5.6106,5.6075,5.6071,5.6022,5.6008,5.6008,5.6008,5.6008,5.6008,5.6008,0.0,0.0,5.6008,5.6008,5.6008,5.6008,5.6008,5.6008,5.6008,5.6008,5.6008,5.6008,5.6008,5.6008,5.6008,5.6064,5.6167,5.6167,5.6167,5.6167,5.6167,5.5701,5.5213,5.5213,5.4708,5.4142,5.399,5.3796,5.366,5.366,5.3113,5.2648,5.2648,5.2085,5.1606,5.1548,5.1538,5.1458,5.1204,5.1173,5.1115,5.0917,5.0898,5.0948,5.1047,5.1059,5.1074,5.1127,5.1132,5.114,5.1135,5.1139,5.1139,5.1139,5.1139,5.1146,5.1185,5.1185,5.1192,5.1208,5.1208,5.1304,5.1479,5.1479,5.1575,5.1237,5.1156,5.1075,5.0958,5.0902,5.091,5.091,0.0,5.1024,5.1103,5.1103,5.1131,5.1173,5.1106,0.0,0.0,0.0,5.3851,5.4787,5.5556,5.6016,5.6008,0.0,0.0,5.6008,0.0,0.0,0.0,0.0,0.0,5.6014,5.6014,5.6014,5.6014,5.6014,5.6014,5.6014,5.6005,5.6001,5.6001,5.5993,5.6008,5.6008,5.6008,5.6008,5.6008,0.0,0.0,0.0,5.6008,5.6008,5.6008,5.6008,5.6008,5.6008,5.6008,5.6008,5.6008,5.6008,5.6008,5.6008,5.6008,5.602,5.6014,5.6014,5.6014,5.6014,5.6014,5.5975,5.5917,5.5917,5.5859,5.5608,5.4872,5.4083,5.3522,5.3522,5.3464,5.3406,5.3406,5.3328,5.329,5.3262,5.3278,5.3007,5.2206,5.207,5.1796,5.0999,5.0898,5.0906,5.0921,5.0921,5.0929,5.094,5.0921,5.0925,5.0936,5.0936,5.0936,5.0936,5.0936,5.0984,5.1106,5.1109,5.114,5.1207,5.1207,5.1614,5.2389,5.2389,5.2779,5.1174,5.1092,5.1018,5.0913,5.0898,5.0898,5.0898,0.0,5.0943,5.097,5.0986,5.099,5.1018,5.0983,5.1223,5.2101,5.2941,0.0,5.4677,5.5485,5.6008,5.6008,5.6008,0.0,0.0,0.0,0.0,0.0,0.0,0.0,5.6008,5.6008,5.6008,5.6008,5.6008,5.6008,5.6008,5.6008,5.6008,5.6008,5.6008,5.6008,5.6008,5.6008,5.6008,5.6008,0.0,0.0,0.0,5.6008,5.6008,5.6008,5.6008,5.6008,5.6008,5.6008,5.6008,5.6008,5.6008,5.6008,5.6008,5.6008,5.6008,5.6008,5.6008,5.6008,5.6008,5.6008,5.6008,5.6008,5.6008,5.6008,5.5911,5.5601,5.5258,5.5006,5.5006,5.4619,5.4271,5.4271,5.3865,5.3502,5.3502,5.3502,5.3386,5.3037,5.2979,5.2863,5.2511,5.2453,5.2453,5.2453,5.1521,5.0898,5.0898,5.0898,5.0898,5.0898,5.0898,5.0898,5.0898,5.1405,5.1711,5.1754,5.2278,5.2558,5.2576,5.2576,5.2767,5.3097,5.3097,5.3272,5.1162,5.1056,5.0951,5.0914,5.0898,5.0898,5.0898,0.0,5.0898,5.0898,5.0898,5.0898,5.0898,5.0898,5.1095,5.1718,5.2554,5.3424,5.4291,5.5122,5.5737,5.5969,0.0,0.0,0.0,0.0,0.0,0.0,0.0,0.0,0.0,5.6008,5.6008,5.6008,5.6008,5.6008,5.6008,5.6008,5.6008,5.6008,5.6008,5.6008,5.6008,5.6008,5.6008,5.6008,0.0,0.0,0.0,5.6008,5.6008,5.6008,5.6008,5.6008,5.6008,5.6008,5.6008,5.6008,5.6008,5.6008,5.6008,5.6008,5.6008,5.6008,5.6008,5.6008,5.6008,5.6008,5.6008,5.6008,5.6008,5.6008,5.6008,5.6008,5.6008,5.6008,5.6008,5.5543,5.5142,5.5142,5.4658,5.4233,5.4233,5.4233,5.4155,5.3923,5.3884,5.3788,5.354,5.3502,5.3502,5.3502,5.2395,5.1676,5.1676,5.1676,5.1676,5.1676,5.1676,5.1676,5.1676,5.226,5.2573,5.2573,5.3192,5.3502,5.3502,5.3502,5.3637,5.3884,5.3884,5.4,5.1191,5.1056,5.0902,5.0898,5.0898,5.0898,5.0898,5.0898,5.0898,5.0898,5.0898,5.0898,5.0898,5.0898,5.0898,5.0917,5.1641,0.0,5.3386,5.4252,5.5103,0.0,0.0,0.0,0.0,0.0,0.0,0.0,0.0,0.0,0.0,5.6008,5.6008,5.6008,5.6008,5.6008,5.6008,5.6008,5.6008,5.6008,5.6008,5.6008,5.6008,5.6008,5.6008,0.0,0.0,0.0,0.0,5.6008,5.6008,5.6008,5.6008,5.6008,5.6008,5.6008,5.6008,5.6008,5.6008,5.6008,5.6008,5.6008,5.6008,5.6008,5.6008,5.6008,5.6008,5.6008,5.6008,5.6008,5.6008,5.6008,5.6008,5.6008,5.6008,5.6008,5.6008,5.5988,5.5988,5.5988,5.5988,5.5969,5.5969,5.5969,5.5698,5.4909,5.4793,5.4465,5.3618,5.3502,5.3502,5.3502,5.3482,5.3463,5.3463,5.3463,5.3463,5.3463,5.3463,5.3463,5.3463,5.3482,5.3482,5.3482,5.3502,5.3502,5.3502,5.3502,5.3942,5.4793,5.4793,5.5219,5.1203,5.1114,5.104,5.104,5.0961,5.0898,5.0898,5.0898,5.0898,5.0898,5.0898,5.0898,5.0898,5.0898,5.0898,5.0898,5.1621,5.2496,0.0,0.0,0.0,5.5892,5.6008,0.0,0.0,0.0,0.0,0.0,0.0,0.0,0.0,5.6008,5.6008,5.6008,5.6008,5.6008,5.6008,5.6008,5.6008,5.6008,5.6008,5.6008,5.6008,5.6008,0.0,0.0,0.0,0.0,0.0,5.6008,5.6008,5.6008,5.6008,5.6008,5.6008,5.6008,5.6008,5.6008,5.6008,5.6008,5.6008,5.6008,5.6008,5.6008,5.6008,5.6008,5.6008,5.6008,5.6008,5.6008,5.6008,5.6008,5.6008,5.6008,5.6008,5.6008,5.6008,5.6008,5.6008,5.6008,5.6008,5.6008,5.6008,5.6008,5.5911,5.5659,5.5621,5.5524,5.5234,5.5219,5.5219,5.5219,5.5219,5.4735,5.3598,5.3502,5.3502,5.3502,5.3502,5.3502,5.3502,5.4078,5.4387,5.4387,5.4929,5.5219,5.5219,5.5219,5.535,5.5621,5.5621,5.5756,5.1262,5.1187,5.1149,5.1149,5.1059,5.0972,5.0972,5.0944,5.0898,5.0898,5.0898,5.0898,5.0898,5.0898,5.0898,5.0898,5.1366,5.2008,0.0,0.0,0.0,5.5408,0.0,0.0,0.0,0.0,0.0,0.0,0.0,0.0,0.0,0.0,5.6008,5.6008,5.6008,5.6008,5.6008,5.6008,5.6008,5.6008,5.6008,5.6008,5.6008,5.6008,0.0,0.0,0.0,0.0,0.0,5.6008,5.6008,5.6008,5.6008,5.6008,5.6008,5.6008,5.6008,5.6008,5.6008,5.6008,5.6008,5.6008,5.6008,5.6008,5.6008,5.6008,5.6008,5.6008,5.6008,5.6008,5.6008,5.6008,5.6008,5.6008,5.6008,5.6008,5.6008,5.6008,5.6008,5.6008,5.6008,5.6008,5.6008,5.6008,5.6008,5.6008,5.6008,5.6008,5.6008,5.6008,5.6008,5.6008,5.6008,5.5582,5.4523,5.4445,5.4445,5.4445,5.4445,5.4445,5.4445,5.4967,5.5258,5.5258,5.5737,5.6008,5.6008,5.6008,5.6008,5.6008,5.6008,5.6008,0.0,5.1265,5.1211,5.1211,5.1155,5.1102,5.1102,5.0993,0.0,5.0898,5.0898,5.0898,5.0898,5.0898,5.0898,5.0898,5.0898,5.1192,0.0,5.2244,0.0,0.0,0.0,0.0,0.0,0.0,0.0,0.0,0.0,0.0,0.0,0.0,5.5814,5.5814,5.5872,5.593,5.6008,5.6008,5.6008,5.6008,5.6008,5.6008,5.6008,5.6008,0.0,0.0,0.0,0.0,0.0,5.6008,5.6008,5.6008,5.6008,5.6008,5.6008,5.6008,5.6008,5.6008,5.6008,5.6008,5.6008,5.6008,5.6008,5.6008,5.6008,5.6008,5.6008,5.6008,5.6008,5.6008,5.6008,5.6008,5.6008,5.6008,5.6008,5.6008,5.6008,5.6008,5.6008,5.6008,5.6008,5.6008,5.6008,5.6008,5.6008,5.6008,5.6008,5.6008,5.6008,5.6008,5.6008,5.6008,5.6008,5.6008,5.6008,5.6008,5.6008,5.6008,5.6008,5.6008,5.6008,5.6008,5.6008,5.6008,5.6008,5.6008,5.6008,5.6008,5.6008,5.6008,5.6008,5.6008,5.1386,0.0,5.128,5.128,5.1185,5.1102,0.0,5.0993,5.0898,5.0898,5.0898,5.0898,5.0898,5.0898,5.0898,5.0898,5.0898,5.1192,5.207,0.0,0.0,0.0,0.0,0.0,0.0,0.0,0.0,0.0,0.0,0.0,0.0,0.0,5.4097,5.4097,5.4735,5.5374,5.5988,5.6008,5.6008,5.6008,5.6008,5.6008,5.6008,5.6008,0.0,0.0,0.0,0.0,5.6008,5.6008,5.6008,5.6008,5.6008,5.6008,5.6008,5.6008,5.6008,5.6008,5.6008,5.6008,5.6008,5.6008,5.6008,5.6008,5.6008,5.6008,5.6008,5.6008,5.6008,5.6008,5.6008,5.6008,5.6008,5.6008,5.6008,5.6008,5.6008,5.6008,5.6008,5.6008,5.6008,5.6008,5.6008,5.6008,5.6008,5.6008,5.6008,5.6008,5.6008,5.6008,5.6008,5.6008,5.6008,5.6008,5.6008,5.6008,5.6008,5.6008,5.6008,5.6008,5.6008,5.6008,5.6008,5.6008,5.6008,5.6008,5.6008,5.6008,5.6008,5.6008,5.6008,5.6008,5.1406,5.1365,5.1358,5.1358,5.1252,5.1142,5.1142,5.1024,5.0898,5.0898,5.0898,5.0898,5.0898,5.0898,5.0898,5.0898,5.0898,0.0,0.0,0.0,5.3076,0.0,0.0,0.0,0.0,0.0,0.0,0.0,0.0,0.0,0.0,0.0,5.3502,5.3502,5.3962,5.46,5.5451,5.5814,5.6008,5.6008,5.6008,5.6008,5.6008,5.6008,0.0,0.0,0.0,0.0,5.6008,5.6008,5.6008,5.6008,5.6008,5.6008,5.6008,5.6008,5.6008,5.6008,5.6008,5.6008,5.6008,5.6008,5.6008,5.6008,5.6008,5.6008,5.6008,5.6008,5.6008,5.6008,5.6008,5.6008,5.6008,5.6008,5.6008,5.6008,5.6008,5.6008,5.6008,5.6008,5.6008,5.6008,5.6008,5.6008,5.6008,5.6008,5.6008,5.6008,5.6008,5.6008,5.6008,5.6008,5.6008,5.6008,5.6008,5.6008,5.6008,5.6008,5.6008,5.6008,5.6008,5.6008,5.6008,5.6008,5.6008,5.6008,5.6008,5.6008,5.6008,5.6008,5.6008,5.6008,5.1367,5.1406,5.1406,5.1406,5.1296,5.1201,5.1201,5.1035,5.0898,5.0898,5.0898,5.0898,5.0898,5.0898,0.0,0.0,0.0,0.0,5.0898,5.1544,0.0,0.0,0.0,0.0,0.0,0.0,0.0,0.0,0.0,0.0,0.0,0.0,0.0,5.3091,5.3231,5.3656,5.4407,5.5335,5.5872,5.6008,5.6008,5.6008,5.6008,5.6008,5.6008,0.0,0.0,0.0,5.6008,5.6008,5.6008,5.6008,5.6008,5.6008,5.6008,5.6008,5.6008,5.6008,5.6008,5.6008,5.6008,5.6008,5.6008,5.6008,5.6008,5.6008,5.6008,5.6008,5.6008,5.6008,5.6008,5.6008,5.6008,5.6008,5.6008,5.6008,5.6008,5.6008,5.6008,5.6008,5.6008,5.6008,5.6008,5.6008,5.6008,5.6008,5.6008,5.6008,5.6008,5.6008,5.6008,5.6008,5.6008,5.6008,5.6008,5.6008,5.6008,5.6008,5.6008,5.6008,5.6008,5.6008,5.6008,5.6008,5.6008,5.6008,5.6008,5.6008,5.6008,5.6008,5.6008,5.6008,5.1211,5.1406,5.1406,5.1406,5.1296,5.1201,5.1201,5.1035,5.0898,5.0898,5.0898,5.0898,5.0898,5.0898,5.0898,0.0,0.0,5.0898,0.0,0.0,0.0,0.0,0.0,0.0,0.0,0.0,0.0,0.0,0.0,0.0,0.0,0.0,0.0,5.1308,5.2008,5.2457,5.2593,5.4194,5.5335,5.6008,5.6008,5.6008,5.6008,5.6008,5.6008,0.0,0.0,5.6008,5.6008,5.6008,5.6008,5.6008,5.6008,5.6008,5.6008,5.6008,5.6008,5.6008,5.6008,5.6008,5.6008,5.6008,5.6008,5.6008,5.6008,5.6008,5.6008,5.6008,5.6008,5.6008,5.6008,5.6008,5.6008,5.6008,5.6008,5.6008,5.6008,5.6008,5.6008,5.6008,5.6008,5.6008,5.6008,5.6008,5.6008,5.6008,5.6008,5.6008,5.6008,5.6008,5.6008,5.6008,5.6008,5.6008,5.6008,5.6008,5.6008,5.6008,5.6008,5.6008,5.6008,5.6008,5.6008,5.6008,5.6008,5.6008,5.6008,5.6008,5.6008,5.6008,5.6008,5.6008,5.1172,5.1406,5.1406,5.1406,5.1331,5.1232,5.1213,5.1106,5.0986,5.0917,5.0898,5.0898,0.0,0.0,5.0898,5.0898,0.0,0.0,0.0,0.0,0.0,0.0,0.0,0.0,0.0,0.0,0.0,0.0,0.0,0.0,0.0,0.0,0.0,0.0,5.1289,5.1718,5.2206,5.2999,5.4039,5.5354,5.5795,5.6008,5.6008,5.6008,5.6008,5.6008,0.0,5.6008,5.6008,5.6008,5.6008,5.6008,5.6008,5.6008,5.6008,5.6008,5.6008,5.6008,5.6008,5.6008,5.6008,5.6008,5.6008,5.6008,5.6008,5.6008,5.6008,5.6008,5.6008,5.6008,5.6008,5.6008,5.6008,5.6008,5.6008,5.6008,5.6008,5.6008,5.6008,5.6008,5.6008,5.6008,5.6008,5.6008,5.6008,5.6008,5.6008,5.6008,5.6008,5.6008,5.6008,5.6008,5.6008,5.6008,5.6008,5.6008,5.6008,5.6008,5.6008,5.6008,5.6008,5.6008,5.6008,5.6008,5.6008,5.6008,5.6008,5.6008,5.6008,5.6008,5.6008,5.6008,5.1133,5.1406,5.1406,5.1406,5.1359,5.1284,5.122,5.1147,5.1066,5.0933,5.0898,0.0,0.0,5.0898,0.0,5.0898,0.0,0.0,0.0,0.0,0.0,0.0,0.0,0.0,0.0,0.0,0.0,0.0,0.0,0.0,0.0,0.0,0.0,0.0,5.0898,5.1211,5.1896,5.2109,5.3076,5.4813,5.5412,5.5814,5.6008,5.6008,5.6008,5.6008,5.6008,5.6008,5.6008,5.6008,5.6008,5.6008,5.6008,5.6008,5.6008,5.6008,5.6008,5.6008,5.6008,5.6008,5.6008,5.6008,5.6008,5.6008,5.6008,5.6008,5.6008,5.6008,5.6008,5.6008,5.6008,5.6008,5.6008,5.6008,5.6008,5.6008,5.6008,5.6008,5.6008,5.6008,5.6008,5.6008,5.6008,5.6008,5.6008,5.6008,5.6008,5.6008,5.6008,5.6008,5.6008,5.6008,5.6008,5.6008,5.6008,5.6008,5.6008,5.6008,5.6008,5.6008,5.6008,5.6008,5.6008,5.6008,5.6008,5.6008,5.6008,5.6008,5.6008,5.6008,5.6008,5.6008,5.0957,5.1406,5.1406,5.1406,5.1359,5.1284,5.122,5.1147,5.1066,5.0933,0.0,0.0,0.0,5.0898,5.0898,5.0898,0.0,0.0,0.0,0.0,0.0,0.0,0.0,0.0,0.0,0.0,0.0,0.0,0.0,0.0,0.0,0.0,0.0,0.0,0.0,5.0937,5.0999,5.1796,5.3076,5.4793,5.4851,5.5277,5.6008,5.6008,5.6008,5.6008,5.6008,5.6008,5.6008,5.6008,5.6008,5.6008,5.6008,5.6008,5.6008,5.6008,5.6008,5.6008,5.6008,5.6008,5.6008,5.6008,5.6008,5.6008,5.6008,5.6008,5.6008,5.6008,5.6008,5.6008,5.6008,5.6008,5.6008,5.6008,5.6008,5.6008,5.6008,5.6008,5.6008,5.6008,5.6008,5.6008,5.6008,5.6008,5.6008,5.6008,5.6008,5.6008,5.6008,5.6008,5.6008,5.6008,5.6008,5.6008,5.6008,5.6008,5.6008,5.6008,5.6008,5.6008,5.6008,5.6008,5.6008,5.6008,5.6008,5.6008,5.6008,5.6008,5.6008,5.6008,5.6008,5.6008,5.1094,5.1406,5.1406,5.1406,5.1359,5.1284,5.122,5.1176,5.1119,5.0936,5.0898,0.0,0.0,0.0,5.0882,0.0,0.0,0.0,0.0,0.0,0.0,0.0,0.0,0.0,0.0,0.0,0.0,0.0,0.0,0.0,0.0,0.0,0.0,0.0,0.0,5.0898,5.0898,5.1231,5.1989,5.3192,5.4271,5.4967,5.5277,5.5776,5.6008,5.6008,5.6008,5.6008,5.6008,5.6008,5.6008,5.6008,5.6008,5.6008,5.6008,5.6008,5.6008,5.6008,5.6008,5.6008,5.6008,5.6008,5.6008,5.6008,5.6008,5.6008,5.6008,5.6008,5.6008,5.6008,5.6008,5.6008,5.6008,5.6008,5.6008,5.6008,5.6008,5.6008,5.6008,5.6008,5.6008,5.6008,5.6008,5.6008,5.6008,5.6008,5.6008,5.6008,5.6008,5.6008,5.6008,5.6008,5.6008,5.6008,5.6008,5.6008,5.6008,5.6008,5.6008,5.6008,5.6008,5.6008,5.6008,5.6008,5.6008,5.6008,5.6008,5.6008,5.6008,5.6008,5.6008,5.6008,5.1172,5.1406,5.1406,5.1406,5.1359,5.1284,5.122,5.1181,5.1127,5.0936,5.0909,5.0893,5.0904,0.0,0.0,0.0,0.0,0.0,0.0,0.0,0.0,0.0,0.0,0.0,0.0,0.0,0.0,0.0,0.0,0.0,0.0,0.0,0.0,0.0,0.0,5.0898,5.0898,5.0898,5.1192,5.1815,5.3285,5.4271,5.4832,5.5621,5.6008,5.6008,5.6008,5.6008,5.6008,5.6008,5.6008,5.6008,5.6008,5.6008,5.6008,5.6008,5.6008,5.6008,5.6008,5.6008,5.6008,5.6008,5.6008,5.6008,5.6008,5.6008,5.6008,5.6008,5.6008,5.6008,5.6008,5.6008,5.6008,5.6008,5.6008,5.6008,5.6008,5.6008,5.6008,5.6008,5.6008,5.6008,5.6008,5.6008,5.6008,5.6008,5.6008,5.6008,5.6008,5.6008,5.6008,5.6008,5.6008,5.6008,5.6008,5.6008,5.6008,5.6008,5.6008,5.6008,5.6008,5.6008,5.6008,5.6008,5.6008,5.6008,5.6008,5.6008,5.6008,5.6008,5.6008,5.6008,5.1172,5.1406,5.1406,5.1406,5.1359,5.1284,5.122,5.1147,5.1066,5.0933,5.0909,5.0899,5.0899,0.0,0.0,0.0,0.0,0.0,0.0,0.0,0.0,0.0,0.0,0.0,0.0,0.0,0.0,0.0,0.0,0.0,0.0,0.0,0.0,0.0,0.0,0.0,5.0898,5.0898,5.0898,5.0917,5.1776,5.3115,5.4813,5.5621,5.5988,5.6008,5.6008,5.6008,5.6008,5.6008,5.6008,5.6008,5.6008,5.6008,5.6008,5.6008,5.6008,5.6008,5.6008,5.6008,5.6008,5.6008,5.6008,5.6008,5.6008,5.6008,5.6008,5.6008,5.6008,5.6008,5.6008,5.6008,5.6008,5.6008,5.6008,5.6008,5.6008,5.6008,5.6008,5.6008,5.6008,5.6008,5.6008,5.6008,5.6008,5.6008,5.6008,5.6008,5.6008,5.6008,5.6008,5.6008,5.6008,5.6008,5.6008,5.6008,5.6008,5.6008,5.6008,5.6008,5.6008,5.6008,5.6008,5.6008,5.6008,5.6008,5.6008,5.6008,5.6008,5.6008,5.6008,5.6008,5.1348,5.1406,5.1386,5.1337,5.1282,5.1216,5.1142,5.1075,5.0988,0.0,5.0827,5.0825,5.077,0.0,0.0,0.0,0.0,0.0,0.0,0.0,0.0,0.0,0.0,0.0,0.0,0.0,0.0,0.0,0.0,0.0,0.0,0.0,0.0,0.0,0.0,0.0,5.0898,5.0898,5.0898,5.0917,5.1776,5.2786,5.3904,5.4774,5.5466,5.6008,5.6008,5.6008,5.6008,5.6008,5.6008,5.6008,5.6008,5.6008,5.6008,5.6008,5.6008,5.6008,5.6008,5.6008,5.6008,5.6008,5.6008,5.6008,5.6008,5.6008,5.6008,5.6008,5.6008,5.6008,5.6008,5.6008,5.6008,5.6008,5.6008,5.6008,5.6008,5.6008,5.6008,5.6008,5.6008,5.6008,5.6008,5.6008,5.6008,5.6008,5.6008,5.6008,5.6008,5.6008,5.6008,5.6008,5.6008,5.6008,5.6008,5.6008,5.6008,5.6008,5.6008,5.6008,5.6008,5.6008,5.6008,5.6008,5.6008,5.6008,5.6008,5.6008,5.6008,5.6008,5.6008,5.6008,5.1364,5.1362,5.1338,5.128,5.1189,5.1097,5.0977,0.0,0.0,0.0,5.0784,5.0757,5.0706,0.0,0.0,0.0,0.0,0.0,0.0,0.0,0.0,0.0,0.0,0.0,0.0,0.0,0.0,0.0,0.0,0.0,0.0,0.0,0.0,0.0,0.0,0.0,5.0898,5.0898,5.0898,5.0917,5.1428,5.2144,5.3018,5.4233,5.5064,5.5543,5.5853,5.6008,5.6008,5.6008,5.6008,5.6008,5.6008,5.6008,5.6008,5.6008,5.6008,5.6008,5.6008,5.6008,5.6008,5.6008,5.6008,5.6008,5.6008,5.6008,5.6008,5.6008,5.6008,5.6008,5.6008,5.6008,5.6008,5.6008,5.6008,5.6008,5.6008,5.6008,5.6008,5.6008,5.6008,5.6008,5.6008,5.6008,5.6008,5.6008,5.6008,5.6008,5.6008,5.6008,5.6008,5.6008,5.6008,5.6008,5.6008,5.6008,5.6008,5.6008,5.6008,5.6008,5.6008,5.6008,5.6008,5.6008,5.6008,5.6008,5.6008,5.6008,5.6008,5.6008,5.6008,5.6008,5.1326,5.1297,5.1284,5.1191,5.1072,0.0,5.0741,5.0788,5.0855,5.0797,0.0,5.0692,0.0,0.0,0.0,0.0,0.0,0.0,0.0,0.0,0.0,0.0,0.0,0.0,0.0,0.0,0.0,0.0,0.0,0.0,0.0,0.0,0.0,0.0,0.0,0.0,5.0894,5.0898,5.0898,0.0,5.0898,5.1308,5.2148,5.3884,5.4755,5.4948,5.5679,5.6008,5.6008,5.6008,5.6008,5.6008,5.6008,5.6008,5.6008,5.6008,5.6008,5.6008,5.6008,5.6008,5.6008,5.6008,5.6008,5.6008,5.6008,5.6008,5.6008,5.6008,5.6008,5.6008,5.6008,5.6008,5.6008,5.6008,5.6008,5.6008,5.6008,5.6008,5.6008,5.6008,5.6008,5.6008,5.6008,5.6008,5.6008,5.6008,5.6008,5.6008,5.6008,5.6008,5.6008,5.6008,5.6008,5.6008,5.6008,5.6008,5.6008,5.6008,5.6008,5.6008,5.6008,5.6008,5.6008,5.6008,5.6008,5.6008,5.6008,5.6008,5.6008,5.6008,5.6008,5.6008,5.1326,5.1297,5.1253,5.1091,5.0944,5.0825,5.0724,5.0715,5.0739,5.0712,5.0712,5.0702,0.0,0.0,0.0,0.0,0.0,0.0,0.0,0.0,0.0,0.0,0.0,0.0,0.0,0.0,0.0,0.0,0.0,0.0,0.0,0.0,0.0,5.081,0.0,5.0904,5.0892,5.0905,5.0898,0.0,5.0898,5.0999,5.1231,5.2975,5.4503,5.5756,5.5911,5.6008,5.6008,5.6008,5.6008,5.6008,5.6008,5.6008,5.6008,5.6008,5.6008,5.6008,5.6008,5.6008,5.6008,5.6008,5.6008,5.6008,5.6008,5.6008,5.6008,5.6008,5.6008,5.6008,5.6008,5.6008,5.6008,5.6008,5.6008,5.6008,5.6008,5.6008,5.6008,5.6008,5.6008,5.6008,5.6008,5.6008,5.6008,5.6008,5.6008,5.6008,5.6008,5.6008,5.6008,5.6008,5.6008,5.6008,5.6008,5.6008,5.6008,5.6008,5.6008,5.6008,5.6008,5.6008,5.6008,5.6008,5.6008,5.6008,5.6008,5.6008,5.6008,5.6008,5.6008,5.6008,5.1237,5.1182,5.1113,5.0911,0.0,5.0748,5.0716,5.0707,5.0697,5.0693,5.0707,0.0,0.0,0.0,0.0,0.0,0.0,0.0,0.0,0.0,0.0,0.0,0.0,0.0,0.0,0.0,0.0,0.0,0.0,0.0,0.0,5.0707,5.073,5.0761,5.0784,5.0825,5.0851,5.0852,5.0873,5.0893,5.0893,5.1114,5.1563,5.2898,5.4194,5.5451,5.5834,5.6008,5.6008,5.6008,5.6008,5.6008,5.6008,5.6008,5.6008,5.6008,5.6008,5.6008,5.6008,5.6008,5.6008,5.6008,5.6008,5.6008,5.6008,5.6008,5.6008,5.6008,5.6008,5.6008,5.6008,5.6008,5.6008,5.6008,5.6008,5.6008,5.6008,5.6008,5.6008,5.6008,5.6008,5.6008,5.6008,5.6008,5.6008,5.6008,5.6008,5.6008,5.6008,5.6008,5.6008,5.6008,5.6008,5.6008,5.6008,5.6008,5.6008,5.6008,5.6008,5.6008,5.6008,5.6008,5.6008,5.6008,5.6008,5.6008,5.6008,5.6008,5.6008,5.6008,5.6005,5.5992,5.1122,5.1011,5.0919,5.0741,5.0692,0.0,5.0697,5.0707,5.0707,5.0707,0.0,0.0,0.0,0.0,0.0,0.0,0.0,0.0,0.0,0.0,0.0,0.0,0.0,0.0,0.0,0.0,0.0,0.0,0.0,0.0,5.0707,5.0707,5.0707,5.0706,5.0696,5.072,5.0784,5.0797,5.0838,5.0872,5.0895,5.1272,5.2012,5.2883,5.3826,5.4832,5.5505,5.5872,5.6008,5.6008,5.6008,5.6008,5.6008,5.6008,5.6008,5.6008,5.6008,5.6008,5.6008,5.6008,5.6008,5.6008,5.6008,5.6008,5.6008,5.6008,5.6008,5.6008,5.6008,5.6008,5.6008,5.6008,5.6008,5.6008,5.6008,5.6008,5.6008,5.6008,5.6008,5.6008,5.6008,5.6008,5.6008,5.6008,5.6008,5.6008,5.6008,5.6008,5.6008,5.6008,5.6008,5.6008,5.6008,5.6008,5.6008,5.6008,5.6008,5.6008,5.6008,5.6008,5.6008,5.6008,5.6008,5.6008,5.5999,5.5995,5.5995,5.5986,5.5981,5.5981,5.598,5.5981,5.1061,5.0879,5.0727,5.071,5.0707,5.0697,0.0,0.0,5.0707,0.0,0.0,0.0,0.0,0.0,0.0,0.0,0.0,0.0,0.0,0.0,0.0,0.0,0.0,0.0,0.0,0.0,0.0,0.0,0.0,0.0,5.0707,5.0707,5.0693,5.0697,5.0697,5.0701,5.071,5.0775,5.0801,5.081,5.0863,5.0959,5.1095,5.197,5.327,5.4813,5.4909,5.5354,5.6008,5.6008,5.6008,5.6008,5.6008,5.6008,5.6008,5.6008,5.6008,5.6008,5.6008,5.6008,5.6008,5.6008,5.6008,5.6008,5.6008,5.6008,5.6008,5.6008,5.6008,5.6008,5.6008,5.6008,5.6008,5.6008,5.6008,5.6008,5.6008,5.6008,5.6008,5.6008,5.6008,5.6008,5.6008,5.6008,5.6008,5.6008,5.6008,5.6008,5.6008,5.6008,5.6008,5.6008,5.6008,5.6008,5.6008,5.6008,5.6008,5.6008,5.6008,5.6008,5.6008,5.6008,5.6008,5.6008,5.6007,5.6004,5.6004,5.5943,5.5919,5.5919,5.5909,5.5909,5.0885,5.0776,5.0692,5.0707,5.0702,5.0707,5.0707,5.0707,5.0707,0.0,0.0,0.0,0.0,0.0,0.0,0.0,0.0,0.0,0.0,0.0,0.0,0.0,0.0,0.0,0.0,0.0,0.0,0.0,0.0,5.0707,5.0707,5.0707,5.0707,5.0707,5.0707,5.0702,5.0702,5.0726,5.073,5.0738,5.0806,5.0868,5.0905,5.1295,5.2162,5.3405,5.4387,5.5006,5.5354,5.5814,5.6008,5.6008,5.6008,5.6008,5.6008,5.6008,5.6008,5.6008,5.6008,5.6008,5.6008,5.6008,5.6008,5.6008,5.6008,5.6008,5.6008,5.6008,5.6008,5.6008,5.6008,5.6008,5.6008,5.6008,5.6008,5.6008,5.6008,5.6008,5.6008,5.6008,5.6008,5.6008,5.6008,5.6008,5.6008,5.6008,5.6008,5.6008,5.6008,5.6008,5.6008,5.6008,5.6008,5.6008,5.6008,5.6008,5.6008,5.6008,5.6008,5.5995,5.6007,5.6007,5.5974,5.5947,5.5971,5.5994,5.5994,5.5924,5.59,5.5895,5.5851,5.5841,5.0741,5.0692,5.0692,5.0697,5.0707,5.0707,0.0,0.0,5.0707,0.0,0.0,0.0,0.0,0.0,0.0,0.0,0.0,0.0,0.0,0.0,0.0,0.0,0.0,0.0,0.0,0.0,0.0,0.0,0.0,5.0707,5.0707,5.0707,5.0707,5.0707,5.0707,5.0707,5.0707,5.0707,5.0693,5.0701,5.0742,5.0829,5.0899,5.0899,5.1253,5.195,5.3478,5.4387,5.4851,5.5451,5.5814,5.6008,5.6008,5.6008,5.6008,5.6008,5.6008,5.6008,5.6008,5.6008,5.6008,5.6008,5.6008,5.6008,5.6008,5.6008,5.6008,5.6008,5.6008,5.6008,5.6008,5.6008,5.6008,5.6008,5.6008,5.6008,5.6008,5.6008,5.6008,5.6008,5.6008,5.6008,5.6008,5.6008,5.6008,5.6008,5.6008,5.6008,5.6008,5.6008,5.6008,5.6008,5.5999,5.601,5.601,5.5977,5.5973,5.5973,5.5973,5.5974,5.5976,5.5976,5.5957,5.59,5.5924,5.5957,5.5957,5.5885,5.5841,5.586,5.5806,5.5771,5.072,5.0707,5.0693,5.0712,5.0707,5.0707,0.0,0.0,0.0,0.0,0.0,0.0,0.0,0.0,0.0,0.0,0.0,0.0,0.0,0.0,0.0,0.0,0.0,0.0,0.0,0.0,0.0,0.0,0.0,5.0707,5.0707,5.0707,5.0707,5.0707,5.0707,5.0707,5.0707,5.0707,5.0693,5.0696,5.0701,5.0775,5.0899,5.0899,5.092,5.1018,5.1931,5.327,5.4793,5.4851,5.5316,5.6008,5.6008,5.6008,5.6008,5.6008,5.6008,5.6008,5.6008,5.6008,5.6008,5.6008,5.6008,5.6008,5.6008,5.6008,5.6008,5.6008,5.6008,5.6008,5.6008,5.6008,5.6008,5.6008,5.6008,5.6008,5.6008,5.6008,5.6008,5.6008,5.6008,5.6008,5.6008,5.6008,5.6008,5.6008,5.6008,5.6008,5.6008,5.6008,5.6008,5.6008,5.6007,5.5999,5.5999,5.5933,5.5905,5.5905,5.5905,5.5905,5.59,5.59,5.59,5.59,5.5841,5.5802,5.5802,5.5745,5.5714,5.5714,5.5714,5.5714,5.0716,5.0702,5.0707,5.0707,5.0707,5.0707,5.0707,5.0707,5.0707,0.0,0.0,0.0,0.0,0.0,0.0,0.0,0.0,0.0,0.0,0.0,0.0,0.0,0.0,0.0,0.0,0.0,0.0,0.0,0.0,0.0,5.0707,5.0707,5.0707,5.0707,5.0707,5.0707,5.0707,5.0707,5.0697,5.0693,5.0706,5.0757,5.0842,5.0887,5.0901,5.0917,5.1231,5.2356,5.4,5.4561,5.5277,5.6008,5.6008,5.6008,5.6008,5.6008,5.6008,5.6008,5.6008,5.6008,5.6008,5.6008,5.6008,5.6008,5.6008,5.6008,5.6008,5.6008,5.6008,5.6008,5.6008,5.6008,5.6008,5.6008,5.6008,5.6008,5.6008,5.6008,5.5999,5.6007,5.6005,5.6008,5.6008,5.6008,5.6008,5.6008,5.6008,5.5999,5.6007,5.6002,5.5989,5.5937,5.5938,5.5943,5.5943,5.5909,5.59,5.59,5.59,5.5885,5.5836,5.5836,5.5821,5.5766,5.5745,5.5756,5.5792,5.5735,5.5708,5.5708,5.5708,5.5708,5.0716,5.0702,5.0707,5.0707,5.0707,5.0707,5.0707,0.0,5.0707,0.0,0.0,0.0,0.0,0.0,0.0,0.0,0.0,0.0,0.0,0.0,0.0,0.0,0.0,0.0,0.0,0.0,0.0,0.0,0.0,0.0,5.0707,5.0707,5.0697,5.0693,5.0693,5.0693,5.0693,5.0712,5.0712,5.0693,5.0725,5.0775,5.0842,5.0887,5.0901,5.0898,5.0898,5.1714,5.3134,5.4,5.4851,5.5621,5.5892,5.6008,5.6008,5.6008,5.6008,5.6008,5.6008,5.6008,5.6003,5.601,5.5995,5.6003,5.601,5.5995,5.6008,5.6008,5.6008,5.6008,5.6008,5.6008,5.6008,5.6008,5.5995,5.6005,5.6005,5.5999,5.5999,5.6007,5.6005,5.6008,5.6008,5.5995,5.6005,5.6005,5.5968,5.5969,5.5971,5.5967,5.5957,5.59,5.5885,5.5875,5.5875,5.586,5.5826,5.5826,5.5826,5.5816,5.5766,5.5766,5.5745,5.5708,5.5708,5.5724,5.5766,5.5724,5.5708,5.5708,5.5708,5.5708,0.0,0.0,0.0,5.0707,5.0707,5.0707,5.0707,0.0,5.0707,0.0,0.0,0.0,0.0,0.0,0.0,0.0,0.0,0.0,0.0,0.0,0.0,0.0,0.0,0.0,0.0,0.0,0.0,0.0,0.0,5.0707,5.0707,5.0707,5.0693,5.0696,5.0696,5.0701,5.0701,5.0775,5.0775,5.0701,5.0775,5.0842,5.0899,5.0904,5.0905,5.0898,5.0898,5.1385,5.2225,5.3095,5.3981,5.4871,5.5659,5.5988,5.6008,5.6008,5.6008,5.6008,5.6008,5.6008,5.5999,5.5993,5.6007,5.5999,5.6008,5.6011,5.6008,5.6008,5.6008,5.6008,5.6008,5.6008,5.6008,5.6008,5.6007,5.5994,5.5994,5.5992,5.6003,5.6008,5.6008,5.6008,5.6008,5.6007,5.5994,5.5994,5.5929,5.5895,5.5895,5.5895,5.5895,5.5895,5.5836,5.5792,5.5792,5.574,5.5708,5.5708,5.5708,5.5708,5.5708,5.5708,5.5708,5.5708,5.5708,5.5708,5.5708,5.5708,5.5708,5.5708,5.5708,5.5708,5.0741,0.0,0.0,0.0,0.0,0.0,5.0707,5.0707,5.0707,0.0,0.0,0.0,0.0,0.0,0.0,0.0,0.0,0.0,0.0,0.0,0.0,0.0,0.0,0.0,0.0,0.0,0.0,0.0,5.0707,5.0707,5.0707,5.0707,5.0693,5.0696,5.0696,5.072,5.0775,5.0793,5.0793,5.0779,5.0842,5.0891,5.0899,5.0889,5.0909,5.0898,5.0898,5.1037,5.1327,5.2206,5.3444,5.4813,5.5045,5.5485,5.6008,5.6008,5.6008,5.6008,5.6008,5.6008,5.5999,5.5993,5.6007,5.5999,5.6008,5.6011,5.6008,5.6008,5.6008,5.6008,5.6008,5.6001,5.5993,5.5993,5.5957,5.5938,5.5938,5.5929,5.5933,5.5989,5.5993,5.5993,5.5993,5.5952,5.5938,5.5938,5.5905,5.5885,5.5836,5.5831,5.5816,5.5756,5.574,5.573,5.573,5.5714,5.5708,5.5708,5.5708,5.5708,5.5708,5.5708,5.5708,5.5708,5.5708,5.5708,5.5708,5.5708,5.5708,5.5708,5.5708,5.5708,0.0,0.0,0.0,0.0,0.0,0.0,5.0707,5.0707,5.0707,0.0,0.0,0.0,0.0,0.0,0.0,0.0,0.0,0.0,0.0,0.0,0.0,0.0,0.0,0.0,0.0,0.0,0.0,5.0707,5.0707,5.0707,5.0707,5.0707,5.0702,5.0733,5.077,5.0797,5.0846,5.0844,5.0844,5.0846,5.0888,5.0905,5.0905,5.0909,5.0898,5.0898,5.0898,5.0898,5.0937,5.1447,5.2685,5.4291,5.4658,5.5296,5.6008,5.6008,5.5995,5.5996,5.5996,5.5983,5.596,5.5933,5.5947,5.596,5.5952,5.598,5.5996,5.5996,5.5983,5.5965,5.5965,5.5966,5.5962,5.5962,5.5905,5.5875,5.5895,5.5885,5.5885,5.5953,5.5962,5.5962,5.5962,5.5905,5.5851,5.5851,5.5831,5.5806,5.5761,5.5756,5.5745,5.5689,5.5708,5.5708,5.5708,5.5708,5.5708,5.5708,5.5708,5.5708,5.5708,5.5708,5.5708,5.5708,5.5708,5.5708,5.5708,5.5708,5.5708,5.5708,5.5708,5.5708,0.0,0.0,0.0,0.0,5.0697,0.0,5.0693,5.0707,5.0707,5.0707,0.0,0.0,0.0,0.0,0.0,0.0,0.0,0.0,0.0,0.0,0.0,0.0,0.0,0.0,0.0,5.0707,5.0707,5.0707,5.0707,5.0707,5.0707,5.0692,5.0724,5.0797,5.0878,5.0904,5.0908,5.0901,5.0901,5.0908,5.0901,5.0898,5.0898,5.0898,5.0898,5.0898,5.0898,5.0898,5.0898,5.0898,5.1869,5.3444,5.431,5.5142,5.5872,5.5969,5.5996,5.5994,5.5999,5.5971,5.59,5.5841,5.5861,5.5914,5.59,5.5953,5.5994,5.599,5.5953,5.59,5.59,5.5895,5.589,5.589,5.5836,5.5816,5.5851,5.5831,5.5816,5.5875,5.5885,5.589,5.589,5.5831,5.5782,5.5782,5.574,5.5708,5.5708,5.5708,5.5708,5.5708,5.5708,5.5708,5.5708,5.5708,5.5708,5.5708,5.5708,5.5708,5.5708,5.5708,5.5708,5.5708,5.5708,5.5708,5.5708,5.5708,5.5708,5.5708,5.5708,5.5708,0.0,0.0,0.0,0.0,0.0,0.0,5.0697,5.0707,5.0707,0.0,0.0,0.0,0.0,0.0,0.0,0.0,0.0,0.0,0.0,0.0,0.0,0.0,0.0,0.0,0.0,5.0707,5.0707,5.0707,5.0707,5.0707,5.0707,5.0692,5.0724,5.0797,5.0878,5.0897,5.0909,5.0894,5.0894,5.0909,5.0894,5.0898,5.0898,5.0898,5.0898,5.0898,5.0898,5.0898,5.0898,5.0898,5.1501,5.2535,5.3405,5.4271,5.5103,5.5756,5.5996,5.5999,5.6001,5.5983,5.5981,5.5971,5.596,5.5964,5.5924,5.5953,5.5985,5.5924,5.5905,5.59,5.59,5.5851,5.5826,5.5826,5.5766,5.5724,5.5735,5.573,5.5724,5.5735,5.5776,5.5826,5.5826,5.5761,5.5724,5.5724,5.5714,5.5708,5.5708,5.5708,5.5708,5.5708,5.5708,5.5708,5.5708,5.5708,5.5708,5.5708,5.5708,5.5708,5.5708,5.5708,5.5708,5.5708,5.5708,5.5708,5.5708,5.5708,5.5708,5.5708,5.5708,5.5708,0.0,0.0,0.0,5.0828,0.0,0.0,0.0,5.0702,5.0697,5.0693,5.0707,0.0,0.0,0.0,0.0,0.0,0.0,0.0,0.0,0.0,0.0,0.0,0.0,0.0,0.0,5.0707,5.0707,5.0707,5.0707,5.0707,5.0707,5.072,5.077,5.0797,5.088,5.0901,5.0898,5.0898,5.0898,5.0898,5.0898,5.0898,5.0898,5.0898,5.0898,5.0898,5.0898,5.0898,5.0898,5.0898,5.1153,5.1679,5.2995,5.402,5.4909,5.5698,5.5996,5.5999,5.6002,5.5966,5.5905,5.5905,5.5885,5.5842,5.5856,5.5866,5.588,5.5851,5.5826,5.5806,5.5806,5.5785,5.5751,5.5751,5.573,5.5708,5.5708,5.5708,5.5708,5.5708,5.573,5.5751,5.5751,5.5724,5.5708,5.5708,5.5708,5.5708,5.5708,5.5708,5.5708,5.5708,5.5708,5.5708,5.5708,5.5708,5.5708,5.5708,5.5708,5.5708,5.5708,5.5708,5.5708,5.5708,5.5708,5.5708,5.5708,5.5708,5.5708,5.5708,5.5708,5.5708,0.0,0.0,0.0,0.0,0.0,5.0814,0.0,0.0,0.0,5.0726,5.0712,0.0,0.0,0.0,0.0,0.0,0.0,0.0,0.0,0.0,0.0,0.0,0.0,0.0,0.0,5.0707,5.0707,5.0707,5.0697,5.0702,5.0702,5.0781,5.081,5.081,5.0862,5.0898,5.0898,5.0898,5.0898,5.0898,5.0898,5.0898,5.0898,5.0898,5.0898,5.0898,5.0898,5.0898,5.0898,5.0898,5.0898,5.1076,5.2821,5.3923,5.4677,5.5632,5.5983,5.5981,5.5981,5.5905,5.5792,5.5821,5.5776,5.5745,5.5782,5.5792,5.5792,5.5782,5.5745,5.5708,5.5708,5.5708,5.5708,5.5708,5.5708,5.5708,5.5708,5.5708,5.5708,5.5708,5.5708,5.5708,5.5708,5.5708,5.5708,5.5708,5.5708,5.5708,5.5708,5.5708,5.5708,5.5708,5.5708,5.5708,5.5708,5.5708,5.5708,5.5708,5.5708,5.5708,5.5708,5.5708,5.5708,5.5708,5.5708,5.5708,5.5708,5.5708,5.5708,5.5708,5.5708,5.5708,0.0,0.0,0.0,0.0,5.1028,0.0,0.0,0.0,5.0788,5.0784,0.0,0.0,0.0,0.0,0.0,0.0,0.0,0.0,0.0,0.0,0.0,0.0,0.0,0.0,0.0,0.0,5.0707,5.0707,5.0707,5.0692,5.0692,5.0825,5.0895,5.0895,5.0897,5.0898,5.0898,5.0898,5.0898,5.0898,5.0898,5.0898,5.0898,5.0898,5.0898,5.0898,5.0898,5.0898,5.0898,5.0898,5.0898,5.1076,5.2821,5.356,5.3842,5.5423,5.5952,5.5905,5.5905,5.5856,5.5821,5.5875,5.5885,5.5875,5.5821,5.5792,5.5782,5.573,5.5714,5.5708,5.5708,5.5708,5.5708,5.5708,5.5708,5.5708,5.5708,5.5708,5.5708,5.5708,5.5708,5.5708,5.5708,5.5708,5.5708,5.5708,5.5708,5.5708,5.5708,5.5708,5.5708,5.5708,5.5708,5.5708,5.5708,5.5708,5.5708,5.5708,5.5708,5.5708,5.5708,5.5708,5.5708,5.5708,5.5708,5.5708,5.5708,5.5708,5.5708,5.5708,5.5708,5.5708,0.0,0.0,0.0,0.0,0.0,0.0,5.1036,0.0,5.0943,0.0,0.0,0.0,0.0,0.0,0.0,0.0,5.0457,0.0,0.0,0.0,0.0,0.0,0.0,0.0,0.0,0.0,0.0,0.0,0.0,5.0715,5.0766,5.0846,5.0899,5.0899,5.0897,5.0898,5.0898,5.0898,5.0898,5.0898,5.0898,5.0898,5.0898,5.0898,5.0898,5.0898,5.0898,5.0898,5.0898,5.0898,5.0898,5.1018,5.226,5.304,5.3649,5.5366,5.5962,5.59,5.59,5.587,5.5797,5.5836,5.5841,5.5836,5.5816,5.5792,5.5782,5.5724,5.5708,5.5708,5.5708,5.5708,5.5708,5.5708,5.5708,5.5708,5.5708,5.5708,5.5708,5.5708,5.5708,5.5708,5.5708,5.5708,5.5708,5.5708,5.5708,5.5708,5.5708,5.5708,5.5708,5.5708,5.5708,5.5708,5.5708,5.5708,5.5708,5.5708,5.5708,5.5708,5.5708,5.5708,5.5708,5.5708,5.5708,5.5708,5.5708,5.5708,5.5708,5.5708,5.5708,5.5708,5.1406,0.0,0.0,0.0,0.0,0.0,0.0,0.0,0.0,0.0,0.0,0.0,0.0,0.0,0.0,0.0,0.0,5.0635,0.0,0.0,0.0,0.0,0.0,0.0,0.0,0.0,0.0,0.0,5.0738,5.0761,5.0814,5.0876,5.0897,5.0897,5.0905,5.0898,5.0898,5.0898,5.0898,5.0902,5.0944,5.0944,5.0902,5.0948,5.0925,5.0898,5.0898,5.0898,5.0898,5.0898,5.0898,5.1018,5.2124,5.2893,5.358,5.5087,5.575,5.5895,5.5885,5.5841,5.5792,5.5792,5.5802,5.5826,5.5816,5.5792,5.5782,5.5724,5.5708,5.5708,5.5708,5.5708,5.5708,5.5708,5.5708,5.5708,5.5708,5.5708,5.5708,5.5708,5.5708,5.5708,5.5708,5.5708,5.5708,5.5708,5.5708,5.5708,5.5708,5.5708,5.5708,5.5708,5.5708,5.5708,5.5708,5.5708,5.5708,5.5708,5.5708,5.5708,5.5708,5.5708,5.5708,5.5708,5.5708,5.5708,5.5708,5.5708,5.5708,5.5708,5.5708,5.5708,0.0,0.0,0.0,5.1406,0.0,0.0,0.0,0.0,5.1199,0.0,0.0,0.0,0.0,0.0,5.0644,4.986,0.0,0.0,0.0,0.0,0.0,0.0,0.0,0.0,0.0,0.0,0.0,5.0696,5.077,5.0834,5.0895,5.0897,5.0898,5.0898,5.0898,5.0898,5.0898,5.0898,5.0898,5.0902,5.1034,5.1027,5.0906,5.1037,5.1024,5.0898,5.0898,5.0898,5.0898,5.0898,5.0898,5.1076,5.2782,5.3434,5.3503,5.4411,5.5228,5.589,5.5831,5.5792,5.5792,5.5792,5.5841,5.5885,5.5826,5.5792,5.5782,5.5724,5.5708,5.5708,5.5708,5.5708,5.5708,5.5708,5.5708,5.5708,5.5708,5.5708,5.5708,5.5708,5.5708,5.5708,5.5708,5.5708,5.5708,5.5708,5.5708,5.5708,5.5708,5.5708,5.5708,5.5708,5.5708,5.5708,5.5708,5.5708,5.5708,5.5708,5.5708,5.5708,5.5708,5.5708,5.5708,5.5708,5.5708,5.5708,5.5708,5.5708,5.5708,5.5708,5.5708,5.5708,0.0,0.0,5.1406,5.1406,0.0,0.0,0.0,0.0,0.0,0.0,0.0,0.0,0.0,0.0,5.093,5.0663,5.0749,5.0787,0.0,0.0,0.0,0.0,0.0,0.0,0.0,0.0,0.0,5.0829,5.0851,5.088,0.0,5.0894,5.0898,5.0898,5.0898,5.0898,5.0898,5.0898,5.0898,5.0902,5.1037,5.103,5.091,5.1073,5.1116,5.104,5.1086,5.1075,5.1034,5.1034,5.0976,5.1018,5.2182,5.2987,5.3647,5.5042,5.5692,5.5895,5.5861,5.5875,5.5875,5.5875,5.5909,5.5953,5.5836,5.5831,5.5836,5.573,5.5708,5.5708,5.5708,5.5708,5.5708,5.5708,5.5708,5.5708,5.5708,5.5708,5.5708,5.5708,5.5708,5.5708,5.5708,5.5708,5.5708,5.5708,5.5708,5.5708,5.5708,5.5708,5.5708,5.5708,5.5708,5.5708,5.5708,5.5708,5.5708,5.5708,5.5708,5.5708,5.5708,5.5708,5.5708,5.5708,5.5708,5.5708,5.5708,5.5708,5.5708,5.5708,5.5708,5.5708,5.1406,5.1406,0.0,5.1406,5.1406,0.0,5.1406,0.0,0.0,0.0,0.0,0.0,0.0,0.0,5.1169,5.1169,5.1079,5.1034,0.0,5.1025,0.0,0.0,0.0,0.0,0.0,0.0,5.0779,5.0895,5.0899,5.0897,0.0,0.0,5.0965,5.0965,5.0998,5.1005,5.1005,5.1005,5.1005,5.1008,5.1113,5.1108,5.1014,5.1163,5.1201,5.1149,5.1159,5.1155,5.1119,5.1053,5.1007,5.1078,5.2225,5.3018,5.3672,5.5069,5.5739,5.5924,5.5905,5.59,5.59,5.59,5.5909,5.5914,5.5831,5.5816,5.5753,5.5378,5.5478,5.5631,5.5343,5.5497,5.5708,5.5708,5.5708,5.5708,5.5708,5.5708,5.5708,5.5708,5.5708,5.5708,5.5708,5.5708,5.5708,5.5708,5.5708,5.5708,5.5708,5.5708,5.5708,5.5708,5.5708,5.5708,5.5708,5.5708,5.5708,5.5708,5.5708,5.5708,5.5708,5.5708,5.5708,5.5708,5.5708,5.5708,5.5708,5.5708,5.5708,5.5708,5.5708,5.5708]}]]